<?xml version="1.0" encoding="UTF-8" standalone="no" ?>
<gpx xmlns="http://www.topografix.com/GPX/1/1" xmlns:xsi="http://www.w3.org/2001/XMLSchema-instance" xsi:schemaLocation="http://www.topografix.com/GPX/1/1 http://www.topografix.com/GPX/1/1/gpx.xsd" version="1.1" creator="VisuGPX - https://www.visugpx.com">
  <metadata>
    <name>Paradiski J4-2016 (JLo)</name>
    <desc><![CDATA[Sale temps sur La Plagne]]></desc>
  </metadata>
  <trk>
    <name><![CDATA[2016-03-23 09:33]]></name>
    <desc><![CDATA[<p>Temps de départ: 03/23/2016 09:34</p><p>Temps d'arrivée: 03/23/2016 12:31</p><p>Distance: 42,8 km (02:56)</p><p>Temps déplacement: 02:21</p><p>Vitesse moyenne: 14,5 km/h</p><p>Vitesse moyenne mouvement: 18,1 km/h</p><p>Vitess Max.: 48,4km/h</p><p>Altitude minimale: 1350 m</p><p>Altitude maximale: 2503 m</p><p>Vitesse d'élévation: 3928,9 m/h</p><p>Vitesse de descente: -3189,2 m/h</p><p>Gain Altitude: 4925 m</p><p>Perte Altitude: -4884 m</p><p>Temps d'élévation: 01:15</p><p>Temps de descente: 01:31</p><hr align="center" width="480" style="height: 2px; width: 517px"/>]]></desc>
    <trkseg>
      <trkpt lat="45.51223" lon="6.66707">
        <ele>2052.53</ele>
        <time>2016-03-23T08:34:50Z</time>
      </trkpt>
      <trkpt lat="45.5122" lon="6.66682">
        <ele>2050.93</ele>
        <time>2016-03-23T08:34:54Z</time>
      </trkpt>
      <trkpt lat="45.512" lon="6.66694">
        <ele>2035.29</ele>
        <time>2016-03-23T08:35:07Z</time>
      </trkpt>
      <trkpt lat="45.51219" lon="6.66689">
        <ele>2053.33</ele>
        <time>2016-03-23T08:38:11Z</time>
      </trkpt>
      <trkpt lat="45.51242" lon="6.66691">
        <ele>2052.53</ele>
        <time>2016-03-23T08:38:57Z</time>
      </trkpt>
      <trkpt lat="45.51262" lon="6.66688">
        <ele>2050.13</ele>
        <time>2016-03-23T08:38:59Z</time>
      </trkpt>
      <trkpt lat="45.51286" lon="6.6668">
        <ele>2048.58</ele>
        <time>2016-03-23T08:39:02Z</time>
      </trkpt>
      <trkpt lat="45.51309" lon="6.66678">
        <ele>2045.78</ele>
        <time>2016-03-23T08:39:05Z</time>
      </trkpt>
      <trkpt lat="45.51329" lon="6.66684">
        <ele>2045.5</ele>
        <time>2016-03-23T08:39:08Z</time>
      </trkpt>
      <trkpt lat="45.51349" lon="6.66688">
        <ele>2044.37</ele>
        <time>2016-03-23T08:39:12Z</time>
      </trkpt>
      <trkpt lat="45.51365" lon="6.66699">
        <ele>2040.78</ele>
        <time>2016-03-23T08:39:18Z</time>
      </trkpt>
      <trkpt lat="45.51385" lon="6.66709">
        <ele>2039.56</ele>
        <time>2016-03-23T08:39:24Z</time>
      </trkpt>
      <trkpt lat="45.51395" lon="6.66732">
        <ele>2032.21</ele>
        <time>2016-03-23T08:39:32Z</time>
      </trkpt>
      <trkpt lat="45.51408" lon="6.66756">
        <ele>2029.5</ele>
        <time>2016-03-23T08:39:38Z</time>
      </trkpt>
      <trkpt lat="45.51416" lon="6.66785">
        <ele>2023.95</ele>
        <time>2016-03-23T08:39:43Z</time>
      </trkpt>
      <trkpt lat="45.51432" lon="6.66797">
        <ele>2020.58</ele>
        <time>2016-03-23T08:39:48Z</time>
      </trkpt>
      <trkpt lat="45.5145" lon="6.66802">
        <ele>2016.39</ele>
        <time>2016-03-23T08:39:54Z</time>
      </trkpt>
      <trkpt lat="45.51454" lon="6.66829">
        <ele>2011.63</ele>
        <time>2016-03-23T08:39:58Z</time>
      </trkpt>
      <trkpt lat="45.51474" lon="6.6682">
        <ele>2000.74</ele>
        <time>2016-03-23T08:40:10Z</time>
      </trkpt>
      <trkpt lat="45.51494" lon="6.66821">
        <ele>1995.78</ele>
        <time>2016-03-23T08:40:15Z</time>
      </trkpt>
      <trkpt lat="45.51512" lon="6.66821">
        <ele>1993.74</ele>
        <time>2016-03-23T08:40:18Z</time>
      </trkpt>
      <trkpt lat="45.51532" lon="6.66828">
        <ele>1992.76</ele>
        <time>2016-03-23T08:40:22Z</time>
      </trkpt>
      <trkpt lat="45.51552" lon="6.66823">
        <ele>1988.49</ele>
        <time>2016-03-23T08:40:26Z</time>
      </trkpt>
      <trkpt lat="45.51564" lon="6.668">
        <ele>1980.15</ele>
        <time>2016-03-23T08:40:30Z</time>
      </trkpt>
      <trkpt lat="45.5158" lon="6.66779">
        <ele>1971.21</ele>
        <time>2016-03-23T08:40:34Z</time>
      </trkpt>
      <trkpt lat="45.51588" lon="6.66755">
        <ele>1961.97</ele>
        <time>2016-03-23T08:40:38Z</time>
      </trkpt>
      <trkpt lat="45.51598" lon="6.66728">
        <ele>1949.15</ele>
        <time>2016-03-23T08:40:42Z</time>
      </trkpt>
      <trkpt lat="45.51618" lon="6.66721">
        <ele>1944.55</ele>
        <time>2016-03-23T08:40:46Z</time>
      </trkpt>
      <trkpt lat="45.51624" lon="6.66695">
        <ele>1937.14</ele>
        <time>2016-03-23T08:40:49Z</time>
      </trkpt>
      <trkpt lat="45.51632" lon="6.66665">
        <ele>1929.1</ele>
        <time>2016-03-23T08:40:53Z</time>
      </trkpt>
      <trkpt lat="45.51645" lon="6.66646">
        <ele>1924.36</ele>
        <time>2016-03-23T08:40:58Z</time>
      </trkpt>
      <trkpt lat="45.51658" lon="6.66623">
        <ele>1919.14</ele>
        <time>2016-03-23T08:41:02Z</time>
      </trkpt>
      <trkpt lat="45.51672" lon="6.66604">
        <ele>1913.98</ele>
        <time>2016-03-23T08:41:06Z</time>
      </trkpt>
      <trkpt lat="45.51692" lon="6.66585">
        <ele>1910.74</ele>
        <time>2016-03-23T08:41:10Z</time>
      </trkpt>
      <trkpt lat="45.51708" lon="6.66573">
        <ele>1905.86</ele>
        <time>2016-03-23T08:41:13Z</time>
      </trkpt>
      <trkpt lat="45.51731" lon="6.66567">
        <ele>1900.82</ele>
        <time>2016-03-23T08:41:17Z</time>
      </trkpt>
      <trkpt lat="45.51748" lon="6.66574">
        <ele>1898.78</ele>
        <time>2016-03-23T08:41:19Z</time>
      </trkpt>
      <trkpt lat="45.51759" lon="6.66595">
        <ele>1893.42</ele>
        <time>2016-03-23T08:41:21Z</time>
      </trkpt>
      <trkpt lat="45.51777" lon="6.66608">
        <ele>1887.95</ele>
        <time>2016-03-23T08:41:25Z</time>
      </trkpt>
      <trkpt lat="45.51797" lon="6.66626">
        <ele>1882.99</ele>
        <time>2016-03-23T08:41:28Z</time>
      </trkpt>
      <trkpt lat="45.51814" lon="6.66633">
        <ele>1876.93</ele>
        <time>2016-03-23T08:41:31Z</time>
      </trkpt>
      <trkpt lat="45.51832" lon="6.66645">
        <ele>1868.99</ele>
        <time>2016-03-23T08:41:35Z</time>
      </trkpt>
      <trkpt lat="45.51852" lon="6.66652">
        <ele>1855.9</ele>
        <time>2016-03-23T08:41:39Z</time>
      </trkpt>
      <trkpt lat="45.5187" lon="6.66666">
        <ele>1852.78</ele>
        <time>2016-03-23T08:41:42Z</time>
      </trkpt>
      <trkpt lat="45.51891" lon="6.66684">
        <ele>1849.75</ele>
        <time>2016-03-23T08:41:45Z</time>
      </trkpt>
      <trkpt lat="45.51905" lon="6.66701">
        <ele>1843.26</ele>
        <time>2016-03-23T08:41:48Z</time>
      </trkpt>
      <trkpt lat="45.51927" lon="6.66699">
        <ele>1835.24</ele>
        <time>2016-03-23T08:41:51Z</time>
      </trkpt>
      <trkpt lat="45.51952" lon="6.66708">
        <ele>1828.9</ele>
        <time>2016-03-23T08:41:54Z</time>
      </trkpt>
      <trkpt lat="45.51975" lon="6.66719">
        <ele>1827.75</ele>
        <time>2016-03-23T08:41:56Z</time>
      </trkpt>
      <trkpt lat="45.51997" lon="6.66737">
        <ele>1821.9</ele>
        <time>2016-03-23T08:41:59Z</time>
      </trkpt>
      <trkpt lat="45.52017" lon="6.66751">
        <ele>1811.64</ele>
        <time>2016-03-23T08:42:03Z</time>
      </trkpt>
      <trkpt lat="45.52039" lon="6.66754">
        <ele>1804.24</ele>
        <time>2016-03-23T08:42:06Z</time>
      </trkpt>
      <trkpt lat="45.52058" lon="6.66774">
        <ele>1799.24</ele>
        <time>2016-03-23T08:42:08Z</time>
      </trkpt>
      <trkpt lat="45.52069" lon="6.66795">
        <ele>1795.2</ele>
        <time>2016-03-23T08:42:10Z</time>
      </trkpt>
      <trkpt lat="45.52074" lon="6.66821">
        <ele>1789.92</ele>
        <time>2016-03-23T08:42:12Z</time>
      </trkpt>
      <trkpt lat="45.52073" lon="6.66854">
        <ele>1786.03</ele>
        <time>2016-03-23T08:42:14Z</time>
      </trkpt>
      <trkpt lat="45.52072" lon="6.66886">
        <ele>1784.75</ele>
        <time>2016-03-23T08:42:16Z</time>
      </trkpt>
      <trkpt lat="45.52078" lon="6.6692">
        <ele>1779.86</ele>
        <time>2016-03-23T08:42:19Z</time>
      </trkpt>
      <trkpt lat="45.5209" lon="6.66951">
        <ele>1775.02</ele>
        <time>2016-03-23T08:42:22Z</time>
      </trkpt>
      <trkpt lat="45.52093" lon="6.66982">
        <ele>1769.64</ele>
        <time>2016-03-23T08:42:25Z</time>
      </trkpt>
      <trkpt lat="45.52098" lon="6.67014">
        <ele>1762.04</ele>
        <time>2016-03-23T08:42:28Z</time>
      </trkpt>
      <trkpt lat="45.52117" lon="6.6704">
        <ele>1753.95</ele>
        <time>2016-03-23T08:42:31Z</time>
      </trkpt>
      <trkpt lat="45.5213" lon="6.67071">
        <ele>1746.05</ele>
        <time>2016-03-23T08:42:34Z</time>
      </trkpt>
      <trkpt lat="45.52134" lon="6.67096">
        <ele>1741.02</ele>
        <time>2016-03-23T08:42:37Z</time>
      </trkpt>
      <trkpt lat="45.52154" lon="6.67115">
        <ele>1735.39</ele>
        <time>2016-03-23T08:42:41Z</time>
      </trkpt>
      <trkpt lat="45.52179" lon="6.67109">
        <ele>1729.23</ele>
        <time>2016-03-23T08:42:44Z</time>
      </trkpt>
      <trkpt lat="45.52197" lon="6.67124">
        <ele>1724.08</ele>
        <time>2016-03-23T08:42:46Z</time>
      </trkpt>
      <trkpt lat="45.52216" lon="6.67141">
        <ele>1718.22</ele>
        <time>2016-03-23T08:42:49Z</time>
      </trkpt>
      <trkpt lat="45.52228" lon="6.67162">
        <ele>1701.38</ele>
        <time>2016-03-23T08:42:53Z</time>
      </trkpt>
      <trkpt lat="45.5223" lon="6.67189">
        <ele>1688.05</ele>
        <time>2016-03-23T08:42:58Z</time>
      </trkpt>
      <trkpt lat="45.52243" lon="6.67214">
        <ele>1674.26</ele>
        <time>2016-03-23T08:43:06Z</time>
      </trkpt>
      <trkpt lat="45.52252" lon="6.67241">
        <ele>1669.95</ele>
        <time>2016-03-23T08:43:09Z</time>
      </trkpt>
      <trkpt lat="45.52272" lon="6.67264">
        <ele>1663.84</ele>
        <time>2016-03-23T08:43:12Z</time>
      </trkpt>
      <trkpt lat="45.52291" lon="6.67284">
        <ele>1654.67</ele>
        <time>2016-03-23T08:43:15Z</time>
      </trkpt>
      <trkpt lat="45.52314" lon="6.67275">
        <ele>1650.06</ele>
        <time>2016-03-23T08:43:17Z</time>
      </trkpt>
      <trkpt lat="45.52334" lon="6.67269">
        <ele>1639.36</ele>
        <time>2016-03-23T08:43:20Z</time>
      </trkpt>
      <trkpt lat="45.52354" lon="6.67263">
        <ele>1635.82</ele>
        <time>2016-03-23T08:43:23Z</time>
      </trkpt>
      <trkpt lat="45.52373" lon="6.67284">
        <ele>1625.13</ele>
        <time>2016-03-23T08:43:26Z</time>
      </trkpt>
      <trkpt lat="45.52392" lon="6.67288">
        <ele>1620.08</ele>
        <time>2016-03-23T08:43:28Z</time>
      </trkpt>
      <trkpt lat="45.5241" lon="6.67297">
        <ele>1617.63</ele>
        <time>2016-03-23T08:43:30Z</time>
      </trkpt>
      <trkpt lat="45.52429" lon="6.67306">
        <ele>1615.78</ele>
        <time>2016-03-23T08:43:32Z</time>
      </trkpt>
      <trkpt lat="45.52452" lon="6.67321">
        <ele>1608.79</ele>
        <time>2016-03-23T08:43:36Z</time>
      </trkpt>
      <trkpt lat="45.52474" lon="6.67326">
        <ele>1598.79</ele>
        <time>2016-03-23T08:43:42Z</time>
      </trkpt>
      <trkpt lat="45.52493" lon="6.67338">
        <ele>1593.06</ele>
        <time>2016-03-23T08:43:45Z</time>
      </trkpt>
      <trkpt lat="45.52512" lon="6.67342">
        <ele>1589.56</ele>
        <time>2016-03-23T08:43:49Z</time>
      </trkpt>
      <trkpt lat="45.52532" lon="6.67345">
        <ele>1586.78</ele>
        <time>2016-03-23T08:43:52Z</time>
      </trkpt>
      <trkpt lat="45.52553" lon="6.67346">
        <ele>1586.54</ele>
        <time>2016-03-23T08:43:54Z</time>
      </trkpt>
      <trkpt lat="45.52574" lon="6.67332">
        <ele>1575.76</ele>
        <time>2016-03-23T08:43:59Z</time>
      </trkpt>
      <trkpt lat="45.52567" lon="6.67308">
        <ele>1531.77</ele>
        <time>2016-03-23T08:44:23Z</time>
      </trkpt>
      <trkpt lat="45.52554" lon="6.67281">
        <ele>1520.13</ele>
        <time>2016-03-23T08:45:40Z</time>
      </trkpt>
      <trkpt lat="45.52537" lon="6.67271">
        <ele>1518.54</ele>
        <time>2016-03-23T08:45:43Z</time>
      </trkpt>
      <trkpt lat="45.52519" lon="6.67263">
        <ele>1521.45</ele>
        <time>2016-03-23T08:45:47Z</time>
      </trkpt>
      <trkpt lat="45.52499" lon="6.67255">
        <ele>1527.04</ele>
        <time>2016-03-23T08:45:51Z</time>
      </trkpt>
      <trkpt lat="45.52479" lon="6.67245">
        <ele>1535.96</ele>
        <time>2016-03-23T08:45:56Z</time>
      </trkpt>
      <trkpt lat="45.52459" lon="6.67234">
        <ele>1543.33</ele>
        <time>2016-03-23T08:46:01Z</time>
      </trkpt>
      <trkpt lat="45.5244" lon="6.67225">
        <ele>1550.88</ele>
        <time>2016-03-23T08:46:06Z</time>
      </trkpt>
      <trkpt lat="45.52424" lon="6.67216">
        <ele>1559.61</ele>
        <time>2016-03-23T08:46:11Z</time>
      </trkpt>
      <trkpt lat="45.52403" lon="6.67205">
        <ele>1568.08</ele>
        <time>2016-03-23T08:46:16Z</time>
      </trkpt>
      <trkpt lat="45.52386" lon="6.67198">
        <ele>1570.52</ele>
        <time>2016-03-23T08:46:21Z</time>
      </trkpt>
      <trkpt lat="45.52368" lon="6.67186">
        <ele>1580.02</ele>
        <time>2016-03-23T08:46:26Z</time>
      </trkpt>
      <trkpt lat="45.52349" lon="6.67175">
        <ele>1590.88</ele>
        <time>2016-03-23T08:46:32Z</time>
      </trkpt>
      <trkpt lat="45.52331" lon="6.67162">
        <ele>1604.59</ele>
        <time>2016-03-23T08:46:37Z</time>
      </trkpt>
      <trkpt lat="45.5231" lon="6.67151">
        <ele>1620.43</ele>
        <time>2016-03-23T08:46:43Z</time>
      </trkpt>
      <trkpt lat="45.52292" lon="6.67138">
        <ele>1628.89</ele>
        <time>2016-03-23T08:46:48Z</time>
      </trkpt>
      <trkpt lat="45.52276" lon="6.67126">
        <ele>1639.82</ele>
        <time>2016-03-23T08:46:52Z</time>
      </trkpt>
      <trkpt lat="45.52256" lon="6.67114">
        <ele>1652.83</ele>
        <time>2016-03-23T08:46:57Z</time>
      </trkpt>
      <trkpt lat="45.52238" lon="6.67106">
        <ele>1660.12</ele>
        <time>2016-03-23T08:47:02Z</time>
      </trkpt>
      <trkpt lat="45.52219" lon="6.67093">
        <ele>1669.6</ele>
        <time>2016-03-23T08:47:07Z</time>
      </trkpt>
      <trkpt lat="45.52202" lon="6.67079">
        <ele>1682.18</ele>
        <time>2016-03-23T08:47:12Z</time>
      </trkpt>
      <trkpt lat="45.52184" lon="6.6707">
        <ele>1689.06</ele>
        <time>2016-03-23T08:47:16Z</time>
      </trkpt>
      <trkpt lat="45.52167" lon="6.67059">
        <ele>1696.87</ele>
        <time>2016-03-23T08:47:20Z</time>
      </trkpt>
      <trkpt lat="45.52149" lon="6.67047">
        <ele>1706.03</ele>
        <time>2016-03-23T08:47:24Z</time>
      </trkpt>
      <trkpt lat="45.52132" lon="6.67035">
        <ele>1713.04</ele>
        <time>2016-03-23T08:47:28Z</time>
      </trkpt>
      <trkpt lat="45.52115" lon="6.67023">
        <ele>1721.03</ele>
        <time>2016-03-23T08:47:32Z</time>
      </trkpt>
      <trkpt lat="45.52096" lon="6.67009">
        <ele>1728.06</ele>
        <time>2016-03-23T08:47:37Z</time>
      </trkpt>
      <trkpt lat="45.52079" lon="6.66999">
        <ele>1734.24</ele>
        <time>2016-03-23T08:47:41Z</time>
      </trkpt>
      <trkpt lat="45.5206" lon="6.66989">
        <ele>1743.07</ele>
        <time>2016-03-23T08:47:46Z</time>
      </trkpt>
      <trkpt lat="45.52043" lon="6.66976">
        <ele>1747.28</ele>
        <time>2016-03-23T08:47:50Z</time>
      </trkpt>
      <trkpt lat="45.52026" lon="6.66968">
        <ele>1752.24</ele>
        <time>2016-03-23T08:47:54Z</time>
      </trkpt>
      <trkpt lat="45.52006" lon="6.66954">
        <ele>1759.08</ele>
        <time>2016-03-23T08:47:59Z</time>
      </trkpt>
      <trkpt lat="45.51987" lon="6.66942">
        <ele>1765.4</ele>
        <time>2016-03-23T08:48:04Z</time>
      </trkpt>
      <trkpt lat="45.51967" lon="6.6693">
        <ele>1773.04</ele>
        <time>2016-03-23T08:48:09Z</time>
      </trkpt>
      <trkpt lat="45.51949" lon="6.6692">
        <ele>1782.04</ele>
        <time>2016-03-23T08:48:14Z</time>
      </trkpt>
      <trkpt lat="45.51932" lon="6.66908">
        <ele>1790.96</ele>
        <time>2016-03-23T08:48:18Z</time>
      </trkpt>
      <trkpt lat="45.51914" lon="6.66897">
        <ele>1796.29</ele>
        <time>2016-03-23T08:48:23Z</time>
      </trkpt>
      <trkpt lat="45.51896" lon="6.66888">
        <ele>1800.12</ele>
        <time>2016-03-23T08:48:28Z</time>
      </trkpt>
      <trkpt lat="45.51876" lon="6.6688">
        <ele>1805.31</ele>
        <time>2016-03-23T08:48:33Z</time>
      </trkpt>
      <trkpt lat="45.51858" lon="6.66871">
        <ele>1806.5</ele>
        <time>2016-03-23T08:48:38Z</time>
      </trkpt>
      <trkpt lat="45.51838" lon="6.66857">
        <ele>1816.79</ele>
        <time>2016-03-23T08:48:43Z</time>
      </trkpt>
      <trkpt lat="45.51821" lon="6.66846">
        <ele>1825.8</ele>
        <time>2016-03-23T08:48:47Z</time>
      </trkpt>
      <trkpt lat="45.51804" lon="6.66836">
        <ele>1833.06</ele>
        <time>2016-03-23T08:48:51Z</time>
      </trkpt>
      <trkpt lat="45.51787" lon="6.66828">
        <ele>1835.16</ele>
        <time>2016-03-23T08:48:55Z</time>
      </trkpt>
      <trkpt lat="45.51769" lon="6.6682">
        <ele>1838.69</ele>
        <time>2016-03-23T08:48:59Z</time>
      </trkpt>
      <trkpt lat="45.51751" lon="6.66807">
        <ele>1844.07</ele>
        <time>2016-03-23T08:49:04Z</time>
      </trkpt>
      <trkpt lat="45.5173" lon="6.66796">
        <ele>1858.83</ele>
        <time>2016-03-23T08:49:10Z</time>
      </trkpt>
      <trkpt lat="45.51709" lon="6.66783">
        <ele>1871.84</ele>
        <time>2016-03-23T08:49:15Z</time>
      </trkpt>
      <trkpt lat="45.5169" lon="6.66771">
        <ele>1889.97</ele>
        <time>2016-03-23T08:49:21Z</time>
      </trkpt>
      <trkpt lat="45.51673" lon="6.66762">
        <ele>1903.04</ele>
        <time>2016-03-23T08:49:27Z</time>
      </trkpt>
      <trkpt lat="45.51655" lon="6.66752">
        <ele>1911.24</ele>
        <time>2016-03-23T08:49:32Z</time>
      </trkpt>
      <trkpt lat="45.51635" lon="6.6674">
        <ele>1920.04</ele>
        <time>2016-03-23T08:49:37Z</time>
      </trkpt>
      <trkpt lat="45.51616" lon="6.66727">
        <ele>1928.04</ele>
        <time>2016-03-23T08:49:42Z</time>
      </trkpt>
      <trkpt lat="45.51599" lon="6.66715">
        <ele>1935.03</ele>
        <time>2016-03-23T08:49:46Z</time>
      </trkpt>
      <trkpt lat="45.51583" lon="6.66705">
        <ele>1943.03</ele>
        <time>2016-03-23T08:49:50Z</time>
      </trkpt>
      <trkpt lat="45.51565" lon="6.66693">
        <ele>1951</ele>
        <time>2016-03-23T08:49:54Z</time>
      </trkpt>
      <trkpt lat="45.51548" lon="6.66682">
        <ele>1958.22</ele>
        <time>2016-03-23T08:49:58Z</time>
      </trkpt>
      <trkpt lat="45.5153" lon="6.66672">
        <ele>1966.76</ele>
        <time>2016-03-23T08:50:02Z</time>
      </trkpt>
      <trkpt lat="45.51511" lon="6.66659">
        <ele>1975.24</ele>
        <time>2016-03-23T08:50:07Z</time>
      </trkpt>
      <trkpt lat="45.5149" lon="6.66647">
        <ele>1986.99</ele>
        <time>2016-03-23T08:50:12Z</time>
      </trkpt>
      <trkpt lat="45.51472" lon="6.66634">
        <ele>1997.03</ele>
        <time>2016-03-23T08:50:17Z</time>
      </trkpt>
      <trkpt lat="45.51453" lon="6.66622">
        <ele>2006.07</ele>
        <time>2016-03-23T08:50:22Z</time>
      </trkpt>
      <trkpt lat="45.51435" lon="6.66616">
        <ele>2018.18</ele>
        <time>2016-03-23T08:50:28Z</time>
      </trkpt>
      <trkpt lat="45.51416" lon="6.66604">
        <ele>2022.13</ele>
        <time>2016-03-23T08:50:33Z</time>
      </trkpt>
      <trkpt lat="45.51398" lon="6.66596">
        <ele>2028.31</ele>
        <time>2016-03-23T08:50:38Z</time>
      </trkpt>
      <trkpt lat="45.51378" lon="6.66584">
        <ele>2032.11</ele>
        <time>2016-03-23T08:50:43Z</time>
      </trkpt>
      <trkpt lat="45.51362" lon="6.66571">
        <ele>2041.05</ele>
        <time>2016-03-23T08:50:50Z</time>
      </trkpt>
      <trkpt lat="45.51345" lon="6.66559">
        <ele>2049.28</ele>
        <time>2016-03-23T08:50:58Z</time>
      </trkpt>
      <trkpt lat="45.51328" lon="6.66549">
        <ele>2058.28</ele>
        <time>2016-03-23T08:51:06Z</time>
      </trkpt>
      <trkpt lat="45.51311" lon="6.66539">
        <ele>2066.32</ele>
        <time>2016-03-23T08:51:14Z</time>
      </trkpt>
      <trkpt lat="45.51294" lon="6.66529">
        <ele>2074.28</ele>
        <time>2016-03-23T08:51:22Z</time>
      </trkpt>
      <trkpt lat="45.51277" lon="6.66516">
        <ele>2082.28</ele>
        <time>2016-03-23T08:51:31Z</time>
      </trkpt>
      <trkpt lat="45.5126" lon="6.66505">
        <ele>2088.52</ele>
        <time>2016-03-23T08:51:39Z</time>
      </trkpt>
      <trkpt lat="45.5124" lon="6.66493">
        <ele>2091.52</ele>
        <time>2016-03-23T08:51:45Z</time>
      </trkpt>
      <trkpt lat="45.5122" lon="6.66481">
        <ele>2094.49</ele>
        <time>2016-03-23T08:51:50Z</time>
      </trkpt>
      <trkpt lat="45.512" lon="6.66469">
        <ele>2098.48</ele>
        <time>2016-03-23T08:51:55Z</time>
      </trkpt>
      <trkpt lat="45.51179" lon="6.66457">
        <ele>2103.28</ele>
        <time>2016-03-23T08:52:00Z</time>
      </trkpt>
      <trkpt lat="45.51163" lon="6.66446">
        <ele>2107.28</ele>
        <time>2016-03-23T08:52:04Z</time>
      </trkpt>
      <trkpt lat="45.51142" lon="6.66434">
        <ele>2111.48</ele>
        <time>2016-03-23T08:52:09Z</time>
      </trkpt>
      <trkpt lat="45.51124" lon="6.66421">
        <ele>2116.48</ele>
        <time>2016-03-23T08:52:14Z</time>
      </trkpt>
      <trkpt lat="45.51105" lon="6.66409">
        <ele>2116.34</ele>
        <time>2016-03-23T08:52:19Z</time>
      </trkpt>
      <trkpt lat="45.51086" lon="6.66404">
        <ele>2115.54</ele>
        <time>2016-03-23T08:52:27Z</time>
      </trkpt>
      <trkpt lat="45.51074" lon="6.66423">
        <ele>2119.48</ele>
        <time>2016-03-23T08:53:31Z</time>
      </trkpt>
      <trkpt lat="45.51066" lon="6.66448">
        <ele>2121.69</ele>
        <time>2016-03-23T08:53:44Z</time>
      </trkpt>
      <trkpt lat="45.5105" lon="6.66469">
        <ele>2118.75</ele>
        <time>2016-03-23T08:53:50Z</time>
      </trkpt>
      <trkpt lat="45.51033" lon="6.66495">
        <ele>2117.53</ele>
        <time>2016-03-23T08:53:55Z</time>
      </trkpt>
      <trkpt lat="45.51019" lon="6.66516">
        <ele>2115.56</ele>
        <time>2016-03-23T08:54:01Z</time>
      </trkpt>
      <trkpt lat="45.51007" lon="6.66537">
        <ele>2114.37</ele>
        <time>2016-03-23T08:54:08Z</time>
      </trkpt>
      <trkpt lat="45.50995" lon="6.66559">
        <ele>2112.57</ele>
        <time>2016-03-23T08:54:14Z</time>
      </trkpt>
      <trkpt lat="45.50979" lon="6.66581">
        <ele>2110.74</ele>
        <time>2016-03-23T08:54:19Z</time>
      </trkpt>
      <trkpt lat="45.50965" lon="6.66604">
        <ele>2108.58</ele>
        <time>2016-03-23T08:54:22Z</time>
      </trkpt>
      <trkpt lat="45.50945" lon="6.66627">
        <ele>2104.79</ele>
        <time>2016-03-23T08:54:25Z</time>
      </trkpt>
      <trkpt lat="45.50926" lon="6.66646">
        <ele>2101.78</ele>
        <time>2016-03-23T08:54:28Z</time>
      </trkpt>
      <trkpt lat="45.50912" lon="6.66674">
        <ele>2100.54</ele>
        <time>2016-03-23T08:54:31Z</time>
      </trkpt>
      <trkpt lat="45.50901" lon="6.667">
        <ele>2095.8</ele>
        <time>2016-03-23T08:54:34Z</time>
      </trkpt>
      <trkpt lat="45.5089" lon="6.66729">
        <ele>2090.19</ele>
        <time>2016-03-23T08:54:37Z</time>
      </trkpt>
      <trkpt lat="45.50878" lon="6.66758">
        <ele>2088.54</ele>
        <time>2016-03-23T08:54:40Z</time>
      </trkpt>
      <trkpt lat="45.50874" lon="6.66787">
        <ele>2086.58</ele>
        <time>2016-03-23T08:54:43Z</time>
      </trkpt>
      <trkpt lat="45.50869" lon="6.66812">
        <ele>2084.74</ele>
        <time>2016-03-23T08:54:46Z</time>
      </trkpt>
      <trkpt lat="45.50854" lon="6.66828">
        <ele>2082.58</ele>
        <time>2016-03-23T08:54:49Z</time>
      </trkpt>
      <trkpt lat="45.50836" lon="6.66836">
        <ele>2080.58</ele>
        <time>2016-03-23T08:54:52Z</time>
      </trkpt>
      <trkpt lat="45.50817" lon="6.66853">
        <ele>2078.77</ele>
        <time>2016-03-23T08:54:55Z</time>
      </trkpt>
      <trkpt lat="45.50798" lon="6.66874">
        <ele>2076.74</ele>
        <time>2016-03-23T08:54:58Z</time>
      </trkpt>
      <trkpt lat="45.50783" lon="6.66895">
        <ele>2074.77</ele>
        <time>2016-03-23T08:55:01Z</time>
      </trkpt>
      <trkpt lat="45.50765" lon="6.66924">
        <ele>2071.81</ele>
        <time>2016-03-23T08:55:04Z</time>
      </trkpt>
      <trkpt lat="45.50748" lon="6.66946">
        <ele>2068.78</ele>
        <time>2016-03-23T08:55:07Z</time>
      </trkpt>
      <trkpt lat="45.50726" lon="6.6696">
        <ele>2062.69</ele>
        <time>2016-03-23T08:55:11Z</time>
      </trkpt>
      <trkpt lat="45.50701" lon="6.6696">
        <ele>2060.58</ele>
        <time>2016-03-23T08:55:15Z</time>
      </trkpt>
      <trkpt lat="45.50678" lon="6.66964">
        <ele>2056.85</ele>
        <time>2016-03-23T08:55:18Z</time>
      </trkpt>
      <trkpt lat="45.50656" lon="6.66968">
        <ele>2053.91</ele>
        <time>2016-03-23T08:55:21Z</time>
      </trkpt>
      <trkpt lat="45.5064" lon="6.66982">
        <ele>2050.94</ele>
        <time>2016-03-23T08:55:24Z</time>
      </trkpt>
      <trkpt lat="45.50623" lon="6.66993">
        <ele>2049.73</ele>
        <time>2016-03-23T08:55:27Z</time>
      </trkpt>
      <trkpt lat="45.50604" lon="6.66998">
        <ele>2046.75</ele>
        <time>2016-03-23T08:55:30Z</time>
      </trkpt>
      <trkpt lat="45.50581" lon="6.67003">
        <ele>2045.53</ele>
        <time>2016-03-23T08:55:34Z</time>
      </trkpt>
      <trkpt lat="45.50564" lon="6.67019">
        <ele>2042.17</ele>
        <time>2016-03-23T08:55:37Z</time>
      </trkpt>
      <trkpt lat="45.50563" lon="6.67052">
        <ele>2039.23</ele>
        <time>2016-03-23T08:55:40Z</time>
      </trkpt>
      <trkpt lat="45.50565" lon="6.67084">
        <ele>2036.9</ele>
        <time>2016-03-23T08:55:43Z</time>
      </trkpt>
      <trkpt lat="45.50559" lon="6.67111">
        <ele>2026.31</ele>
        <time>2016-03-23T08:55:48Z</time>
      </trkpt>
      <trkpt lat="45.5055" lon="6.67133">
        <ele>2022.15</ele>
        <time>2016-03-23T08:55:51Z</time>
      </trkpt>
      <trkpt lat="45.50534" lon="6.67162">
        <ele>2015.99</ele>
        <time>2016-03-23T08:55:55Z</time>
      </trkpt>
      <trkpt lat="45.50522" lon="6.67183">
        <ele>2012.78</ele>
        <time>2016-03-23T08:55:58Z</time>
      </trkpt>
      <trkpt lat="45.50508" lon="6.67212">
        <ele>2008.59</ele>
        <time>2016-03-23T08:56:02Z</time>
      </trkpt>
      <trkpt lat="45.50501" lon="6.67244">
        <ele>2003.82</ele>
        <time>2016-03-23T08:56:06Z</time>
      </trkpt>
      <trkpt lat="45.50494" lon="6.67271">
        <ele>1999.79</ele>
        <time>2016-03-23T08:56:09Z</time>
      </trkpt>
      <trkpt lat="45.5049" lon="6.6731">
        <ele>1996.78</ele>
        <time>2016-03-23T08:56:12Z</time>
      </trkpt>
      <trkpt lat="45.50485" lon="6.67343">
        <ele>1996.54</ele>
        <time>2016-03-23T08:56:14Z</time>
      </trkpt>
      <trkpt lat="45.50477" lon="6.67379">
        <ele>1993.97</ele>
        <time>2016-03-23T08:56:17Z</time>
      </trkpt>
      <trkpt lat="45.50473" lon="6.67413">
        <ele>1992.73</ele>
        <time>2016-03-23T08:56:20Z</time>
      </trkpt>
      <trkpt lat="45.50471" lon="6.67446">
        <ele>1993.36</ele>
        <time>2016-03-23T08:56:23Z</time>
      </trkpt>
      <trkpt lat="45.50482" lon="6.67474">
        <ele>1993.3</ele>
        <time>2016-03-23T08:56:27Z</time>
      </trkpt>
      <trkpt lat="45.50488" lon="6.675">
        <ele>1991.73</ele>
        <time>2016-03-23T08:56:31Z</time>
      </trkpt>
      <trkpt lat="45.50492" lon="6.67527">
        <ele>1991.3</ele>
        <time>2016-03-23T08:56:35Z</time>
      </trkpt>
      <trkpt lat="45.50496" lon="6.67552">
        <ele>1993.69</ele>
        <time>2016-03-23T08:56:41Z</time>
      </trkpt>
      <trkpt lat="45.50503" lon="6.67577">
        <ele>1995.53</ele>
        <time>2016-03-23T08:56:47Z</time>
      </trkpt>
      <trkpt lat="45.50503" lon="6.67605">
        <ele>1997.69</ele>
        <time>2016-03-23T08:56:53Z</time>
      </trkpt>
      <trkpt lat="45.50508" lon="6.67631">
        <ele>1995.56</ele>
        <time>2016-03-23T08:57:00Z</time>
      </trkpt>
      <trkpt lat="45.50518" lon="6.67654">
        <ele>1994.54</ele>
        <time>2016-03-23T08:57:07Z</time>
      </trkpt>
      <trkpt lat="45.50528" lon="6.67677">
        <ele>1994.49</ele>
        <time>2016-03-23T08:57:14Z</time>
      </trkpt>
      <trkpt lat="45.50532" lon="6.67703">
        <ele>1996.57</ele>
        <time>2016-03-23T08:57:26Z</time>
      </trkpt>
      <trkpt lat="45.50542" lon="6.67727">
        <ele>1993.52</ele>
        <time>2016-03-23T08:57:40Z</time>
      </trkpt>
      <trkpt lat="45.5052" lon="6.67738">
        <ele>2004.41</ele>
        <time>2016-03-23T09:01:03Z</time>
      </trkpt>
      <trkpt lat="45.50493" lon="6.67741">
        <ele>1999.09</ele>
        <time>2016-03-23T09:01:05Z</time>
      </trkpt>
      <trkpt lat="45.50471" lon="6.67748">
        <ele>1994.5</ele>
        <time>2016-03-23T09:01:08Z</time>
      </trkpt>
      <trkpt lat="45.50448" lon="6.67756">
        <ele>2003</ele>
        <time>2016-03-23T09:01:12Z</time>
      </trkpt>
      <trkpt lat="45.50429" lon="6.67771">
        <ele>2010.79</ele>
        <time>2016-03-23T09:01:17Z</time>
      </trkpt>
      <trkpt lat="45.5041" lon="6.67781">
        <ele>2011.33</ele>
        <time>2016-03-23T09:01:21Z</time>
      </trkpt>
      <trkpt lat="45.5039" lon="6.6779">
        <ele>2015.08</ele>
        <time>2016-03-23T09:01:25Z</time>
      </trkpt>
      <trkpt lat="45.50369" lon="6.678">
        <ele>2015.72</ele>
        <time>2016-03-23T09:01:29Z</time>
      </trkpt>
      <trkpt lat="45.50352" lon="6.67812">
        <ele>2027.74</ele>
        <time>2016-03-23T09:01:33Z</time>
      </trkpt>
      <trkpt lat="45.50331" lon="6.6782">
        <ele>2035.23</ele>
        <time>2016-03-23T09:01:37Z</time>
      </trkpt>
      <trkpt lat="45.50312" lon="6.67832">
        <ele>2042.24</ele>
        <time>2016-03-23T09:01:41Z</time>
      </trkpt>
      <trkpt lat="45.5029" lon="6.67845">
        <ele>2045.33</ele>
        <time>2016-03-23T09:01:45Z</time>
      </trkpt>
      <trkpt lat="45.5027" lon="6.67856">
        <ele>2051.08</ele>
        <time>2016-03-23T09:01:49Z</time>
      </trkpt>
      <trkpt lat="45.5025" lon="6.67867">
        <ele>2058.07</ele>
        <time>2016-03-23T09:01:53Z</time>
      </trkpt>
      <trkpt lat="45.5023" lon="6.67877">
        <ele>2063.08</ele>
        <time>2016-03-23T09:01:57Z</time>
      </trkpt>
      <trkpt lat="45.50211" lon="6.67886">
        <ele>2070.2</ele>
        <time>2016-03-23T09:02:01Z</time>
      </trkpt>
      <trkpt lat="45.50192" lon="6.67896">
        <ele>2075.29</ele>
        <time>2016-03-23T09:02:05Z</time>
      </trkpt>
      <trkpt lat="45.50172" lon="6.67908">
        <ele>2082.04</ele>
        <time>2016-03-23T09:02:09Z</time>
      </trkpt>
      <trkpt lat="45.50151" lon="6.67916">
        <ele>2091.02</ele>
        <time>2016-03-23T09:02:13Z</time>
      </trkpt>
      <trkpt lat="45.50133" lon="6.67927">
        <ele>2096.27</ele>
        <time>2016-03-23T09:02:17Z</time>
      </trkpt>
      <trkpt lat="45.50114" lon="6.67936">
        <ele>2105.03</ele>
        <time>2016-03-23T09:02:21Z</time>
      </trkpt>
      <trkpt lat="45.50093" lon="6.67945">
        <ele>2110.18</ele>
        <time>2016-03-23T09:02:25Z</time>
      </trkpt>
      <trkpt lat="45.50073" lon="6.67955">
        <ele>2113.44</ele>
        <time>2016-03-23T09:02:29Z</time>
      </trkpt>
      <trkpt lat="45.50054" lon="6.67966">
        <ele>2118.23</ele>
        <time>2016-03-23T09:02:33Z</time>
      </trkpt>
      <trkpt lat="45.50034" lon="6.67976">
        <ele>2124.04</ele>
        <time>2016-03-23T09:02:37Z</time>
      </trkpt>
      <trkpt lat="45.50015" lon="6.67986">
        <ele>2128.28</ele>
        <time>2016-03-23T09:02:41Z</time>
      </trkpt>
      <trkpt lat="45.49994" lon="6.67996">
        <ele>2134.23</ele>
        <time>2016-03-23T09:02:45Z</time>
      </trkpt>
      <trkpt lat="45.49976" lon="6.68007">
        <ele>2139.08</ele>
        <time>2016-03-23T09:02:49Z</time>
      </trkpt>
      <trkpt lat="45.49957" lon="6.68016">
        <ele>2144.09</ele>
        <time>2016-03-23T09:02:53Z</time>
      </trkpt>
      <trkpt lat="45.49938" lon="6.68023">
        <ele>2146.32</ele>
        <time>2016-03-23T09:02:57Z</time>
      </trkpt>
      <trkpt lat="45.49917" lon="6.68034">
        <ele>2154.67</ele>
        <time>2016-03-23T09:03:01Z</time>
      </trkpt>
      <trkpt lat="45.49897" lon="6.68044">
        <ele>2164.98</ele>
        <time>2016-03-23T09:03:05Z</time>
      </trkpt>
      <trkpt lat="45.49878" lon="6.68055">
        <ele>2172.39</ele>
        <time>2016-03-23T09:03:09Z</time>
      </trkpt>
      <trkpt lat="45.4986" lon="6.68065">
        <ele>2178.43</ele>
        <time>2016-03-23T09:03:13Z</time>
      </trkpt>
      <trkpt lat="45.49839" lon="6.68071">
        <ele>2186.75</ele>
        <time>2016-03-23T09:03:17Z</time>
      </trkpt>
      <trkpt lat="45.49823" lon="6.68082">
        <ele>2194.99</ele>
        <time>2016-03-23T09:03:21Z</time>
      </trkpt>
      <trkpt lat="45.49804" lon="6.68092">
        <ele>2204.83</ele>
        <time>2016-03-23T09:03:25Z</time>
      </trkpt>
      <trkpt lat="45.49784" lon="6.68101">
        <ele>2209.24</ele>
        <time>2016-03-23T09:03:29Z</time>
      </trkpt>
      <trkpt lat="45.49767" lon="6.68111">
        <ele>2213.24</ele>
        <time>2016-03-23T09:03:33Z</time>
      </trkpt>
      <trkpt lat="45.49748" lon="6.68122">
        <ele>2219.23</ele>
        <time>2016-03-23T09:03:37Z</time>
      </trkpt>
      <trkpt lat="45.49729" lon="6.68132">
        <ele>2226.22</ele>
        <time>2016-03-23T09:03:41Z</time>
      </trkpt>
      <trkpt lat="45.49709" lon="6.68143">
        <ele>2232.84</ele>
        <time>2016-03-23T09:03:45Z</time>
      </trkpt>
      <trkpt lat="45.49691" lon="6.68154">
        <ele>2241.19</ele>
        <time>2016-03-23T09:03:49Z</time>
      </trkpt>
      <trkpt lat="45.49671" lon="6.68164">
        <ele>2249.03</ele>
        <time>2016-03-23T09:03:53Z</time>
      </trkpt>
      <trkpt lat="45.49652" lon="6.68174">
        <ele>2257.8</ele>
        <time>2016-03-23T09:03:57Z</time>
      </trkpt>
      <trkpt lat="45.49633" lon="6.68183">
        <ele>2264.43</ele>
        <time>2016-03-23T09:04:01Z</time>
      </trkpt>
      <trkpt lat="45.49613" lon="6.68192">
        <ele>2272.04</ele>
        <time>2016-03-23T09:04:05Z</time>
      </trkpt>
      <trkpt lat="45.49596" lon="6.68201">
        <ele>2279.87</ele>
        <time>2016-03-23T09:04:09Z</time>
      </trkpt>
      <trkpt lat="45.49575" lon="6.6821">
        <ele>2289.03</ele>
        <time>2016-03-23T09:04:13Z</time>
      </trkpt>
      <trkpt lat="45.49555" lon="6.68226">
        <ele>2303.58</ele>
        <time>2016-03-23T09:04:18Z</time>
      </trkpt>
      <trkpt lat="45.49536" lon="6.68234">
        <ele>2311.87</ele>
        <time>2016-03-23T09:04:22Z</time>
      </trkpt>
      <trkpt lat="45.49518" lon="6.68244">
        <ele>2320.03</ele>
        <time>2016-03-23T09:04:26Z</time>
      </trkpt>
      <trkpt lat="45.49498" lon="6.68253">
        <ele>2328.04</ele>
        <time>2016-03-23T09:04:30Z</time>
      </trkpt>
      <trkpt lat="45.49479" lon="6.68263">
        <ele>2337.94</ele>
        <time>2016-03-23T09:04:34Z</time>
      </trkpt>
      <trkpt lat="45.4946" lon="6.68272">
        <ele>2348.62</ele>
        <time>2016-03-23T09:04:38Z</time>
      </trkpt>
      <trkpt lat="45.49442" lon="6.68281">
        <ele>2361.77</ele>
        <time>2016-03-23T09:04:42Z</time>
      </trkpt>
      <trkpt lat="45.49423" lon="6.6829">
        <ele>2370.83</ele>
        <time>2016-03-23T09:04:46Z</time>
      </trkpt>
      <trkpt lat="45.49402" lon="6.68301">
        <ele>2382.19</ele>
        <time>2016-03-23T09:04:51Z</time>
      </trkpt>
      <trkpt lat="45.49381" lon="6.6831">
        <ele>2393.78</ele>
        <time>2016-03-23T09:04:55Z</time>
      </trkpt>
      <trkpt lat="45.49359" lon="6.6832">
        <ele>2406.77</ele>
        <time>2016-03-23T09:04:59Z</time>
      </trkpt>
      <trkpt lat="45.4934" lon="6.68327">
        <ele>2416.55</ele>
        <time>2016-03-23T09:05:03Z</time>
      </trkpt>
      <trkpt lat="45.49322" lon="6.68334">
        <ele>2422.72</ele>
        <time>2016-03-23T09:05:07Z</time>
      </trkpt>
      <trkpt lat="45.49304" lon="6.68347">
        <ele>2440.78</ele>
        <time>2016-03-23T09:05:12Z</time>
      </trkpt>
      <trkpt lat="45.49287" lon="6.68362">
        <ele>2454.85</ele>
        <time>2016-03-23T09:05:17Z</time>
      </trkpt>
      <trkpt lat="45.4927" lon="6.68372">
        <ele>2462.2</ele>
        <time>2016-03-23T09:05:21Z</time>
      </trkpt>
      <trkpt lat="45.49252" lon="6.6838">
        <ele>2467.43</ele>
        <time>2016-03-23T09:05:25Z</time>
      </trkpt>
      <trkpt lat="45.49235" lon="6.68393">
        <ele>2474.84</ele>
        <time>2016-03-23T09:05:29Z</time>
      </trkpt>
      <trkpt lat="45.49215" lon="6.684">
        <ele>2483.06</ele>
        <time>2016-03-23T09:05:33Z</time>
      </trkpt>
      <trkpt lat="45.49195" lon="6.6841">
        <ele>2489.23</ele>
        <time>2016-03-23T09:05:37Z</time>
      </trkpt>
      <trkpt lat="45.49176" lon="6.68418">
        <ele>2491.56</ele>
        <time>2016-03-23T09:05:42Z</time>
      </trkpt>
      <trkpt lat="45.4916" lon="6.6843">
        <ele>2494.32</ele>
        <time>2016-03-23T09:06:26Z</time>
      </trkpt>
      <trkpt lat="45.49143" lon="6.68421">
        <ele>2495.7</ele>
        <time>2016-03-23T09:07:29Z</time>
      </trkpt>
      <trkpt lat="45.49131" lon="6.68401">
        <ele>2502.52</ele>
        <time>2016-03-23T09:13:34Z</time>
      </trkpt>
      <trkpt lat="45.49122" lon="6.68375">
        <ele>2500.73</ele>
        <time>2016-03-23T09:13:46Z</time>
      </trkpt>
      <trkpt lat="45.49116" lon="6.68348">
        <ele>2493.79</ele>
        <time>2016-03-23T09:13:54Z</time>
      </trkpt>
      <trkpt lat="45.49112" lon="6.68317">
        <ele>2487.79</ele>
        <time>2016-03-23T09:13:59Z</time>
      </trkpt>
      <trkpt lat="45.49109" lon="6.68291">
        <ele>2480.86</ele>
        <time>2016-03-23T09:14:03Z</time>
      </trkpt>
      <trkpt lat="45.49105" lon="6.68265">
        <ele>2478.77</ele>
        <time>2016-03-23T09:14:06Z</time>
      </trkpt>
      <trkpt lat="45.491" lon="6.6824">
        <ele>2476.58</ele>
        <time>2016-03-23T09:14:09Z</time>
      </trkpt>
      <trkpt lat="45.49093" lon="6.68216">
        <ele>2472.82</ele>
        <time>2016-03-23T09:14:13Z</time>
      </trkpt>
      <trkpt lat="45.49092" lon="6.68186">
        <ele>2468.98</ele>
        <time>2016-03-23T09:14:17Z</time>
      </trkpt>
      <trkpt lat="45.49085" lon="6.68158">
        <ele>2464.78</ele>
        <time>2016-03-23T09:14:21Z</time>
      </trkpt>
      <trkpt lat="45.49066" lon="6.68141">
        <ele>2444.23</ele>
        <time>2016-03-23T09:14:28Z</time>
      </trkpt>
      <trkpt lat="45.49066" lon="6.68113">
        <ele>2436.99</ele>
        <time>2016-03-23T09:14:32Z</time>
      </trkpt>
      <trkpt lat="45.4906" lon="6.68085">
        <ele>2424.78</ele>
        <time>2016-03-23T09:14:39Z</time>
      </trkpt>
      <trkpt lat="45.49048" lon="6.68058">
        <ele>2413.19</ele>
        <time>2016-03-23T09:14:48Z</time>
      </trkpt>
      <trkpt lat="45.49035" lon="6.6804">
        <ele>2406.57</ele>
        <time>2016-03-23T09:14:56Z</time>
      </trkpt>
      <trkpt lat="45.49055" lon="6.68029">
        <ele>2404.76</ele>
        <time>2016-03-23T09:15:53Z</time>
      </trkpt>
      <trkpt lat="45.49069" lon="6.68012">
        <ele>2402.58</ele>
        <time>2016-03-23T09:15:57Z</time>
      </trkpt>
      <trkpt lat="45.49083" lon="6.67991">
        <ele>2390.75</ele>
        <time>2016-03-23T09:16:04Z</time>
      </trkpt>
      <trkpt lat="45.49099" lon="6.67974">
        <ele>2386.74</ele>
        <time>2016-03-23T09:16:08Z</time>
      </trkpt>
      <trkpt lat="45.49118" lon="6.67964">
        <ele>2376.87</ele>
        <time>2016-03-23T09:16:14Z</time>
      </trkpt>
      <trkpt lat="45.49138" lon="6.67955">
        <ele>2371.15</ele>
        <time>2016-03-23T09:16:18Z</time>
      </trkpt>
      <trkpt lat="45.49158" lon="6.67952">
        <ele>2362</ele>
        <time>2016-03-23T09:16:23Z</time>
      </trkpt>
      <trkpt lat="45.49175" lon="6.67947">
        <ele>2358.97</ele>
        <time>2016-03-23T09:16:26Z</time>
      </trkpt>
      <trkpt lat="45.49198" lon="6.67938">
        <ele>2357.93</ele>
        <time>2016-03-23T09:16:29Z</time>
      </trkpt>
      <trkpt lat="45.49218" lon="6.6794">
        <ele>2352.66</ele>
        <time>2016-03-23T09:16:33Z</time>
      </trkpt>
      <trkpt lat="45.49238" lon="6.67938">
        <ele>2344.65</ele>
        <time>2016-03-23T09:16:38Z</time>
      </trkpt>
      <trkpt lat="45.49257" lon="6.67938">
        <ele>2344.56</ele>
        <time>2016-03-23T09:16:41Z</time>
      </trkpt>
      <trkpt lat="45.49278" lon="6.67929">
        <ele>2334.92</ele>
        <time>2016-03-23T09:16:45Z</time>
      </trkpt>
      <trkpt lat="45.49297" lon="6.67936">
        <ele>2330.63</ele>
        <time>2016-03-23T09:16:48Z</time>
      </trkpt>
      <trkpt lat="45.49317" lon="6.67929">
        <ele>2325.97</ele>
        <time>2016-03-23T09:16:52Z</time>
      </trkpt>
      <trkpt lat="45.49329" lon="6.67906">
        <ele>2315.69</ele>
        <time>2016-03-23T09:17:16Z</time>
      </trkpt>
      <trkpt lat="45.49347" lon="6.67887">
        <ele>2310.74</ele>
        <time>2016-03-23T09:17:21Z</time>
      </trkpt>
      <trkpt lat="45.49361" lon="6.67863">
        <ele>2304.64</ele>
        <time>2016-03-23T09:17:25Z</time>
      </trkpt>
      <trkpt lat="45.49383" lon="6.67847">
        <ele>2299.98</ele>
        <time>2016-03-23T09:17:29Z</time>
      </trkpt>
      <trkpt lat="45.49398" lon="6.67825">
        <ele>2294.83</ele>
        <time>2016-03-23T09:17:33Z</time>
      </trkpt>
      <trkpt lat="45.49414" lon="6.67809">
        <ele>2292.74</ele>
        <time>2016-03-23T09:17:36Z</time>
      </trkpt>
      <trkpt lat="45.49432" lon="6.67791">
        <ele>2288.85</ele>
        <time>2016-03-23T09:17:39Z</time>
      </trkpt>
      <trkpt lat="45.49455" lon="6.67774">
        <ele>2283.19</ele>
        <time>2016-03-23T09:17:42Z</time>
      </trkpt>
      <trkpt lat="45.49464" lon="6.67752">
        <ele>2280.39</ele>
        <time>2016-03-23T09:17:45Z</time>
      </trkpt>
      <trkpt lat="45.4948" lon="6.67741">
        <ele>2277.33</ele>
        <time>2016-03-23T09:17:47Z</time>
      </trkpt>
      <trkpt lat="45.495" lon="6.67721">
        <ele>2274.75</ele>
        <time>2016-03-23T09:17:50Z</time>
      </trkpt>
      <trkpt lat="45.49518" lon="6.67712">
        <ele>2272.78</ele>
        <time>2016-03-23T09:17:52Z</time>
      </trkpt>
      <trkpt lat="45.49546" lon="6.67706">
        <ele>2270.77</ele>
        <time>2016-03-23T09:17:55Z</time>
      </trkpt>
      <trkpt lat="45.49566" lon="6.67702">
        <ele>2268.94</ele>
        <time>2016-03-23T09:17:57Z</time>
      </trkpt>
      <trkpt lat="45.49588" lon="6.67711">
        <ele>2266.79</ele>
        <time>2016-03-23T09:17:59Z</time>
      </trkpt>
      <trkpt lat="45.49612" lon="6.67709">
        <ele>2261.99</ele>
        <time>2016-03-23T09:18:02Z</time>
      </trkpt>
      <trkpt lat="45.49637" lon="6.67701">
        <ele>2258.78</ele>
        <time>2016-03-23T09:18:05Z</time>
      </trkpt>
      <trkpt lat="45.49663" lon="6.67703">
        <ele>2252.9</ele>
        <time>2016-03-23T09:18:08Z</time>
      </trkpt>
      <trkpt lat="45.49682" lon="6.67697">
        <ele>2251.43</ele>
        <time>2016-03-23T09:18:10Z</time>
      </trkpt>
      <trkpt lat="45.49702" lon="6.67679">
        <ele>2239.84</ele>
        <time>2016-03-23T09:18:14Z</time>
      </trkpt>
      <trkpt lat="45.49725" lon="6.6766">
        <ele>2235.22</ele>
        <time>2016-03-23T09:18:16Z</time>
      </trkpt>
      <trkpt lat="45.49731" lon="6.67623">
        <ele>2225.26</ele>
        <time>2016-03-23T09:18:19Z</time>
      </trkpt>
      <trkpt lat="45.49752" lon="6.67603">
        <ele>2219.83</ele>
        <time>2016-03-23T09:18:22Z</time>
      </trkpt>
      <trkpt lat="45.49769" lon="6.67588">
        <ele>2214.9</ele>
        <time>2016-03-23T09:18:24Z</time>
      </trkpt>
      <trkpt lat="45.49789" lon="6.67573">
        <ele>2211.83</ele>
        <time>2016-03-23T09:18:26Z</time>
      </trkpt>
      <trkpt lat="45.49808" lon="6.67564">
        <ele>2210.74</ele>
        <time>2016-03-23T09:18:28Z</time>
      </trkpt>
      <trkpt lat="45.49828" lon="6.67555">
        <ele>2209.58</ele>
        <time>2016-03-23T09:18:30Z</time>
      </trkpt>
      <trkpt lat="45.49845" lon="6.67569">
        <ele>2202.78</ele>
        <time>2016-03-23T09:18:36Z</time>
      </trkpt>
      <trkpt lat="45.49859" lon="6.67549">
        <ele>2182.58</ele>
        <time>2016-03-23T09:19:49Z</time>
      </trkpt>
      <trkpt lat="45.49878" lon="6.67533">
        <ele>2179.78</ele>
        <time>2016-03-23T09:19:52Z</time>
      </trkpt>
      <trkpt lat="45.499" lon="6.6752">
        <ele>2178.89</ele>
        <time>2016-03-23T09:19:55Z</time>
      </trkpt>
      <trkpt lat="45.49922" lon="6.675">
        <ele>2174.6</ele>
        <time>2016-03-23T09:19:58Z</time>
      </trkpt>
      <trkpt lat="45.49939" lon="6.67487">
        <ele>2171.78</ele>
        <time>2016-03-23T09:20:01Z</time>
      </trkpt>
      <trkpt lat="45.49963" lon="6.67494">
        <ele>2167.05</ele>
        <time>2016-03-23T09:20:04Z</time>
      </trkpt>
      <trkpt lat="45.49982" lon="6.67497">
        <ele>2162.71</ele>
        <time>2016-03-23T09:20:06Z</time>
      </trkpt>
      <trkpt lat="45.50002" lon="6.67478">
        <ele>2154.87</ele>
        <time>2016-03-23T09:20:10Z</time>
      </trkpt>
      <trkpt lat="45.50018" lon="6.6746">
        <ele>2147.86</ele>
        <time>2016-03-23T09:20:14Z</time>
      </trkpt>
      <trkpt lat="45.50036" lon="6.67446">
        <ele>2143.02</ele>
        <time>2016-03-23T09:20:17Z</time>
      </trkpt>
      <trkpt lat="45.50058" lon="6.67439">
        <ele>2137.83</ele>
        <time>2016-03-23T09:20:20Z</time>
      </trkpt>
      <trkpt lat="45.50083" lon="6.67436">
        <ele>2132.8</ele>
        <time>2016-03-23T09:20:23Z</time>
      </trkpt>
      <trkpt lat="45.5011" lon="6.67443">
        <ele>2124.44</ele>
        <time>2016-03-23T09:20:26Z</time>
      </trkpt>
      <trkpt lat="45.50136" lon="6.67452">
        <ele>2117.04</ele>
        <time>2016-03-23T09:20:29Z</time>
      </trkpt>
      <trkpt lat="45.50156" lon="6.67459">
        <ele>2114.15</ele>
        <time>2016-03-23T09:20:31Z</time>
      </trkpt>
      <trkpt lat="45.50176" lon="6.67463">
        <ele>2111</ele>
        <time>2016-03-23T09:20:33Z</time>
      </trkpt>
      <trkpt lat="45.50194" lon="6.67474">
        <ele>2106.07</ele>
        <time>2016-03-23T09:20:35Z</time>
      </trkpt>
      <trkpt lat="45.50217" lon="6.67475">
        <ele>2102.19</ele>
        <time>2016-03-23T09:20:37Z</time>
      </trkpt>
      <trkpt lat="45.50236" lon="6.67478">
        <ele>2097.24</ele>
        <time>2016-03-23T09:20:39Z</time>
      </trkpt>
      <trkpt lat="45.50255" lon="6.67474">
        <ele>2089.52</ele>
        <time>2016-03-23T09:20:41Z</time>
      </trkpt>
      <trkpt lat="45.5028" lon="6.67478">
        <ele>2085.21</ele>
        <time>2016-03-23T09:20:43Z</time>
      </trkpt>
      <trkpt lat="45.50298" lon="6.67479">
        <ele>2076.56</ele>
        <time>2016-03-23T09:20:45Z</time>
      </trkpt>
      <trkpt lat="45.50315" lon="6.67463">
        <ele>2070.13</ele>
        <time>2016-03-23T09:20:47Z</time>
      </trkpt>
      <trkpt lat="45.50341" lon="6.67462">
        <ele>2059.33</ele>
        <time>2016-03-23T09:20:50Z</time>
      </trkpt>
      <trkpt lat="45.5037" lon="6.67457">
        <ele>2053.99</ele>
        <time>2016-03-23T09:20:53Z</time>
      </trkpt>
      <trkpt lat="45.50388" lon="6.67458">
        <ele>2042.56</ele>
        <time>2016-03-23T09:20:56Z</time>
      </trkpt>
      <trkpt lat="45.50409" lon="6.67445">
        <ele>2036.8</ele>
        <time>2016-03-23T09:20:59Z</time>
      </trkpt>
      <trkpt lat="45.50428" lon="6.67467">
        <ele>2031.98</ele>
        <time>2016-03-23T09:21:03Z</time>
      </trkpt>
      <trkpt lat="45.50446" lon="6.67474">
        <ele>2028.75</ele>
        <time>2016-03-23T09:21:06Z</time>
      </trkpt>
      <trkpt lat="45.50466" lon="6.67493">
        <ele>2025.42</ele>
        <time>2016-03-23T09:21:10Z</time>
      </trkpt>
      <trkpt lat="45.50473" lon="6.67469">
        <ele>2004.97</ele>
        <time>2016-03-23T09:21:26Z</time>
      </trkpt>
      <trkpt lat="45.50462" lon="6.67449">
        <ele>1997.36</ele>
        <time>2016-03-23T09:21:48Z</time>
      </trkpt>
      <trkpt lat="45.50453" lon="6.67426">
        <ele>1988.58</ele>
        <time>2016-03-23T09:22:30Z</time>
      </trkpt>
      <trkpt lat="45.50447" lon="6.67399">
        <ele>1986.17</ele>
        <time>2016-03-23T09:22:35Z</time>
      </trkpt>
      <trkpt lat="45.50441" lon="6.67368">
        <ele>1990.48</ele>
        <time>2016-03-23T09:22:40Z</time>
      </trkpt>
      <trkpt lat="45.50435" lon="6.67337">
        <ele>1995.28</ele>
        <time>2016-03-23T09:22:45Z</time>
      </trkpt>
      <trkpt lat="45.50428" lon="6.67309">
        <ele>2003.05</ele>
        <time>2016-03-23T09:22:50Z</time>
      </trkpt>
      <trkpt lat="45.50422" lon="6.67281">
        <ele>2008.47</ele>
        <time>2016-03-23T09:22:55Z</time>
      </trkpt>
      <trkpt lat="45.50418" lon="6.67253">
        <ele>2010.35</ele>
        <time>2016-03-23T09:23:00Z</time>
      </trkpt>
      <trkpt lat="45.50413" lon="6.67222">
        <ele>2019.06</ele>
        <time>2016-03-23T09:23:05Z</time>
      </trkpt>
      <trkpt lat="45.50405" lon="6.67196">
        <ele>2026.04</ele>
        <time>2016-03-23T09:23:10Z</time>
      </trkpt>
      <trkpt lat="45.50399" lon="6.67167">
        <ele>2035.96</ele>
        <time>2016-03-23T09:23:15Z</time>
      </trkpt>
      <trkpt lat="45.50393" lon="6.67138">
        <ele>2048.03</ele>
        <time>2016-03-23T09:23:20Z</time>
      </trkpt>
      <trkpt lat="45.50387" lon="6.67113">
        <ele>2057.68</ele>
        <time>2016-03-23T09:23:25Z</time>
      </trkpt>
      <trkpt lat="45.50379" lon="6.67085">
        <ele>2064.24</ele>
        <time>2016-03-23T09:23:30Z</time>
      </trkpt>
      <trkpt lat="45.50374" lon="6.67061">
        <ele>2069.27</ele>
        <time>2016-03-23T09:23:34Z</time>
      </trkpt>
      <trkpt lat="45.50367" lon="6.67034">
        <ele>2076.05</ele>
        <time>2016-03-23T09:23:39Z</time>
      </trkpt>
      <trkpt lat="45.50361" lon="6.67006">
        <ele>2084.07</ele>
        <time>2016-03-23T09:23:44Z</time>
      </trkpt>
      <trkpt lat="45.50354" lon="6.66977">
        <ele>2093.03</ele>
        <time>2016-03-23T09:23:49Z</time>
      </trkpt>
      <trkpt lat="45.50348" lon="6.66949">
        <ele>2103.03</ele>
        <time>2016-03-23T09:23:54Z</time>
      </trkpt>
      <trkpt lat="45.50342" lon="6.66919">
        <ele>2112.83</ele>
        <time>2016-03-23T09:23:59Z</time>
      </trkpt>
      <trkpt lat="45.50335" lon="6.66889">
        <ele>2120.08</ele>
        <time>2016-03-23T09:24:04Z</time>
      </trkpt>
      <trkpt lat="45.50328" lon="6.66859">
        <ele>2127.23</ele>
        <time>2016-03-23T09:24:09Z</time>
      </trkpt>
      <trkpt lat="45.50322" lon="6.66831">
        <ele>2132.28</ele>
        <time>2016-03-23T09:24:14Z</time>
      </trkpt>
      <trkpt lat="45.50315" lon="6.66803">
        <ele>2139.09</ele>
        <time>2016-03-23T09:24:19Z</time>
      </trkpt>
      <trkpt lat="45.50309" lon="6.66772">
        <ele>2149.03</ele>
        <time>2016-03-23T09:24:24Z</time>
      </trkpt>
      <trkpt lat="45.50306" lon="6.66745">
        <ele>2155.28</ele>
        <time>2016-03-23T09:24:29Z</time>
      </trkpt>
      <trkpt lat="45.503" lon="6.66718">
        <ele>2160.27</ele>
        <time>2016-03-23T09:24:33Z</time>
      </trkpt>
      <trkpt lat="45.50294" lon="6.66694">
        <ele>2164.28</ele>
        <time>2016-03-23T09:24:37Z</time>
      </trkpt>
      <trkpt lat="45.50288" lon="6.66669">
        <ele>2167.44</ele>
        <time>2016-03-23T09:24:41Z</time>
      </trkpt>
      <trkpt lat="45.50283" lon="6.66644">
        <ele>2174.23</ele>
        <time>2016-03-23T09:24:45Z</time>
      </trkpt>
      <trkpt lat="45.50277" lon="6.66615">
        <ele>2181.24</ele>
        <time>2016-03-23T09:24:50Z</time>
      </trkpt>
      <trkpt lat="45.5027" lon="6.66589">
        <ele>2186.44</ele>
        <time>2016-03-23T09:24:55Z</time>
      </trkpt>
      <trkpt lat="45.50268" lon="6.66563">
        <ele>2191.28</ele>
        <time>2016-03-23T09:24:59Z</time>
      </trkpt>
      <trkpt lat="45.50262" lon="6.66535">
        <ele>2199.07</ele>
        <time>2016-03-23T09:25:04Z</time>
      </trkpt>
      <trkpt lat="45.50256" lon="6.66506">
        <ele>2209.03</ele>
        <time>2016-03-23T09:25:09Z</time>
      </trkpt>
      <trkpt lat="45.5025" lon="6.66477">
        <ele>2217.84</ele>
        <time>2016-03-23T09:25:14Z</time>
      </trkpt>
      <trkpt lat="45.50243" lon="6.66447">
        <ele>2227.03</ele>
        <time>2016-03-23T09:25:19Z</time>
      </trkpt>
      <trkpt lat="45.50237" lon="6.6642">
        <ele>2237.22</ele>
        <time>2016-03-23T09:25:24Z</time>
      </trkpt>
      <trkpt lat="45.5023" lon="6.66391">
        <ele>2246.19</ele>
        <time>2016-03-23T09:25:29Z</time>
      </trkpt>
      <trkpt lat="45.50223" lon="6.66365">
        <ele>2256.16</ele>
        <time>2016-03-23T09:25:34Z</time>
      </trkpt>
      <trkpt lat="45.50217" lon="6.66338">
        <ele>2267.85</ele>
        <time>2016-03-23T09:25:39Z</time>
      </trkpt>
      <trkpt lat="45.50212" lon="6.66311">
        <ele>2275.88</ele>
        <time>2016-03-23T09:25:44Z</time>
      </trkpt>
      <trkpt lat="45.50206" lon="6.66285">
        <ele>2288.82</ele>
        <time>2016-03-23T09:25:49Z</time>
      </trkpt>
      <trkpt lat="45.502" lon="6.66256">
        <ele>2302.77</ele>
        <time>2016-03-23T09:25:54Z</time>
      </trkpt>
      <trkpt lat="45.50194" lon="6.66228">
        <ele>2315.07</ele>
        <time>2016-03-23T09:26:00Z</time>
      </trkpt>
      <trkpt lat="45.50189" lon="6.66199">
        <ele>2325.19</ele>
        <time>2016-03-23T09:26:05Z</time>
      </trkpt>
      <trkpt lat="45.50183" lon="6.66173">
        <ele>2333.22</ele>
        <time>2016-03-23T09:26:09Z</time>
      </trkpt>
      <trkpt lat="45.50186" lon="6.66147">
        <ele>2336.33</ele>
        <time>2016-03-23T09:26:18Z</time>
      </trkpt>
      <trkpt lat="45.50198" lon="6.66125">
        <ele>2337.53</ele>
        <time>2016-03-23T09:26:27Z</time>
      </trkpt>
      <trkpt lat="45.50216" lon="6.66126">
        <ele>2343.37</ele>
        <time>2016-03-23T09:27:13Z</time>
      </trkpt>
      <trkpt lat="45.50238" lon="6.66129">
        <ele>2343.53</ele>
        <time>2016-03-23T09:27:19Z</time>
      </trkpt>
      <trkpt lat="45.50258" lon="6.66122">
        <ele>2341.54</ele>
        <time>2016-03-23T09:27:23Z</time>
      </trkpt>
      <trkpt lat="45.50276" lon="6.66116">
        <ele>2339.58</ele>
        <time>2016-03-23T09:27:26Z</time>
      </trkpt>
      <trkpt lat="45.50296" lon="6.66105">
        <ele>2337.58</ele>
        <time>2016-03-23T09:27:29Z</time>
      </trkpt>
      <trkpt lat="45.50316" lon="6.66096">
        <ele>2333.79</ele>
        <time>2016-03-23T09:27:32Z</time>
      </trkpt>
      <trkpt lat="45.50341" lon="6.66094">
        <ele>2329.98</ele>
        <time>2016-03-23T09:27:35Z</time>
      </trkpt>
      <trkpt lat="45.50366" lon="6.66091">
        <ele>2325.82</ele>
        <time>2016-03-23T09:27:38Z</time>
      </trkpt>
      <trkpt lat="45.5039" lon="6.66085">
        <ele>2323.77</ele>
        <time>2016-03-23T09:27:41Z</time>
      </trkpt>
      <trkpt lat="45.50413" lon="6.66081">
        <ele>2323.53</ele>
        <time>2016-03-23T09:27:44Z</time>
      </trkpt>
      <trkpt lat="45.50432" lon="6.66082">
        <ele>2322.54</ele>
        <time>2016-03-23T09:27:47Z</time>
      </trkpt>
      <trkpt lat="45.50456" lon="6.66084">
        <ele>2323.33</ele>
        <time>2016-03-23T09:27:51Z</time>
      </trkpt>
      <trkpt lat="45.50478" lon="6.66084">
        <ele>2321.54</ele>
        <time>2016-03-23T09:27:56Z</time>
      </trkpt>
      <trkpt lat="45.50498" lon="6.66086">
        <ele>2320.73</ele>
        <time>2016-03-23T09:28:01Z</time>
      </trkpt>
      <trkpt lat="45.50516" lon="6.66092">
        <ele>2318.74</ele>
        <time>2016-03-23T09:28:04Z</time>
      </trkpt>
      <trkpt lat="45.50539" lon="6.66102">
        <ele>2316.55</ele>
        <time>2016-03-23T09:28:07Z</time>
      </trkpt>
      <trkpt lat="45.50562" lon="6.66108">
        <ele>2312.82</ele>
        <time>2016-03-23T09:28:10Z</time>
      </trkpt>
      <trkpt lat="45.50589" lon="6.66115">
        <ele>2306.81</ele>
        <time>2016-03-23T09:28:13Z</time>
      </trkpt>
      <trkpt lat="45.50614" lon="6.66121">
        <ele>2301.8</ele>
        <time>2016-03-23T09:28:16Z</time>
      </trkpt>
      <trkpt lat="45.50639" lon="6.66128">
        <ele>2298.78</ele>
        <time>2016-03-23T09:28:19Z</time>
      </trkpt>
      <trkpt lat="45.50658" lon="6.66124">
        <ele>2296.55</ele>
        <time>2016-03-23T09:28:22Z</time>
      </trkpt>
      <trkpt lat="45.50674" lon="6.6614">
        <ele>2290.98</ele>
        <time>2016-03-23T09:28:27Z</time>
      </trkpt>
      <trkpt lat="45.50684" lon="6.66163">
        <ele>2287.74</ele>
        <time>2016-03-23T09:28:31Z</time>
      </trkpt>
      <trkpt lat="45.50692" lon="6.66187">
        <ele>2280.11</ele>
        <time>2016-03-23T09:28:34Z</time>
      </trkpt>
      <trkpt lat="45.50702" lon="6.66214">
        <ele>2275.79</ele>
        <time>2016-03-23T09:28:37Z</time>
      </trkpt>
      <trkpt lat="45.50706" lon="6.66239">
        <ele>2271.82</ele>
        <time>2016-03-23T09:28:40Z</time>
      </trkpt>
      <trkpt lat="45.50705" lon="6.66267">
        <ele>2269.77</ele>
        <time>2016-03-23T09:28:43Z</time>
      </trkpt>
      <trkpt lat="45.5071" lon="6.66307">
        <ele>2264.18</ele>
        <time>2016-03-23T09:28:47Z</time>
      </trkpt>
      <trkpt lat="45.50731" lon="6.66327">
        <ele>2253.71</ele>
        <time>2016-03-23T09:28:50Z</time>
      </trkpt>
      <trkpt lat="45.50752" lon="6.66336">
        <ele>2246.24</ele>
        <time>2016-03-23T09:28:53Z</time>
      </trkpt>
      <trkpt lat="45.5077" lon="6.66347">
        <ele>2235.08</ele>
        <time>2016-03-23T09:28:57Z</time>
      </trkpt>
      <trkpt lat="45.50794" lon="6.66354">
        <ele>2229.78</ele>
        <time>2016-03-23T09:29:01Z</time>
      </trkpt>
      <trkpt lat="45.50813" lon="6.66344">
        <ele>2224.19</ele>
        <time>2016-03-23T09:29:04Z</time>
      </trkpt>
      <trkpt lat="45.50832" lon="6.66344">
        <ele>2222.58</ele>
        <time>2016-03-23T09:29:07Z</time>
      </trkpt>
      <trkpt lat="45.50844" lon="6.66367">
        <ele>2211.54</ele>
        <time>2016-03-23T09:29:12Z</time>
      </trkpt>
      <trkpt lat="45.50864" lon="6.66374">
        <ele>2202.07</ele>
        <time>2016-03-23T09:29:16Z</time>
      </trkpt>
      <trkpt lat="45.50885" lon="6.66362">
        <ele>2195.79</ele>
        <time>2016-03-23T09:29:20Z</time>
      </trkpt>
      <trkpt lat="45.5091" lon="6.66362">
        <ele>2181.05</ele>
        <time>2016-03-23T09:29:26Z</time>
      </trkpt>
      <trkpt lat="45.50928" lon="6.66367">
        <ele>2176.23</ele>
        <time>2016-03-23T09:29:28Z</time>
      </trkpt>
      <trkpt lat="45.50948" lon="6.66365">
        <ele>2164.14</ele>
        <time>2016-03-23T09:29:31Z</time>
      </trkpt>
      <trkpt lat="45.50972" lon="6.66377">
        <ele>2156.08</ele>
        <time>2016-03-23T09:29:34Z</time>
      </trkpt>
      <trkpt lat="45.50993" lon="6.66389">
        <ele>2147.31</ele>
        <time>2016-03-23T09:29:37Z</time>
      </trkpt>
      <trkpt lat="45.51013" lon="6.66381">
        <ele>2141.76</ele>
        <time>2016-03-23T09:29:41Z</time>
      </trkpt>
      <trkpt lat="45.5103" lon="6.66372">
        <ele>2134.78</ele>
        <time>2016-03-23T09:29:47Z</time>
      </trkpt>
      <trkpt lat="45.51049" lon="6.66369">
        <ele>2130.49</ele>
        <time>2016-03-23T09:30:09Z</time>
      </trkpt>
      <trkpt lat="45.51068" lon="6.66376">
        <ele>2128.73</ele>
        <time>2016-03-23T09:30:23Z</time>
      </trkpt>
      <trkpt lat="45.51085" lon="6.66391">
        <ele>2129.53</ele>
        <time>2016-03-23T09:30:28Z</time>
      </trkpt>
      <trkpt lat="45.51086" lon="6.66417">
        <ele>2123.53</ele>
        <time>2016-03-23T09:30:36Z</time>
      </trkpt>
      <trkpt lat="45.51091" lon="6.66443">
        <ele>2120.53</ele>
        <time>2016-03-23T09:31:34Z</time>
      </trkpt>
      <trkpt lat="45.51109" lon="6.6646">
        <ele>2114.78</ele>
        <time>2016-03-23T09:31:40Z</time>
      </trkpt>
      <trkpt lat="45.51129" lon="6.66473">
        <ele>2111.74</ele>
        <time>2016-03-23T09:31:44Z</time>
      </trkpt>
      <trkpt lat="45.51147" lon="6.66482">
        <ele>2109</ele>
        <time>2016-03-23T09:31:47Z</time>
      </trkpt>
      <trkpt lat="45.51168" lon="6.66497">
        <ele>2106.61</ele>
        <time>2016-03-23T09:31:50Z</time>
      </trkpt>
      <trkpt lat="45.51185" lon="6.66507">
        <ele>2105.73</ele>
        <time>2016-03-23T09:31:52Z</time>
      </trkpt>
      <trkpt lat="45.51205" lon="6.66517">
        <ele>2102.97</ele>
        <time>2016-03-23T09:31:55Z</time>
      </trkpt>
      <trkpt lat="45.51221" lon="6.66537">
        <ele>2095.2</ele>
        <time>2016-03-23T09:31:59Z</time>
      </trkpt>
      <trkpt lat="45.51242" lon="6.66553">
        <ele>2090.98</ele>
        <time>2016-03-23T09:32:02Z</time>
      </trkpt>
      <trkpt lat="45.5126" lon="6.66562">
        <ele>2087.14</ele>
        <time>2016-03-23T09:32:05Z</time>
      </trkpt>
      <trkpt lat="45.51276" lon="6.66586">
        <ele>2084.74</ele>
        <time>2016-03-23T09:32:08Z</time>
      </trkpt>
      <trkpt lat="45.51296" lon="6.66601">
        <ele>2083.54</ele>
        <time>2016-03-23T09:32:11Z</time>
      </trkpt>
      <trkpt lat="45.51317" lon="6.66614">
        <ele>2079.47</ele>
        <time>2016-03-23T09:32:14Z</time>
      </trkpt>
      <trkpt lat="45.51331" lon="6.66635">
        <ele>2076.97</ele>
        <time>2016-03-23T09:32:16Z</time>
      </trkpt>
      <trkpt lat="45.51349" lon="6.66658">
        <ele>2067.98</ele>
        <time>2016-03-23T09:32:20Z</time>
      </trkpt>
      <trkpt lat="45.51368" lon="6.66678">
        <ele>2061.39</ele>
        <time>2016-03-23T09:32:23Z</time>
      </trkpt>
      <trkpt lat="45.51381" lon="6.66701">
        <ele>2050.85</ele>
        <time>2016-03-23T09:32:27Z</time>
      </trkpt>
      <trkpt lat="45.51399" lon="6.66727">
        <ele>2047.59</ele>
        <time>2016-03-23T09:32:30Z</time>
      </trkpt>
      <trkpt lat="45.5142" lon="6.66738">
        <ele>2044.01</ele>
        <time>2016-03-23T09:32:32Z</time>
      </trkpt>
      <trkpt lat="45.51435" lon="6.66758">
        <ele>2036.24</ele>
        <time>2016-03-23T09:32:35Z</time>
      </trkpt>
      <trkpt lat="45.51452" lon="6.66785">
        <ele>2030.99</ele>
        <time>2016-03-23T09:32:38Z</time>
      </trkpt>
      <trkpt lat="45.51469" lon="6.66796">
        <ele>2026.05</ele>
        <time>2016-03-23T09:32:41Z</time>
      </trkpt>
      <trkpt lat="45.51492" lon="6.66811">
        <ele>2019.26</ele>
        <time>2016-03-23T09:32:44Z</time>
      </trkpt>
      <trkpt lat="45.51511" lon="6.66827">
        <ele>2012.1</ele>
        <time>2016-03-23T09:32:47Z</time>
      </trkpt>
      <trkpt lat="45.51531" lon="6.6684">
        <ele>2003.41</ele>
        <time>2016-03-23T09:32:51Z</time>
      </trkpt>
      <trkpt lat="45.51549" lon="6.66842">
        <ele>1994.03</ele>
        <time>2016-03-23T09:33:12Z</time>
      </trkpt>
      <trkpt lat="45.51566" lon="6.66829">
        <ele>1988.02</ele>
        <time>2016-03-23T09:33:16Z</time>
      </trkpt>
      <trkpt lat="45.51581" lon="6.66809">
        <ele>1985.93</ele>
        <time>2016-03-23T09:33:19Z</time>
      </trkpt>
      <trkpt lat="45.51588" lon="6.6678">
        <ele>1978.2</ele>
        <time>2016-03-23T09:33:23Z</time>
      </trkpt>
      <trkpt lat="45.51598" lon="6.66751">
        <ele>1972.03</ele>
        <time>2016-03-23T09:33:26Z</time>
      </trkpt>
      <trkpt lat="45.51609" lon="6.6672">
        <ele>1966.03</ele>
        <time>2016-03-23T09:33:29Z</time>
      </trkpt>
      <trkpt lat="45.51623" lon="6.66699">
        <ele>1963.95</ele>
        <time>2016-03-23T09:33:31Z</time>
      </trkpt>
      <trkpt lat="45.51636" lon="6.6668">
        <ele>1959.39</ele>
        <time>2016-03-23T09:33:33Z</time>
      </trkpt>
      <trkpt lat="45.51649" lon="6.66658">
        <ele>1956.01</ele>
        <time>2016-03-23T09:33:35Z</time>
      </trkpt>
      <trkpt lat="45.51652" lon="6.66631">
        <ele>1951.85</ele>
        <time>2016-03-23T09:33:38Z</time>
      </trkpt>
      <trkpt lat="45.51651" lon="6.66605">
        <ele>1944.95</ele>
        <time>2016-03-23T09:33:42Z</time>
      </trkpt>
      <trkpt lat="45.51652" lon="6.66572">
        <ele>1939.82</ele>
        <time>2016-03-23T09:33:46Z</time>
      </trkpt>
      <trkpt lat="45.51649" lon="6.66543">
        <ele>1934.19</ele>
        <time>2016-03-23T09:33:49Z</time>
      </trkpt>
      <trkpt lat="45.5165" lon="6.66509">
        <ele>1930.82</ele>
        <time>2016-03-23T09:33:52Z</time>
      </trkpt>
      <trkpt lat="45.51649" lon="6.66475">
        <ele>1925.83</ele>
        <time>2016-03-23T09:33:55Z</time>
      </trkpt>
      <trkpt lat="45.51651" lon="6.66447">
        <ele>1922.82</ele>
        <time>2016-03-23T09:33:57Z</time>
      </trkpt>
      <trkpt lat="45.5165" lon="6.66412">
        <ele>1918.79</ele>
        <time>2016-03-23T09:34:00Z</time>
      </trkpt>
      <trkpt lat="45.51651" lon="6.66384">
        <ele>1917.74</ele>
        <time>2016-03-23T09:34:02Z</time>
      </trkpt>
      <trkpt lat="45.5165" lon="6.66349">
        <ele>1915.42</ele>
        <time>2016-03-23T09:34:05Z</time>
      </trkpt>
      <trkpt lat="45.51646" lon="6.66319">
        <ele>1909.9</ele>
        <time>2016-03-23T09:34:08Z</time>
      </trkpt>
      <trkpt lat="45.51639" lon="6.66294">
        <ele>1906.78</ele>
        <time>2016-03-23T09:34:11Z</time>
      </trkpt>
      <trkpt lat="45.51631" lon="6.66264">
        <ele>1904.58</ele>
        <time>2016-03-23T09:34:14Z</time>
      </trkpt>
      <trkpt lat="45.51625" lon="6.66235">
        <ele>1903.73</ele>
        <time>2016-03-23T09:34:16Z</time>
      </trkpt>
      <trkpt lat="45.51617" lon="6.66207">
        <ele>1902.74</ele>
        <time>2016-03-23T09:34:18Z</time>
      </trkpt>
      <trkpt lat="45.51608" lon="6.66181">
        <ele>1901.74</ele>
        <time>2016-03-23T09:34:20Z</time>
      </trkpt>
      <trkpt lat="45.51599" lon="6.66157">
        <ele>1900.74</ele>
        <time>2016-03-23T09:34:22Z</time>
      </trkpt>
      <trkpt lat="45.51585" lon="6.66139">
        <ele>1895.74</ele>
        <time>2016-03-23T09:34:24Z</time>
      </trkpt>
      <trkpt lat="45.5157" lon="6.66113">
        <ele>1892.01</ele>
        <time>2016-03-23T09:34:27Z</time>
      </trkpt>
      <trkpt lat="45.51552" lon="6.66087">
        <ele>1889.74</ele>
        <time>2016-03-23T09:34:30Z</time>
      </trkpt>
      <trkpt lat="45.51532" lon="6.66067">
        <ele>1886.78</ele>
        <time>2016-03-23T09:34:33Z</time>
      </trkpt>
      <trkpt lat="45.51511" lon="6.66043">
        <ele>1883.59</ele>
        <time>2016-03-23T09:34:36Z</time>
      </trkpt>
      <trkpt lat="45.51527" lon="6.66019">
        <ele>1865.16</ele>
        <time>2016-03-23T09:34:43Z</time>
      </trkpt>
      <trkpt lat="45.51548" lon="6.66003">
        <ele>1855.29</ele>
        <time>2016-03-23T09:34:46Z</time>
      </trkpt>
      <trkpt lat="45.51566" lon="6.65994">
        <ele>1850.08</ele>
        <time>2016-03-23T09:34:48Z</time>
      </trkpt>
      <trkpt lat="45.5159" lon="6.6598">
        <ele>1845.18</ele>
        <time>2016-03-23T09:34:51Z</time>
      </trkpt>
      <trkpt lat="45.5161" lon="6.65968">
        <ele>1835.48</ele>
        <time>2016-03-23T09:34:54Z</time>
      </trkpt>
      <trkpt lat="45.51632" lon="6.65965">
        <ele>1831.59</ele>
        <time>2016-03-23T09:34:57Z</time>
      </trkpt>
      <trkpt lat="45.51658" lon="6.65973">
        <ele>1828.59</ele>
        <time>2016-03-23T09:35:00Z</time>
      </trkpt>
      <trkpt lat="45.51677" lon="6.65986">
        <ele>1826.61</ele>
        <time>2016-03-23T09:35:02Z</time>
      </trkpt>
      <trkpt lat="45.51699" lon="6.66005">
        <ele>1825.57</ele>
        <time>2016-03-23T09:35:04Z</time>
      </trkpt>
      <trkpt lat="45.51717" lon="6.6602">
        <ele>1824.73</ele>
        <time>2016-03-23T09:35:06Z</time>
      </trkpt>
      <trkpt lat="45.51735" lon="6.66008">
        <ele>1812.42</ele>
        <time>2016-03-23T09:35:11Z</time>
      </trkpt>
      <trkpt lat="45.51746" lon="6.65988">
        <ele>1797.36</ele>
        <time>2016-03-23T09:35:45Z</time>
      </trkpt>
      <trkpt lat="45.51741" lon="6.65963">
        <ele>1795.25</ele>
        <time>2016-03-23T09:36:10Z</time>
      </trkpt>
      <trkpt lat="45.51743" lon="6.65937">
        <ele>1801.33</ele>
        <time>2016-03-23T09:36:21Z</time>
      </trkpt>
      <trkpt lat="45.51743" lon="6.65909">
        <ele>1811.33</ele>
        <time>2016-03-23T09:36:33Z</time>
      </trkpt>
      <trkpt lat="45.51741" lon="6.65883">
        <ele>1814.49</ele>
        <time>2016-03-23T09:36:44Z</time>
      </trkpt>
      <trkpt lat="45.51741" lon="6.65856">
        <ele>1823.44</ele>
        <time>2016-03-23T09:36:55Z</time>
      </trkpt>
      <trkpt lat="45.5174" lon="6.6583">
        <ele>1829.44</ele>
        <time>2016-03-23T09:37:05Z</time>
      </trkpt>
      <trkpt lat="45.51738" lon="6.65803">
        <ele>1840.29</ele>
        <time>2016-03-23T09:37:17Z</time>
      </trkpt>
      <trkpt lat="45.51736" lon="6.65777">
        <ele>1847.52</ele>
        <time>2016-03-23T09:37:28Z</time>
      </trkpt>
      <trkpt lat="45.51736" lon="6.6575">
        <ele>1858.48</ele>
        <time>2016-03-23T09:37:41Z</time>
      </trkpt>
      <trkpt lat="45.51736" lon="6.65723">
        <ele>1868.11</ele>
        <time>2016-03-23T09:37:53Z</time>
      </trkpt>
      <trkpt lat="45.51734" lon="6.65697">
        <ele>1878.24</ele>
        <time>2016-03-23T09:38:05Z</time>
      </trkpt>
      <trkpt lat="45.51733" lon="6.65668">
        <ele>1883.13</ele>
        <time>2016-03-23T09:38:17Z</time>
      </trkpt>
      <trkpt lat="45.51732" lon="6.65643">
        <ele>1893.27</ele>
        <time>2016-03-23T09:38:30Z</time>
      </trkpt>
      <trkpt lat="45.51731" lon="6.65616">
        <ele>1902.28</ele>
        <time>2016-03-23T09:38:42Z</time>
      </trkpt>
      <trkpt lat="45.5173" lon="6.6559">
        <ele>1913.29</ele>
        <time>2016-03-23T09:38:54Z</time>
      </trkpt>
      <trkpt lat="45.51729" lon="6.65563">
        <ele>1921.32</ele>
        <time>2016-03-23T09:39:06Z</time>
      </trkpt>
      <trkpt lat="45.51728" lon="6.65535">
        <ele>1928.09</ele>
        <time>2016-03-23T09:39:17Z</time>
      </trkpt>
      <trkpt lat="45.51726" lon="6.65508">
        <ele>1940.47</ele>
        <time>2016-03-23T09:39:29Z</time>
      </trkpt>
      <trkpt lat="45.51727" lon="6.65482">
        <ele>1948.52</ele>
        <time>2016-03-23T09:39:40Z</time>
      </trkpt>
      <trkpt lat="45.51729" lon="6.65455">
        <ele>1955.29</ele>
        <time>2016-03-23T09:39:51Z</time>
      </trkpt>
      <trkpt lat="45.51729" lon="6.65427">
        <ele>1963.26</ele>
        <time>2016-03-23T09:40:03Z</time>
      </trkpt>
      <trkpt lat="45.51729" lon="6.65401">
        <ele>1971.48</ele>
        <time>2016-03-23T09:40:14Z</time>
      </trkpt>
      <trkpt lat="45.51729" lon="6.65375">
        <ele>1975.53</ele>
        <time>2016-03-23T09:40:25Z</time>
      </trkpt>
      <trkpt lat="45.51728" lon="6.65348">
        <ele>1980.33</ele>
        <time>2016-03-23T09:40:36Z</time>
      </trkpt>
      <trkpt lat="45.51727" lon="6.65322">
        <ele>1984.52</ele>
        <time>2016-03-23T09:40:47Z</time>
      </trkpt>
      <trkpt lat="45.51727" lon="6.65294">
        <ele>1989.52</ele>
        <time>2016-03-23T09:40:58Z</time>
      </trkpt>
      <trkpt lat="45.51726" lon="6.65267">
        <ele>1993.48</ele>
        <time>2016-03-23T09:41:09Z</time>
      </trkpt>
      <trkpt lat="45.51726" lon="6.65242">
        <ele>1994.53</ele>
        <time>2016-03-23T09:41:20Z</time>
      </trkpt>
      <trkpt lat="45.51725" lon="6.65214">
        <ele>1995.37</ele>
        <time>2016-03-23T09:41:31Z</time>
      </trkpt>
      <trkpt lat="45.51724" lon="6.65186">
        <ele>1996.52</ele>
        <time>2016-03-23T09:41:42Z</time>
      </trkpt>
      <trkpt lat="45.51723" lon="6.65159">
        <ele>1996.53</ele>
        <time>2016-03-23T09:41:53Z</time>
      </trkpt>
      <trkpt lat="45.51719" lon="6.65132">
        <ele>1992.57</ele>
        <time>2016-03-23T09:42:05Z</time>
      </trkpt>
      <trkpt lat="45.51714" lon="6.65107">
        <ele>1988.73</ele>
        <time>2016-03-23T09:42:16Z</time>
      </trkpt>
      <trkpt lat="45.51704" lon="6.65084">
        <ele>1984.81</ele>
        <time>2016-03-23T09:42:21Z</time>
      </trkpt>
      <trkpt lat="45.51718" lon="6.65061">
        <ele>1980.73</ele>
        <time>2016-03-23T09:44:03Z</time>
      </trkpt>
      <trkpt lat="45.5173" lon="6.65032">
        <ele>1977.77</ele>
        <time>2016-03-23T09:44:07Z</time>
      </trkpt>
      <trkpt lat="45.51751" lon="6.65009">
        <ele>1975.74</ele>
        <time>2016-03-23T09:44:10Z</time>
      </trkpt>
      <trkpt lat="45.51759" lon="6.64977">
        <ele>1974.74</ele>
        <time>2016-03-23T09:44:12Z</time>
      </trkpt>
      <trkpt lat="45.51762" lon="6.64951">
        <ele>1974.54</ele>
        <time>2016-03-23T09:44:14Z</time>
      </trkpt>
      <trkpt lat="45.51769" lon="6.64922">
        <ele>1972.93</ele>
        <time>2016-03-23T09:44:16Z</time>
      </trkpt>
      <trkpt lat="45.51774" lon="6.64887">
        <ele>1968.5</ele>
        <time>2016-03-23T09:44:19Z</time>
      </trkpt>
      <trkpt lat="45.51781" lon="6.64861">
        <ele>1968.37</ele>
        <time>2016-03-23T09:44:21Z</time>
      </trkpt>
      <trkpt lat="45.51781" lon="6.64836">
        <ele>1964.59</ele>
        <time>2016-03-23T09:44:25Z</time>
      </trkpt>
      <trkpt lat="45.51791" lon="6.64808">
        <ele>1962.77</ele>
        <time>2016-03-23T09:44:28Z</time>
      </trkpt>
      <trkpt lat="45.51804" lon="6.6479">
        <ele>1959.18</ele>
        <time>2016-03-23T09:44:30Z</time>
      </trkpt>
      <trkpt lat="45.51819" lon="6.6477">
        <ele>1956.64</ele>
        <time>2016-03-23T09:44:32Z</time>
      </trkpt>
      <trkpt lat="45.51833" lon="6.64747">
        <ele>1954.78</ele>
        <time>2016-03-23T09:44:34Z</time>
      </trkpt>
      <trkpt lat="45.51845" lon="6.64725">
        <ele>1951.02</ele>
        <time>2016-03-23T09:44:36Z</time>
      </trkpt>
      <trkpt lat="45.51853" lon="6.647">
        <ele>1947.83</ele>
        <time>2016-03-23T09:44:38Z</time>
      </trkpt>
      <trkpt lat="45.5185" lon="6.64662">
        <ele>1947.76</ele>
        <time>2016-03-23T09:44:41Z</time>
      </trkpt>
      <trkpt lat="45.51855" lon="6.64632">
        <ele>1945.78</ele>
        <time>2016-03-23T09:44:43Z</time>
      </trkpt>
      <trkpt lat="45.51863" lon="6.646">
        <ele>1942.82</ele>
        <time>2016-03-23T09:44:45Z</time>
      </trkpt>
      <trkpt lat="45.5187" lon="6.64573">
        <ele>1939.98</ele>
        <time>2016-03-23T09:44:47Z</time>
      </trkpt>
      <trkpt lat="45.51889" lon="6.64554">
        <ele>1937.26</ele>
        <time>2016-03-23T09:44:50Z</time>
      </trkpt>
      <trkpt lat="45.51913" lon="6.64542">
        <ele>1933.78</ele>
        <time>2016-03-23T09:44:53Z</time>
      </trkpt>
      <trkpt lat="45.51936" lon="6.6453">
        <ele>1930.78</ele>
        <time>2016-03-23T09:44:56Z</time>
      </trkpt>
      <trkpt lat="45.5196" lon="6.64521">
        <ele>1926.98</ele>
        <time>2016-03-23T09:44:59Z</time>
      </trkpt>
      <trkpt lat="45.51978" lon="6.64514">
        <ele>1921.86</ele>
        <time>2016-03-23T09:45:02Z</time>
      </trkpt>
      <trkpt lat="45.51999" lon="6.6451">
        <ele>1917.79</ele>
        <time>2016-03-23T09:45:05Z</time>
      </trkpt>
      <trkpt lat="45.52017" lon="6.64501">
        <ele>1917.37</ele>
        <time>2016-03-23T09:45:08Z</time>
      </trkpt>
      <trkpt lat="45.5203" lon="6.64474">
        <ele>1908.81</ele>
        <time>2016-03-23T09:45:16Z</time>
      </trkpt>
      <trkpt lat="45.52043" lon="6.64455">
        <ele>1902.61</ele>
        <time>2016-03-23T09:45:20Z</time>
      </trkpt>
      <trkpt lat="45.52066" lon="6.64433">
        <ele>1894.96</ele>
        <time>2016-03-23T09:45:25Z</time>
      </trkpt>
      <trkpt lat="45.52079" lon="6.64407">
        <ele>1892.74</ele>
        <time>2016-03-23T09:45:28Z</time>
      </trkpt>
      <trkpt lat="45.52105" lon="6.64391">
        <ele>1889.78</ele>
        <time>2016-03-23T09:45:31Z</time>
      </trkpt>
      <trkpt lat="45.52128" lon="6.64371">
        <ele>1882.08</ele>
        <time>2016-03-23T09:45:34Z</time>
      </trkpt>
      <trkpt lat="45.52144" lon="6.64351">
        <ele>1876.59</ele>
        <time>2016-03-23T09:45:36Z</time>
      </trkpt>
      <trkpt lat="45.52166" lon="6.64337">
        <ele>1872.85</ele>
        <time>2016-03-23T09:45:38Z</time>
      </trkpt>
      <trkpt lat="45.52184" lon="6.64311">
        <ele>1868.86</ele>
        <time>2016-03-23T09:45:40Z</time>
      </trkpt>
      <trkpt lat="45.52203" lon="6.64298">
        <ele>1865.02</ele>
        <time>2016-03-23T09:45:42Z</time>
      </trkpt>
      <trkpt lat="45.52225" lon="6.64279">
        <ele>1861.67</ele>
        <time>2016-03-23T09:45:44Z</time>
      </trkpt>
      <trkpt lat="45.52242" lon="6.6426">
        <ele>1850.49</ele>
        <time>2016-03-23T09:45:47Z</time>
      </trkpt>
      <trkpt lat="45.52266" lon="6.64244">
        <ele>1846.59</ele>
        <time>2016-03-23T09:45:50Z</time>
      </trkpt>
      <trkpt lat="45.52283" lon="6.64232">
        <ele>1844.93</ele>
        <time>2016-03-23T09:45:52Z</time>
      </trkpt>
      <trkpt lat="45.52298" lon="6.64217">
        <ele>1844.71</ele>
        <time>2016-03-23T09:45:54Z</time>
      </trkpt>
      <trkpt lat="45.52315" lon="6.64191">
        <ele>1842.77</ele>
        <time>2016-03-23T09:45:57Z</time>
      </trkpt>
      <trkpt lat="45.52322" lon="6.64159">
        <ele>1837.25</ele>
        <time>2016-03-23T09:46:00Z</time>
      </trkpt>
      <trkpt lat="45.52335" lon="6.64136">
        <ele>1835.6</ele>
        <time>2016-03-23T09:46:02Z</time>
      </trkpt>
      <trkpt lat="45.52352" lon="6.64116">
        <ele>1834.57</ele>
        <time>2016-03-23T09:46:04Z</time>
      </trkpt>
      <trkpt lat="45.52367" lon="6.64096">
        <ele>1828.93</ele>
        <time>2016-03-23T09:46:06Z</time>
      </trkpt>
      <trkpt lat="45.52383" lon="6.64076">
        <ele>1825.99</ele>
        <time>2016-03-23T09:46:08Z</time>
      </trkpt>
      <trkpt lat="45.52397" lon="6.64048">
        <ele>1813.47</ele>
        <time>2016-03-23T09:46:11Z</time>
      </trkpt>
      <trkpt lat="45.52413" lon="6.6403">
        <ele>1809.69</ele>
        <time>2016-03-23T09:46:13Z</time>
      </trkpt>
      <trkpt lat="45.52427" lon="6.64011">
        <ele>1793.68</ele>
        <time>2016-03-23T09:46:19Z</time>
      </trkpt>
      <trkpt lat="45.52438" lon="6.6399">
        <ele>1784.86</ele>
        <time>2016-03-23T09:46:22Z</time>
      </trkpt>
      <trkpt lat="45.5246" lon="6.63964">
        <ele>1776.92</ele>
        <time>2016-03-23T09:46:25Z</time>
      </trkpt>
      <trkpt lat="45.52476" lon="6.63947">
        <ele>1772.87</ele>
        <time>2016-03-23T09:46:27Z</time>
      </trkpt>
      <trkpt lat="45.52492" lon="6.6393">
        <ele>1769.18</ele>
        <time>2016-03-23T09:46:29Z</time>
      </trkpt>
      <trkpt lat="45.52513" lon="6.63907">
        <ele>1766.8</ele>
        <time>2016-03-23T09:46:31Z</time>
      </trkpt>
      <trkpt lat="45.52531" lon="6.63881">
        <ele>1765.58</ele>
        <time>2016-03-23T09:46:33Z</time>
      </trkpt>
      <trkpt lat="45.52547" lon="6.63866">
        <ele>1760.89</ele>
        <time>2016-03-23T09:46:35Z</time>
      </trkpt>
      <trkpt lat="45.52561" lon="6.63847">
        <ele>1755.86</ele>
        <time>2016-03-23T09:46:38Z</time>
      </trkpt>
      <trkpt lat="45.52575" lon="6.63827">
        <ele>1744.59</ele>
        <time>2016-03-23T09:46:41Z</time>
      </trkpt>
      <trkpt lat="45.52588" lon="6.63807">
        <ele>1737.24</ele>
        <time>2016-03-23T09:46:44Z</time>
      </trkpt>
      <trkpt lat="45.526" lon="6.63776">
        <ele>1728.79</ele>
        <time>2016-03-23T09:46:47Z</time>
      </trkpt>
      <trkpt lat="45.52598" lon="6.63748">
        <ele>1695.17</ele>
        <time>2016-03-23T09:47:10Z</time>
      </trkpt>
      <trkpt lat="45.52605" lon="6.63717">
        <ele>1690.62</ele>
        <time>2016-03-23T09:47:14Z</time>
      </trkpt>
      <trkpt lat="45.52614" lon="6.63684">
        <ele>1686.85</ele>
        <time>2016-03-23T09:47:17Z</time>
      </trkpt>
      <trkpt lat="45.52621" lon="6.63659">
        <ele>1683.82</ele>
        <time>2016-03-23T09:47:19Z</time>
      </trkpt>
      <trkpt lat="45.52635" lon="6.63631">
        <ele>1680.78</ele>
        <time>2016-03-23T09:47:22Z</time>
      </trkpt>
      <trkpt lat="45.52648" lon="6.63612">
        <ele>1673.94</ele>
        <time>2016-03-23T09:47:25Z</time>
      </trkpt>
      <trkpt lat="45.52672" lon="6.63605">
        <ele>1653.1</ele>
        <time>2016-03-23T09:47:30Z</time>
      </trkpt>
      <trkpt lat="45.52686" lon="6.63624">
        <ele>1646.07</ele>
        <time>2016-03-23T09:47:33Z</time>
      </trkpt>
      <trkpt lat="45.52707" lon="6.6364">
        <ele>1642.59</ele>
        <time>2016-03-23T09:47:36Z</time>
      </trkpt>
      <trkpt lat="45.52719" lon="6.63663">
        <ele>1637.22</ele>
        <time>2016-03-23T09:47:39Z</time>
      </trkpt>
      <trkpt lat="45.52737" lon="6.63672">
        <ele>1633.78</ele>
        <time>2016-03-23T09:47:42Z</time>
      </trkpt>
      <trkpt lat="45.52749" lon="6.63692">
        <ele>1631.77</ele>
        <time>2016-03-23T09:47:45Z</time>
      </trkpt>
      <trkpt lat="45.52767" lon="6.63687">
        <ele>1620.75</ele>
        <time>2016-03-23T09:47:59Z</time>
      </trkpt>
      <trkpt lat="45.5279" lon="6.63679">
        <ele>1613.42</ele>
        <time>2016-03-23T09:48:04Z</time>
      </trkpt>
      <trkpt lat="45.52814" lon="6.63686">
        <ele>1606.87</ele>
        <time>2016-03-23T09:48:08Z</time>
      </trkpt>
      <trkpt lat="45.52831" lon="6.63696">
        <ele>1602.98</ele>
        <time>2016-03-23T09:48:11Z</time>
      </trkpt>
      <trkpt lat="45.52854" lon="6.63706">
        <ele>1595.79</ele>
        <time>2016-03-23T09:48:16Z</time>
      </trkpt>
      <trkpt lat="45.52875" lon="6.63718">
        <ele>1585.86</ele>
        <time>2016-03-23T09:48:22Z</time>
      </trkpt>
      <trkpt lat="45.52894" lon="6.6371">
        <ele>1580.64</ele>
        <time>2016-03-23T09:48:25Z</time>
      </trkpt>
      <trkpt lat="45.52912" lon="6.63722">
        <ele>1578.8</ele>
        <time>2016-03-23T09:48:28Z</time>
      </trkpt>
      <trkpt lat="45.52929" lon="6.63733">
        <ele>1575.02</ele>
        <time>2016-03-23T09:48:30Z</time>
      </trkpt>
      <trkpt lat="45.52943" lon="6.63757">
        <ele>1570.98</ele>
        <time>2016-03-23T09:48:33Z</time>
      </trkpt>
      <trkpt lat="45.52962" lon="6.63764">
        <ele>1567.42</ele>
        <time>2016-03-23T09:48:34Z</time>
      </trkpt>
      <trkpt lat="45.5298" lon="6.63773">
        <ele>1548.98</ele>
        <time>2016-03-23T09:48:40Z</time>
      </trkpt>
      <trkpt lat="45.5299" lon="6.63745">
        <ele>1544.77</ele>
        <time>2016-03-23T09:48:47Z</time>
      </trkpt>
      <trkpt lat="45.53002" lon="6.63718">
        <ele>1537.9</ele>
        <time>2016-03-23T09:48:51Z</time>
      </trkpt>
      <trkpt lat="45.53016" lon="6.63692">
        <ele>1534.97</ele>
        <time>2016-03-23T09:48:54Z</time>
      </trkpt>
      <trkpt lat="45.53031" lon="6.63673">
        <ele>1532.61</ele>
        <time>2016-03-23T09:48:57Z</time>
      </trkpt>
      <trkpt lat="45.53037" lon="6.63645">
        <ele>1528.94</ele>
        <time>2016-03-23T09:49:01Z</time>
      </trkpt>
      <trkpt lat="45.53037" lon="6.63615">
        <ele>1526.57</ele>
        <time>2016-03-23T09:49:05Z</time>
      </trkpt>
      <trkpt lat="45.5303" lon="6.6359">
        <ele>1524.74</ele>
        <time>2016-03-23T09:49:08Z</time>
      </trkpt>
      <trkpt lat="45.53026" lon="6.63562">
        <ele>1521.62</ele>
        <time>2016-03-23T09:49:11Z</time>
      </trkpt>
      <trkpt lat="45.53022" lon="6.6353">
        <ele>1522.49</ele>
        <time>2016-03-23T09:49:14Z</time>
      </trkpt>
      <trkpt lat="45.53022" lon="6.63501">
        <ele>1521.09</ele>
        <time>2016-03-23T09:49:17Z</time>
      </trkpt>
      <trkpt lat="45.53023" lon="6.63473">
        <ele>1519.58</ele>
        <time>2016-03-23T09:49:20Z</time>
      </trkpt>
      <trkpt lat="45.53026" lon="6.6344">
        <ele>1514.99</ele>
        <time>2016-03-23T09:49:23Z</time>
      </trkpt>
      <trkpt lat="45.53026" lon="6.6341">
        <ele>1511.17</ele>
        <time>2016-03-23T09:49:26Z</time>
      </trkpt>
      <trkpt lat="45.53037" lon="6.63384">
        <ele>1508.54</ele>
        <time>2016-03-23T09:49:30Z</time>
      </trkpt>
      <trkpt lat="45.5304" lon="6.63357">
        <ele>1506.93</ele>
        <time>2016-03-23T09:49:34Z</time>
      </trkpt>
      <trkpt lat="45.5306" lon="6.63368">
        <ele>1500.02</ele>
        <time>2016-03-23T09:49:39Z</time>
      </trkpt>
      <trkpt lat="45.53074" lon="6.63385">
        <ele>1497.15</ele>
        <time>2016-03-23T09:49:41Z</time>
      </trkpt>
      <trkpt lat="45.53086" lon="6.63417">
        <ele>1494.8</ele>
        <time>2016-03-23T09:49:43Z</time>
      </trkpt>
      <trkpt lat="45.53097" lon="6.63448">
        <ele>1491.82</ele>
        <time>2016-03-23T09:49:45Z</time>
      </trkpt>
      <trkpt lat="45.53109" lon="6.6347">
        <ele>1491.59</ele>
        <time>2016-03-23T09:49:46Z</time>
      </trkpt>
      <trkpt lat="45.53116" lon="6.63502">
        <ele>1490.57</ele>
        <time>2016-03-23T09:49:48Z</time>
      </trkpt>
      <trkpt lat="45.53121" lon="6.6353">
        <ele>1489.57</ele>
        <time>2016-03-23T09:49:50Z</time>
      </trkpt>
      <trkpt lat="45.53133" lon="6.63553">
        <ele>1485.05</ele>
        <time>2016-03-23T09:49:52Z</time>
      </trkpt>
      <trkpt lat="45.5314" lon="6.63584">
        <ele>1483.83</ele>
        <time>2016-03-23T09:49:55Z</time>
      </trkpt>
      <trkpt lat="45.53149" lon="6.63616">
        <ele>1479.62</ele>
        <time>2016-03-23T09:49:59Z</time>
      </trkpt>
      <trkpt lat="45.5316" lon="6.63647">
        <ele>1478.73</ele>
        <time>2016-03-23T09:50:02Z</time>
      </trkpt>
      <trkpt lat="45.53176" lon="6.63668">
        <ele>1472.1</ele>
        <time>2016-03-23T09:50:05Z</time>
      </trkpt>
      <trkpt lat="45.53189" lon="6.63696">
        <ele>1466.79</ele>
        <time>2016-03-23T09:50:09Z</time>
      </trkpt>
      <trkpt lat="45.53191" lon="6.63727">
        <ele>1465.73</ele>
        <time>2016-03-23T09:50:12Z</time>
      </trkpt>
      <trkpt lat="45.53196" lon="6.63753">
        <ele>1464.76</ele>
        <time>2016-03-23T09:50:15Z</time>
      </trkpt>
      <trkpt lat="45.53198" lon="6.6379">
        <ele>1464.53</ele>
        <time>2016-03-23T09:50:18Z</time>
      </trkpt>
      <trkpt lat="45.5321" lon="6.63814">
        <ele>1455.03</ele>
        <time>2016-03-23T09:50:21Z</time>
      </trkpt>
      <trkpt lat="45.53213" lon="6.63844">
        <ele>1452.65</ele>
        <time>2016-03-23T09:50:25Z</time>
      </trkpt>
      <trkpt lat="45.53231" lon="6.63854">
        <ele>1450.58</ele>
        <time>2016-03-23T09:50:28Z</time>
      </trkpt>
      <trkpt lat="45.53251" lon="6.63847">
        <ele>1446.74</ele>
        <time>2016-03-23T09:50:32Z</time>
      </trkpt>
      <trkpt lat="45.53271" lon="6.63855">
        <ele>1443.98</ele>
        <time>2016-03-23T09:50:34Z</time>
      </trkpt>
      <trkpt lat="45.5329" lon="6.63851">
        <ele>1438.06</ele>
        <time>2016-03-23T09:50:37Z</time>
      </trkpt>
      <trkpt lat="45.53312" lon="6.63846">
        <ele>1430.27</ele>
        <time>2016-03-23T09:50:40Z</time>
      </trkpt>
      <trkpt lat="45.53334" lon="6.63845">
        <ele>1421.41</ele>
        <time>2016-03-23T09:50:43Z</time>
      </trkpt>
      <trkpt lat="45.53355" lon="6.63842">
        <ele>1416.09</ele>
        <time>2016-03-23T09:50:45Z</time>
      </trkpt>
      <trkpt lat="45.53371" lon="6.63826">
        <ele>1412.19</ele>
        <time>2016-03-23T09:50:47Z</time>
      </trkpt>
      <trkpt lat="45.53391" lon="6.63818">
        <ele>1406.8</ele>
        <time>2016-03-23T09:50:50Z</time>
      </trkpt>
      <trkpt lat="45.53412" lon="6.63793">
        <ele>1401.99</ele>
        <time>2016-03-23T09:50:53Z</time>
      </trkpt>
      <trkpt lat="45.53436" lon="6.63787">
        <ele>1395.07</ele>
        <time>2016-03-23T09:50:56Z</time>
      </trkpt>
      <trkpt lat="45.53451" lon="6.63769">
        <ele>1392.63</ele>
        <time>2016-03-23T09:50:58Z</time>
      </trkpt>
      <trkpt lat="45.53473" lon="6.63749">
        <ele>1382.29</ele>
        <time>2016-03-23T09:51:01Z</time>
      </trkpt>
      <trkpt lat="45.53477" lon="6.63719">
        <ele>1375.86</ele>
        <time>2016-03-23T09:51:05Z</time>
      </trkpt>
      <trkpt lat="45.53458" lon="6.63722">
        <ele>1357.57</ele>
        <time>2016-03-23T09:53:35Z</time>
      </trkpt>
      <trkpt lat="45.5344" lon="6.63732">
        <ele>1350.1</ele>
        <time>2016-03-23T09:53:41Z</time>
      </trkpt>
      <trkpt lat="45.53421" lon="6.63748">
        <ele>1352.28</ele>
        <time>2016-03-23T09:53:45Z</time>
      </trkpt>
      <trkpt lat="45.53401" lon="6.6376">
        <ele>1365.82</ele>
        <time>2016-03-23T09:53:50Z</time>
      </trkpt>
      <trkpt lat="45.53383" lon="6.63774">
        <ele>1376.19</ele>
        <time>2016-03-23T09:53:55Z</time>
      </trkpt>
      <trkpt lat="45.53364" lon="6.63788">
        <ele>1386.82</ele>
        <time>2016-03-23T09:54:00Z</time>
      </trkpt>
      <trkpt lat="45.53345" lon="6.638">
        <ele>1397.39</ele>
        <time>2016-03-23T09:54:05Z</time>
      </trkpt>
      <trkpt lat="45.53328" lon="6.63812">
        <ele>1402.25</ele>
        <time>2016-03-23T09:54:09Z</time>
      </trkpt>
      <trkpt lat="45.53309" lon="6.63825">
        <ele>1408.28</ele>
        <time>2016-03-23T09:54:14Z</time>
      </trkpt>
      <trkpt lat="45.53292" lon="6.63836">
        <ele>1411.28</ele>
        <time>2016-03-23T09:54:18Z</time>
      </trkpt>
      <trkpt lat="45.53274" lon="6.63852">
        <ele>1418.24</ele>
        <time>2016-03-23T09:54:23Z</time>
      </trkpt>
      <trkpt lat="45.53257" lon="6.63864">
        <ele>1423.04</ele>
        <time>2016-03-23T09:54:27Z</time>
      </trkpt>
      <trkpt lat="45.53237" lon="6.63876">
        <ele>1430</ele>
        <time>2016-03-23T09:54:32Z</time>
      </trkpt>
      <trkpt lat="45.53219" lon="6.63887">
        <ele>1435.67</ele>
        <time>2016-03-23T09:54:37Z</time>
      </trkpt>
      <trkpt lat="45.53199" lon="6.63903">
        <ele>1441.24</ele>
        <time>2016-03-23T09:54:42Z</time>
      </trkpt>
      <trkpt lat="45.5318" lon="6.63917">
        <ele>1449.24</ele>
        <time>2016-03-23T09:54:47Z</time>
      </trkpt>
      <trkpt lat="45.52491" lon="6.6439">
        <ele>1667.13</ele>
        <time>2016-03-23T09:57:47Z</time>
      </trkpt>
      <trkpt lat="45.52478" lon="6.64415">
        <ele>1725.23</ele>
        <time>2016-03-23T09:57:51Z</time>
      </trkpt>
      <trkpt lat="45.52459" lon="6.64421">
        <ele>1730.79</ele>
        <time>2016-03-23T09:57:56Z</time>
      </trkpt>
      <trkpt lat="45.52442" lon="6.64429">
        <ele>1729.47</ele>
        <time>2016-03-23T09:58:00Z</time>
      </trkpt>
      <trkpt lat="45.52422" lon="6.64445">
        <ele>1734.07</ele>
        <time>2016-03-23T09:58:05Z</time>
      </trkpt>
      <trkpt lat="45.52406" lon="6.64457">
        <ele>1738.27</ele>
        <time>2016-03-23T09:58:09Z</time>
      </trkpt>
      <trkpt lat="45.52389" lon="6.64468">
        <ele>1744.2</ele>
        <time>2016-03-23T09:58:13Z</time>
      </trkpt>
      <trkpt lat="45.52372" lon="6.64479">
        <ele>1750.36</ele>
        <time>2016-03-23T09:58:17Z</time>
      </trkpt>
      <trkpt lat="45.52354" lon="6.64496">
        <ele>1757.07</ele>
        <time>2016-03-23T09:58:22Z</time>
      </trkpt>
      <trkpt lat="45.52336" lon="6.6451">
        <ele>1764.24</ele>
        <time>2016-03-23T09:58:27Z</time>
      </trkpt>
      <trkpt lat="45.52317" lon="6.64524">
        <ele>1770.08</ele>
        <time>2016-03-23T09:58:32Z</time>
      </trkpt>
      <trkpt lat="45.52298" lon="6.64538">
        <ele>1775.28</ele>
        <time>2016-03-23T09:58:37Z</time>
      </trkpt>
      <trkpt lat="45.5228" lon="6.64551">
        <ele>1782.31</ele>
        <time>2016-03-23T09:58:42Z</time>
      </trkpt>
      <trkpt lat="45.5226" lon="6.64563">
        <ele>1789.84</ele>
        <time>2016-03-23T09:58:47Z</time>
      </trkpt>
      <trkpt lat="45.52242" lon="6.64578">
        <ele>1798.11</ele>
        <time>2016-03-23T09:58:52Z</time>
      </trkpt>
      <trkpt lat="45.52222" lon="6.64592">
        <ele>1809.02</ele>
        <time>2016-03-23T09:58:57Z</time>
      </trkpt>
      <trkpt lat="45.52205" lon="6.64606">
        <ele>1819.02</ele>
        <time>2016-03-23T09:59:02Z</time>
      </trkpt>
      <trkpt lat="45.52185" lon="6.6462">
        <ele>1828.06</ele>
        <time>2016-03-23T09:59:07Z</time>
      </trkpt>
      <trkpt lat="45.52166" lon="6.64634">
        <ele>1838.06</ele>
        <time>2016-03-23T09:59:12Z</time>
      </trkpt>
      <trkpt lat="45.52148" lon="6.64647">
        <ele>1847.68</ele>
        <time>2016-03-23T09:59:17Z</time>
      </trkpt>
      <trkpt lat="45.52129" lon="6.64659">
        <ele>1861.78</ele>
        <time>2016-03-23T09:59:22Z</time>
      </trkpt>
      <trkpt lat="45.52111" lon="6.64672">
        <ele>1875.79</ele>
        <time>2016-03-23T09:59:27Z</time>
      </trkpt>
      <trkpt lat="45.52095" lon="6.64685">
        <ele>1885.23</ele>
        <time>2016-03-23T09:59:32Z</time>
      </trkpt>
      <trkpt lat="45.52076" lon="6.64697">
        <ele>1895.67</ele>
        <time>2016-03-23T09:59:37Z</time>
      </trkpt>
      <trkpt lat="45.52057" lon="6.64709">
        <ele>1908.79</ele>
        <time>2016-03-23T09:59:42Z</time>
      </trkpt>
      <trkpt lat="45.5204" lon="6.64721">
        <ele>1920.83</ele>
        <time>2016-03-23T09:59:47Z</time>
      </trkpt>
      <trkpt lat="45.52023" lon="6.64733">
        <ele>1932</ele>
        <time>2016-03-23T09:59:52Z</time>
      </trkpt>
      <trkpt lat="45.52006" lon="6.64745">
        <ele>1946.02</ele>
        <time>2016-03-23T09:59:57Z</time>
      </trkpt>
      <trkpt lat="45.51987" lon="6.64758">
        <ele>1955.46</ele>
        <time>2016-03-23T10:00:02Z</time>
      </trkpt>
      <trkpt lat="45.5197" lon="6.64771">
        <ele>1957.29</ele>
        <time>2016-03-23T10:00:06Z</time>
      </trkpt>
      <trkpt lat="45.51953" lon="6.64781">
        <ele>1959.32</ele>
        <time>2016-03-23T10:00:10Z</time>
      </trkpt>
      <trkpt lat="45.51933" lon="6.64796">
        <ele>1963.53</ele>
        <time>2016-03-23T10:00:15Z</time>
      </trkpt>
      <trkpt lat="45.51914" lon="6.6481">
        <ele>1963.58</ele>
        <time>2016-03-23T10:00:20Z</time>
      </trkpt>
      <trkpt lat="45.51895" lon="6.64825">
        <ele>1964.52</ele>
        <time>2016-03-23T10:00:25Z</time>
      </trkpt>
      <trkpt lat="45.51876" lon="6.64838">
        <ele>1962.58</ele>
        <time>2016-03-23T10:00:30Z</time>
      </trkpt>
      <trkpt lat="45.51856" lon="6.64852">
        <ele>1960.54</ele>
        <time>2016-03-23T10:00:35Z</time>
      </trkpt>
      <trkpt lat="45.51836" lon="6.64866">
        <ele>1961.53</ele>
        <time>2016-03-23T10:00:40Z</time>
      </trkpt>
      <trkpt lat="45.5182" lon="6.64878">
        <ele>1962.49</ele>
        <time>2016-03-23T10:00:44Z</time>
      </trkpt>
      <trkpt lat="45.51804" lon="6.6489">
        <ele>1963.53</ele>
        <time>2016-03-23T10:00:48Z</time>
      </trkpt>
      <trkpt lat="45.51784" lon="6.64905">
        <ele>1963.49</ele>
        <time>2016-03-23T10:00:53Z</time>
      </trkpt>
      <trkpt lat="45.51764" lon="6.64919">
        <ele>1964.5</ele>
        <time>2016-03-23T10:00:58Z</time>
      </trkpt>
      <trkpt lat="45.51744" lon="6.64933">
        <ele>1967.48</ele>
        <time>2016-03-23T10:01:03Z</time>
      </trkpt>
      <trkpt lat="45.51725" lon="6.64947">
        <ele>1968.49</ele>
        <time>2016-03-23T10:01:08Z</time>
      </trkpt>
      <trkpt lat="45.51708" lon="6.64958">
        <ele>1969.52</ele>
        <time>2016-03-23T10:01:12Z</time>
      </trkpt>
      <trkpt lat="45.51692" lon="6.6497">
        <ele>1970.53</ele>
        <time>2016-03-23T10:01:16Z</time>
      </trkpt>
      <trkpt lat="45.51709" lon="6.64981">
        <ele>1970.17</ele>
        <time>2016-03-23T10:02:44Z</time>
      </trkpt>
      <trkpt lat="45.51733" lon="6.64956">
        <ele>1968.58</ele>
        <time>2016-03-23T10:02:48Z</time>
      </trkpt>
      <trkpt lat="45.51751" lon="6.64929">
        <ele>1965.97</ele>
        <time>2016-03-23T10:02:50Z</time>
      </trkpt>
      <trkpt lat="45.51764" lon="6.64906">
        <ele>1965.55</ele>
        <time>2016-03-23T10:02:52Z</time>
      </trkpt>
      <trkpt lat="45.51768" lon="6.64874">
        <ele>1964.7</ele>
        <time>2016-03-23T10:02:55Z</time>
      </trkpt>
      <trkpt lat="45.51777" lon="6.64849">
        <ele>1962.61</ele>
        <time>2016-03-23T10:02:58Z</time>
      </trkpt>
      <trkpt lat="45.51784" lon="6.64821">
        <ele>1958.01</ele>
        <time>2016-03-23T10:03:02Z</time>
      </trkpt>
      <trkpt lat="45.51794" lon="6.64799">
        <ele>1955.93</ele>
        <time>2016-03-23T10:03:05Z</time>
      </trkpt>
      <trkpt lat="45.51812" lon="6.64774">
        <ele>1955.53</ele>
        <time>2016-03-23T10:03:08Z</time>
      </trkpt>
      <trkpt lat="45.51827" lon="6.64748">
        <ele>1951.63</ele>
        <time>2016-03-23T10:03:11Z</time>
      </trkpt>
      <trkpt lat="45.51839" lon="6.64727">
        <ele>1948.97</ele>
        <time>2016-03-23T10:03:13Z</time>
      </trkpt>
      <trkpt lat="45.51845" lon="6.64692">
        <ele>1951.09</ele>
        <time>2016-03-23T10:03:16Z</time>
      </trkpt>
      <trkpt lat="45.51848" lon="6.64659">
        <ele>1948.65</ele>
        <time>2016-03-23T10:03:19Z</time>
      </trkpt>
      <trkpt lat="45.51852" lon="6.64633">
        <ele>1946.94</ele>
        <time>2016-03-23T10:03:21Z</time>
      </trkpt>
      <trkpt lat="45.51858" lon="6.64604">
        <ele>1945.59</ele>
        <time>2016-03-23T10:03:23Z</time>
      </trkpt>
      <trkpt lat="45.51864" lon="6.6458">
        <ele>1942.65</ele>
        <time>2016-03-23T10:03:25Z</time>
      </trkpt>
      <trkpt lat="45.51882" lon="6.64552">
        <ele>1938.15</ele>
        <time>2016-03-23T10:03:28Z</time>
      </trkpt>
      <trkpt lat="45.51905" lon="6.64545">
        <ele>1935.96</ele>
        <time>2016-03-23T10:03:30Z</time>
      </trkpt>
      <trkpt lat="45.51926" lon="6.64539">
        <ele>1934.59</ele>
        <time>2016-03-23T10:03:32Z</time>
      </trkpt>
      <trkpt lat="45.51945" lon="6.64533">
        <ele>1931.17</ele>
        <time>2016-03-23T10:03:34Z</time>
      </trkpt>
      <trkpt lat="45.51973" lon="6.64518">
        <ele>1927.18</ele>
        <time>2016-03-23T10:03:37Z</time>
      </trkpt>
      <trkpt lat="45.51995" lon="6.64511">
        <ele>1925.76</ele>
        <time>2016-03-23T10:03:39Z</time>
      </trkpt>
      <trkpt lat="45.52021" lon="6.64513">
        <ele>1920</ele>
        <time>2016-03-23T10:03:42Z</time>
      </trkpt>
      <trkpt lat="45.52043" lon="6.64498">
        <ele>1916.78</ele>
        <time>2016-03-23T10:03:45Z</time>
      </trkpt>
      <trkpt lat="45.52046" lon="6.64471">
        <ele>1911.73</ele>
        <time>2016-03-23T10:03:49Z</time>
      </trkpt>
      <trkpt lat="45.52059" lon="6.64447">
        <ele>1903.69</ele>
        <time>2016-03-23T10:03:54Z</time>
      </trkpt>
      <trkpt lat="45.52073" lon="6.6443">
        <ele>1903.54</ele>
        <time>2016-03-23T10:03:56Z</time>
      </trkpt>
      <trkpt lat="45.52093" lon="6.64413">
        <ele>1889.59</ele>
        <time>2016-03-23T10:04:01Z</time>
      </trkpt>
      <trkpt lat="45.52114" lon="6.644">
        <ele>1880.09</ele>
        <time>2016-03-23T10:04:03Z</time>
      </trkpt>
      <trkpt lat="45.52135" lon="6.64377">
        <ele>1868.34</ele>
        <time>2016-03-23T10:04:06Z</time>
      </trkpt>
      <trkpt lat="45.52156" lon="6.64358">
        <ele>1865.16</ele>
        <time>2016-03-23T10:04:08Z</time>
      </trkpt>
      <trkpt lat="45.52172" lon="6.64345">
        <ele>1860.56</ele>
        <time>2016-03-23T10:04:10Z</time>
      </trkpt>
      <trkpt lat="45.52185" lon="6.64313">
        <ele>1846.13</ele>
        <time>2016-03-23T10:04:13Z</time>
      </trkpt>
      <trkpt lat="45.52207" lon="6.64307">
        <ele>1842.68</ele>
        <time>2016-03-23T10:04:15Z</time>
      </trkpt>
      <trkpt lat="45.52232" lon="6.64299">
        <ele>1837.19</ele>
        <time>2016-03-23T10:04:18Z</time>
      </trkpt>
      <trkpt lat="45.52254" lon="6.6429">
        <ele>1834.96</ele>
        <time>2016-03-23T10:04:20Z</time>
      </trkpt>
      <trkpt lat="45.52274" lon="6.64283">
        <ele>1829.27</ele>
        <time>2016-03-23T10:04:22Z</time>
      </trkpt>
      <trkpt lat="45.52296" lon="6.64274">
        <ele>1824.88</ele>
        <time>2016-03-23T10:04:24Z</time>
      </trkpt>
      <trkpt lat="45.52317" lon="6.64262">
        <ele>1821.03</ele>
        <time>2016-03-23T10:04:26Z</time>
      </trkpt>
      <trkpt lat="45.52344" lon="6.64244">
        <ele>1815.83</ele>
        <time>2016-03-23T10:04:29Z</time>
      </trkpt>
      <trkpt lat="45.52359" lon="6.64227">
        <ele>1814.58</ele>
        <time>2016-03-23T10:04:31Z</time>
      </trkpt>
      <trkpt lat="45.52373" lon="6.64207">
        <ele>1816.45</ele>
        <time>2016-03-23T10:04:33Z</time>
      </trkpt>
      <trkpt lat="45.52388" lon="6.64186">
        <ele>1815.73</ele>
        <time>2016-03-23T10:04:35Z</time>
      </trkpt>
      <trkpt lat="45.52403" lon="6.6417">
        <ele>1814.74</ele>
        <time>2016-03-23T10:04:37Z</time>
      </trkpt>
      <trkpt lat="45.52397" lon="6.64196">
        <ele>1799.83</ele>
        <time>2016-03-23T10:04:42Z</time>
      </trkpt>
      <trkpt lat="45.52399" lon="6.64222">
        <ele>1794.86</ele>
        <time>2016-03-23T10:04:45Z</time>
      </trkpt>
      <trkpt lat="45.52418" lon="6.64248">
        <ele>1787.43</ele>
        <time>2016-03-23T10:04:48Z</time>
      </trkpt>
      <trkpt lat="45.52434" lon="6.64262">
        <ele>1781.91</ele>
        <time>2016-03-23T10:04:49Z</time>
      </trkpt>
      <trkpt lat="45.52452" lon="6.64269">
        <ele>1769.09</ele>
        <time>2016-03-23T10:04:52Z</time>
      </trkpt>
      <trkpt lat="45.52472" lon="6.64286">
        <ele>1762.81</ele>
        <time>2016-03-23T10:04:55Z</time>
      </trkpt>
      <trkpt lat="45.5249" lon="6.64319">
        <ele>1759.75</ele>
        <time>2016-03-23T10:04:58Z</time>
      </trkpt>
      <trkpt lat="45.52503" lon="6.64357">
        <ele>1759.53</ele>
        <time>2016-03-23T10:05:01Z</time>
      </trkpt>
      <trkpt lat="45.52507" lon="6.64392">
        <ele>1760.33</ele>
        <time>2016-03-23T10:05:03Z</time>
      </trkpt>
      <trkpt lat="45.52518" lon="6.64413">
        <ele>1755.88</ele>
        <time>2016-03-23T10:05:05Z</time>
      </trkpt>
      <trkpt lat="45.52523" lon="6.64442">
        <ele>1752.99</ele>
        <time>2016-03-23T10:05:07Z</time>
      </trkpt>
      <trkpt lat="45.52527" lon="6.64482">
        <ele>1750.65</ele>
        <time>2016-03-23T10:05:10Z</time>
      </trkpt>
      <trkpt lat="45.52536" lon="6.6451">
        <ele>1747.82</ele>
        <time>2016-03-23T10:05:12Z</time>
      </trkpt>
      <trkpt lat="45.52538" lon="6.64545">
        <ele>1744.98</ele>
        <time>2016-03-23T10:05:14Z</time>
      </trkpt>
      <trkpt lat="45.52554" lon="6.64564">
        <ele>1737.99</ele>
        <time>2016-03-23T10:05:16Z</time>
      </trkpt>
      <trkpt lat="45.52572" lon="6.64552">
        <ele>1724.29</ele>
        <time>2016-03-23T10:05:19Z</time>
      </trkpt>
      <trkpt lat="45.52592" lon="6.64537">
        <ele>1712.29</ele>
        <time>2016-03-23T10:05:23Z</time>
      </trkpt>
      <trkpt lat="45.52615" lon="6.64531">
        <ele>1694.42</ele>
        <time>2016-03-23T10:05:31Z</time>
      </trkpt>
      <trkpt lat="45.52633" lon="6.64519">
        <ele>1689.83</ele>
        <time>2016-03-23T10:05:34Z</time>
      </trkpt>
      <trkpt lat="45.52653" lon="6.64521">
        <ele>1680.64</ele>
        <time>2016-03-23T10:05:39Z</time>
      </trkpt>
      <trkpt lat="45.52668" lon="6.64506">
        <ele>1678.94</ele>
        <time>2016-03-23T10:05:41Z</time>
      </trkpt>
      <trkpt lat="45.5268" lon="6.6453">
        <ele>1669.98</ele>
        <time>2016-03-23T10:05:46Z</time>
      </trkpt>
      <trkpt lat="45.52692" lon="6.64558">
        <ele>1664.99</ele>
        <time>2016-03-23T10:05:49Z</time>
      </trkpt>
      <trkpt lat="45.52692" lon="6.64584">
        <ele>1657.78</ele>
        <time>2016-03-23T10:05:52Z</time>
      </trkpt>
      <trkpt lat="45.52703" lon="6.64618">
        <ele>1652</ele>
        <time>2016-03-23T10:05:55Z</time>
      </trkpt>
      <trkpt lat="45.52719" lon="6.64643">
        <ele>1646.11</ele>
        <time>2016-03-23T10:05:57Z</time>
      </trkpt>
      <trkpt lat="45.52737" lon="6.64657">
        <ele>1639.9</ele>
        <time>2016-03-23T10:06:00Z</time>
      </trkpt>
      <trkpt lat="45.5275" lon="6.64684">
        <ele>1632.11</ele>
        <time>2016-03-23T10:06:03Z</time>
      </trkpt>
      <trkpt lat="45.52755" lon="6.64713">
        <ele>1625.47</ele>
        <time>2016-03-23T10:06:05Z</time>
      </trkpt>
      <trkpt lat="45.52766" lon="6.64742">
        <ele>1617.24</ele>
        <time>2016-03-23T10:06:08Z</time>
      </trkpt>
      <trkpt lat="45.52786" lon="6.64743">
        <ele>1601.84</ele>
        <time>2016-03-23T10:06:12Z</time>
      </trkpt>
      <trkpt lat="45.52808" lon="6.64743">
        <ele>1587.81</ele>
        <time>2016-03-23T10:06:17Z</time>
      </trkpt>
      <trkpt lat="45.52826" lon="6.64758">
        <ele>1582.98</ele>
        <time>2016-03-23T10:06:21Z</time>
      </trkpt>
      <trkpt lat="45.52836" lon="6.64784">
        <ele>1579.83</ele>
        <time>2016-03-23T10:06:23Z</time>
      </trkpt>
      <trkpt lat="45.5285" lon="6.64813">
        <ele>1576.18</ele>
        <time>2016-03-23T10:06:25Z</time>
      </trkpt>
      <trkpt lat="45.52869" lon="6.64831">
        <ele>1558.74</ele>
        <time>2016-03-23T10:06:29Z</time>
      </trkpt>
      <trkpt lat="45.52889" lon="6.64843">
        <ele>1546.76</ele>
        <time>2016-03-23T10:06:32Z</time>
      </trkpt>
      <trkpt lat="45.52907" lon="6.64836">
        <ele>1537.1</ele>
        <time>2016-03-23T10:06:34Z</time>
      </trkpt>
      <trkpt lat="45.52933" lon="6.64818">
        <ele>1523.38</ele>
        <time>2016-03-23T10:06:37Z</time>
      </trkpt>
      <trkpt lat="45.52956" lon="6.64803">
        <ele>1518.25</ele>
        <time>2016-03-23T10:06:39Z</time>
      </trkpt>
      <trkpt lat="45.52971" lon="6.64784">
        <ele>1514.04</ele>
        <time>2016-03-23T10:06:41Z</time>
      </trkpt>
      <trkpt lat="45.52989" lon="6.64763">
        <ele>1512.75</ele>
        <time>2016-03-23T10:06:43Z</time>
      </trkpt>
      <trkpt lat="45.53005" lon="6.64739">
        <ele>1510.78</ele>
        <time>2016-03-23T10:06:45Z</time>
      </trkpt>
      <trkpt lat="45.53022" lon="6.64716">
        <ele>1510.54</ele>
        <time>2016-03-23T10:06:47Z</time>
      </trkpt>
      <trkpt lat="45.53039" lon="6.64697">
        <ele>1509.89</ele>
        <time>2016-03-23T10:06:49Z</time>
      </trkpt>
      <trkpt lat="45.53047" lon="6.64674">
        <ele>1500</ele>
        <time>2016-03-23T10:06:52Z</time>
      </trkpt>
      <trkpt lat="45.53064" lon="6.64656">
        <ele>1497.79</ele>
        <time>2016-03-23T10:06:54Z</time>
      </trkpt>
      <trkpt lat="45.53078" lon="6.64624">
        <ele>1492.41</ele>
        <time>2016-03-23T10:06:57Z</time>
      </trkpt>
      <trkpt lat="45.53095" lon="6.64592">
        <ele>1491.7</ele>
        <time>2016-03-23T10:07:00Z</time>
      </trkpt>
      <trkpt lat="45.53108" lon="6.64569">
        <ele>1488.82</ele>
        <time>2016-03-23T10:07:02Z</time>
      </trkpt>
      <trkpt lat="45.53112" lon="6.64534">
        <ele>1482.93</ele>
        <time>2016-03-23T10:07:05Z</time>
      </trkpt>
      <trkpt lat="45.53131" lon="6.64507">
        <ele>1480.74</ele>
        <time>2016-03-23T10:07:08Z</time>
      </trkpt>
      <trkpt lat="45.53155" lon="6.64493">
        <ele>1477.78</ele>
        <time>2016-03-23T10:07:11Z</time>
      </trkpt>
      <trkpt lat="45.53174" lon="6.64478">
        <ele>1472.6</ele>
        <time>2016-03-23T10:07:14Z</time>
      </trkpt>
      <trkpt lat="45.53191" lon="6.64461">
        <ele>1469.94</ele>
        <time>2016-03-23T10:07:17Z</time>
      </trkpt>
      <trkpt lat="45.53208" lon="6.64434">
        <ele>1470.49</ele>
        <time>2016-03-23T10:07:20Z</time>
      </trkpt>
      <trkpt lat="45.53209" lon="6.64406">
        <ele>1461.92</ele>
        <time>2016-03-23T10:07:23Z</time>
      </trkpt>
      <trkpt lat="45.5322" lon="6.64384">
        <ele>1462.34</ele>
        <time>2016-03-23T10:07:27Z</time>
      </trkpt>
      <trkpt lat="45.53232" lon="6.64357">
        <ele>1459.81</ele>
        <time>2016-03-23T10:07:30Z</time>
      </trkpt>
      <trkpt lat="45.53246" lon="6.64334">
        <ele>1457.55</ele>
        <time>2016-03-23T10:07:33Z</time>
      </trkpt>
      <trkpt lat="45.53268" lon="6.64318">
        <ele>1455.77</ele>
        <time>2016-03-23T10:07:35Z</time>
      </trkpt>
      <trkpt lat="45.53285" lon="6.64289">
        <ele>1452.78</ele>
        <time>2016-03-23T10:07:38Z</time>
      </trkpt>
      <trkpt lat="45.53296" lon="6.64269">
        <ele>1453.34</ele>
        <time>2016-03-23T10:07:40Z</time>
      </trkpt>
      <trkpt lat="45.53296" lon="6.64237">
        <ele>1451.74</ele>
        <time>2016-03-23T10:07:43Z</time>
      </trkpt>
      <trkpt lat="45.53287" lon="6.64212">
        <ele>1445.22</ele>
        <time>2016-03-23T10:07:48Z</time>
      </trkpt>
      <trkpt lat="45.5328" lon="6.64188">
        <ele>1427.78</ele>
        <time>2016-03-23T10:07:57Z</time>
      </trkpt>
      <trkpt lat="45.53285" lon="6.64161">
        <ele>1422.74</ele>
        <time>2016-03-23T10:08:04Z</time>
      </trkpt>
      <trkpt lat="45.53289" lon="6.64136">
        <ele>1420.77</ele>
        <time>2016-03-23T10:08:09Z</time>
      </trkpt>
      <trkpt lat="45.53293" lon="6.6411">
        <ele>1419.54</ele>
        <time>2016-03-23T10:08:13Z</time>
      </trkpt>
      <trkpt lat="45.53295" lon="6.64082">
        <ele>1421.29</ele>
        <time>2016-03-23T10:08:17Z</time>
      </trkpt>
      <trkpt lat="45.533" lon="6.64056">
        <ele>1418.38</ele>
        <time>2016-03-23T10:08:22Z</time>
      </trkpt>
      <trkpt lat="45.53295" lon="6.64027">
        <ele>1409.74</ele>
        <time>2016-03-23T10:08:29Z</time>
      </trkpt>
      <trkpt lat="45.53309" lon="6.63999">
        <ele>1411.33</ele>
        <time>2016-03-23T10:08:34Z</time>
      </trkpt>
      <trkpt lat="45.53324" lon="6.6398">
        <ele>1408.78</ele>
        <time>2016-03-23T10:08:37Z</time>
      </trkpt>
      <trkpt lat="45.53332" lon="6.63953">
        <ele>1405.59</ele>
        <time>2016-03-23T10:08:41Z</time>
      </trkpt>
      <trkpt lat="45.53338" lon="6.63923">
        <ele>1404.42</ele>
        <time>2016-03-23T10:08:46Z</time>
      </trkpt>
      <trkpt lat="45.53337" lon="6.63896">
        <ele>1402.54</ele>
        <time>2016-03-23T10:08:51Z</time>
      </trkpt>
      <trkpt lat="45.53344" lon="6.63871">
        <ele>1398.78</ele>
        <time>2016-03-23T10:08:56Z</time>
      </trkpt>
      <trkpt lat="45.53364" lon="6.63852">
        <ele>1395.58</ele>
        <time>2016-03-23T10:09:00Z</time>
      </trkpt>
      <trkpt lat="45.53383" lon="6.63837">
        <ele>1391.37</ele>
        <time>2016-03-23T10:09:03Z</time>
      </trkpt>
      <trkpt lat="45.53397" lon="6.63821">
        <ele>1388.8</ele>
        <time>2016-03-23T10:09:05Z</time>
      </trkpt>
      <trkpt lat="45.53416" lon="6.63805">
        <ele>1387.57</ele>
        <time>2016-03-23T10:09:08Z</time>
      </trkpt>
      <trkpt lat="45.53434" lon="6.63795">
        <ele>1383.05</ele>
        <time>2016-03-23T10:09:11Z</time>
      </trkpt>
      <trkpt lat="45.53452" lon="6.63787">
        <ele>1380.63</ele>
        <time>2016-03-23T10:09:13Z</time>
      </trkpt>
      <trkpt lat="45.53463" lon="6.63764">
        <ele>1375.8</ele>
        <time>2016-03-23T10:09:16Z</time>
      </trkpt>
      <trkpt lat="45.53484" lon="6.63752">
        <ele>1374.58</ele>
        <time>2016-03-23T10:09:18Z</time>
      </trkpt>
      <trkpt lat="45.53493" lon="6.63729">
        <ele>1373.73</ele>
        <time>2016-03-23T10:09:21Z</time>
      </trkpt>
      <trkpt lat="45.53471" lon="6.63712">
        <ele>1365.42</ele>
        <time>2016-03-23T10:09:25Z</time>
      </trkpt>
      <trkpt lat="45.53455" lon="6.63724">
        <ele>1355.61</ele>
        <time>2016-03-23T10:11:15Z</time>
      </trkpt>
      <trkpt lat="45.53436" lon="6.63737">
        <ele>1357.3</ele>
        <time>2016-03-23T10:11:21Z</time>
      </trkpt>
      <trkpt lat="45.53419" lon="6.63748">
        <ele>1362.13</ele>
        <time>2016-03-23T10:11:25Z</time>
      </trkpt>
      <trkpt lat="45.53401" lon="6.6376">
        <ele>1367.24</ele>
        <time>2016-03-23T10:11:29Z</time>
      </trkpt>
      <trkpt lat="45.53384" lon="6.63772">
        <ele>1377.22</ele>
        <time>2016-03-23T10:11:34Z</time>
      </trkpt>
      <trkpt lat="45.53364" lon="6.63783">
        <ele>1386</ele>
        <time>2016-03-23T10:11:39Z</time>
      </trkpt>
      <trkpt lat="45.53348" lon="6.63797">
        <ele>1395.28</ele>
        <time>2016-03-23T10:11:44Z</time>
      </trkpt>
      <trkpt lat="45.53329" lon="6.63808">
        <ele>1401.09</ele>
        <time>2016-03-23T10:11:48Z</time>
      </trkpt>
      <trkpt lat="45.53311" lon="6.63821">
        <ele>1405.29</ele>
        <time>2016-03-23T10:11:53Z</time>
      </trkpt>
      <trkpt lat="45.53294" lon="6.63835">
        <ele>1411.32</ele>
        <time>2016-03-23T10:11:58Z</time>
      </trkpt>
      <trkpt lat="45.53277" lon="6.63847">
        <ele>1418.24</ele>
        <time>2016-03-23T10:12:02Z</time>
      </trkpt>
      <trkpt lat="45.53262" lon="6.63863">
        <ele>1422.52</ele>
        <time>2016-03-23T10:12:07Z</time>
      </trkpt>
      <trkpt lat="45.53244" lon="6.63873">
        <ele>1430.23</ele>
        <time>2016-03-23T10:12:11Z</time>
      </trkpt>
      <trkpt lat="45.53224" lon="6.63885">
        <ele>1436.28</ele>
        <time>2016-03-23T10:12:16Z</time>
      </trkpt>
      <trkpt lat="45.53207" lon="6.63896">
        <ele>1440.28</ele>
        <time>2016-03-23T10:12:20Z</time>
      </trkpt>
      <trkpt lat="45.53187" lon="6.63909">
        <ele>1446.88</ele>
        <time>2016-03-23T10:12:25Z</time>
      </trkpt>
      <trkpt lat="45.5317" lon="6.63925">
        <ele>1453.25</ele>
        <time>2016-03-23T10:12:30Z</time>
      </trkpt>
      <trkpt lat="45.53152" lon="6.63935">
        <ele>1457.27</ele>
        <time>2016-03-23T10:12:34Z</time>
      </trkpt>
      <trkpt lat="45.53133" lon="6.63948">
        <ele>1465.28</ele>
        <time>2016-03-23T10:12:39Z</time>
      </trkpt>
      <trkpt lat="45.53116" lon="6.63958">
        <ele>1468.29</ele>
        <time>2016-03-23T10:12:43Z</time>
      </trkpt>
      <trkpt lat="45.53099" lon="6.63969">
        <ele>1474.99</ele>
        <time>2016-03-23T10:12:47Z</time>
      </trkpt>
      <trkpt lat="45.53079" lon="6.63982">
        <ele>1485.07</ele>
        <time>2016-03-23T10:12:52Z</time>
      </trkpt>
      <trkpt lat="45.53061" lon="6.63996">
        <ele>1490.28</ele>
        <time>2016-03-23T10:12:57Z</time>
      </trkpt>
      <trkpt lat="45.53042" lon="6.6401">
        <ele>1499.06</ele>
        <time>2016-03-23T10:13:02Z</time>
      </trkpt>
      <trkpt lat="45.53024" lon="6.64021">
        <ele>1505.04</ele>
        <time>2016-03-23T10:13:06Z</time>
      </trkpt>
      <trkpt lat="45.53006" lon="6.64035">
        <ele>1510.08</ele>
        <time>2016-03-23T10:13:11Z</time>
      </trkpt>
      <trkpt lat="45.52986" lon="6.6405">
        <ele>1516.32</ele>
        <time>2016-03-23T10:13:16Z</time>
      </trkpt>
      <trkpt lat="45.52966" lon="6.64063">
        <ele>1523.01</ele>
        <time>2016-03-23T10:13:21Z</time>
      </trkpt>
      <trkpt lat="45.52948" lon="6.64077">
        <ele>1534.46</ele>
        <time>2016-03-23T10:13:26Z</time>
      </trkpt>
      <trkpt lat="45.52931" lon="6.6409">
        <ele>1545.63</ele>
        <time>2016-03-23T10:13:31Z</time>
      </trkpt>
      <trkpt lat="45.52914" lon="6.64102">
        <ele>1560.81</ele>
        <time>2016-03-23T10:13:36Z</time>
      </trkpt>
      <trkpt lat="45.52897" lon="6.64114">
        <ele>1570.19</ele>
        <time>2016-03-23T10:13:41Z</time>
      </trkpt>
      <trkpt lat="45.52879" lon="6.64128">
        <ele>1577.27</ele>
        <time>2016-03-23T10:13:46Z</time>
      </trkpt>
      <trkpt lat="45.52861" lon="6.64141">
        <ele>1588.98</ele>
        <time>2016-03-23T10:13:51Z</time>
      </trkpt>
      <trkpt lat="45.52842" lon="6.64153">
        <ele>1598.23</ele>
        <time>2016-03-23T10:13:56Z</time>
      </trkpt>
      <trkpt lat="45.52824" lon="6.64167">
        <ele>1610.95</ele>
        <time>2016-03-23T10:14:01Z</time>
      </trkpt>
      <trkpt lat="45.52807" lon="6.6418">
        <ele>1622.83</ele>
        <time>2016-03-23T10:14:06Z</time>
      </trkpt>
      <trkpt lat="45.52787" lon="6.64192">
        <ele>1626.28</ele>
        <time>2016-03-23T10:14:11Z</time>
      </trkpt>
      <trkpt lat="45.5277" lon="6.64203">
        <ele>1630.28</ele>
        <time>2016-03-23T10:14:15Z</time>
      </trkpt>
      <trkpt lat="45.52753" lon="6.64214">
        <ele>1633.28</ele>
        <time>2016-03-23T10:14:19Z</time>
      </trkpt>
      <trkpt lat="45.52733" lon="6.64225">
        <ele>1639.08</ele>
        <time>2016-03-23T10:14:24Z</time>
      </trkpt>
      <trkpt lat="45.52716" lon="6.64236">
        <ele>1643.11</ele>
        <time>2016-03-23T10:14:28Z</time>
      </trkpt>
      <trkpt lat="45.52696" lon="6.6425">
        <ele>1649.28</ele>
        <time>2016-03-23T10:14:33Z</time>
      </trkpt>
      <trkpt lat="45.5268" lon="6.64265">
        <ele>1654.1</ele>
        <time>2016-03-23T10:14:38Z</time>
      </trkpt>
      <trkpt lat="45.52664" lon="6.64277">
        <ele>1660.07</ele>
        <time>2016-03-23T10:14:42Z</time>
      </trkpt>
      <trkpt lat="45.52645" lon="6.6429">
        <ele>1666.25</ele>
        <time>2016-03-23T10:14:47Z</time>
      </trkpt>
      <trkpt lat="45.52627" lon="6.64304">
        <ele>1674.08</ele>
        <time>2016-03-23T10:14:52Z</time>
      </trkpt>
      <trkpt lat="45.52611" lon="6.64316">
        <ele>1682.23</ele>
        <time>2016-03-23T10:14:56Z</time>
      </trkpt>
      <trkpt lat="45.52592" lon="6.6433">
        <ele>1690.07</ele>
        <time>2016-03-23T10:15:01Z</time>
      </trkpt>
      <trkpt lat="45.52573" lon="6.64343">
        <ele>1697.23</ele>
        <time>2016-03-23T10:15:06Z</time>
      </trkpt>
      <trkpt lat="45.52554" lon="6.64357">
        <ele>1703.28</ele>
        <time>2016-03-23T10:15:11Z</time>
      </trkpt>
      <trkpt lat="45.52535" lon="6.64371">
        <ele>1713.43</ele>
        <time>2016-03-23T10:15:16Z</time>
      </trkpt>
      <trkpt lat="45.52516" lon="6.64385">
        <ele>1715.52</ele>
        <time>2016-03-23T10:15:21Z</time>
      </trkpt>
      <trkpt lat="45.52496" lon="6.64398">
        <ele>1718.53</ele>
        <time>2016-03-23T10:15:26Z</time>
      </trkpt>
      <trkpt lat="45.52478" lon="6.64407">
        <ele>1722.28</ele>
        <time>2016-03-23T10:15:30Z</time>
      </trkpt>
      <trkpt lat="45.52459" lon="6.64421">
        <ele>1725.55</ele>
        <time>2016-03-23T10:15:35Z</time>
      </trkpt>
      <trkpt lat="45.52439" lon="6.64433">
        <ele>1730.32</ele>
        <time>2016-03-23T10:15:40Z</time>
      </trkpt>
      <trkpt lat="45.52422" lon="6.64444">
        <ele>1738.19</ele>
        <time>2016-03-23T10:15:44Z</time>
      </trkpt>
      <trkpt lat="45.52402" lon="6.64456">
        <ele>1744.27</ele>
        <time>2016-03-23T10:15:49Z</time>
      </trkpt>
      <trkpt lat="45.52386" lon="6.6447">
        <ele>1748.52</ele>
        <time>2016-03-23T10:15:53Z</time>
      </trkpt>
      <trkpt lat="45.52368" lon="6.64485">
        <ele>1751.09</ele>
        <time>2016-03-23T10:15:58Z</time>
      </trkpt>
      <trkpt lat="45.52351" lon="6.64497">
        <ele>1755.67</ele>
        <time>2016-03-23T10:16:02Z</time>
      </trkpt>
      <trkpt lat="45.52333" lon="6.64512">
        <ele>1762.11</ele>
        <time>2016-03-23T10:16:07Z</time>
      </trkpt>
      <trkpt lat="45.52314" lon="6.64526">
        <ele>1769.11</ele>
        <time>2016-03-23T10:16:12Z</time>
      </trkpt>
      <trkpt lat="45.52297" lon="6.64536">
        <ele>1772.28</ele>
        <time>2016-03-23T10:16:16Z</time>
      </trkpt>
      <trkpt lat="45.52279" lon="6.64549">
        <ele>1773.52</ele>
        <time>2016-03-23T10:16:20Z</time>
      </trkpt>
      <trkpt lat="45.5226" lon="6.64561">
        <ele>1777.09</ele>
        <time>2016-03-23T10:16:24Z</time>
      </trkpt>
      <trkpt lat="45.52241" lon="6.64576">
        <ele>1786.2</ele>
        <time>2016-03-23T10:16:30Z</time>
      </trkpt>
      <trkpt lat="45.52224" lon="6.64584">
        <ele>1792.23</ele>
        <time>2016-03-23T10:16:34Z</time>
      </trkpt>
      <trkpt lat="45.52206" lon="6.64598">
        <ele>1801.03</ele>
        <time>2016-03-23T10:16:39Z</time>
      </trkpt>
      <trkpt lat="45.52189" lon="6.64614">
        <ele>1812.08</ele>
        <time>2016-03-23T10:16:44Z</time>
      </trkpt>
      <trkpt lat="45.5217" lon="6.64625">
        <ele>1827.78</ele>
        <time>2016-03-23T10:16:49Z</time>
      </trkpt>
      <trkpt lat="45.52153" lon="6.6464">
        <ele>1840.18</ele>
        <time>2016-03-23T10:16:54Z</time>
      </trkpt>
      <trkpt lat="45.52137" lon="6.64657">
        <ele>1847.27</ele>
        <time>2016-03-23T10:16:59Z</time>
      </trkpt>
      <trkpt lat="45.5212" lon="6.64668">
        <ele>1852.32</ele>
        <time>2016-03-23T10:17:03Z</time>
      </trkpt>
      <trkpt lat="45.521" lon="6.64682">
        <ele>1860.04</ele>
        <time>2016-03-23T10:17:08Z</time>
      </trkpt>
      <trkpt lat="45.52084" lon="6.64695">
        <ele>1867.28</ele>
        <time>2016-03-23T10:17:13Z</time>
      </trkpt>
      <trkpt lat="45.52066" lon="6.64709">
        <ele>1877.88</ele>
        <time>2016-03-23T10:17:18Z</time>
      </trkpt>
      <trkpt lat="45.52049" lon="6.64718">
        <ele>1895.47</ele>
        <time>2016-03-23T10:17:23Z</time>
      </trkpt>
      <trkpt lat="45.52029" lon="6.64732">
        <ele>1915.67</ele>
        <time>2016-03-23T10:17:29Z</time>
      </trkpt>
      <trkpt lat="45.52012" lon="6.64744">
        <ele>1928.56</ele>
        <time>2016-03-23T10:17:34Z</time>
      </trkpt>
      <trkpt lat="45.51995" lon="6.64755">
        <ele>1944.97</ele>
        <time>2016-03-23T10:17:39Z</time>
      </trkpt>
      <trkpt lat="45.51977" lon="6.64767">
        <ele>1951.56</ele>
        <time>2016-03-23T10:17:44Z</time>
      </trkpt>
      <trkpt lat="45.5196" lon="6.64779">
        <ele>1954.37</ele>
        <time>2016-03-23T10:17:48Z</time>
      </trkpt>
      <trkpt lat="45.51941" lon="6.64793">
        <ele>1959.45</ele>
        <time>2016-03-23T10:17:53Z</time>
      </trkpt>
      <trkpt lat="45.51921" lon="6.64808">
        <ele>1961.72</ele>
        <time>2016-03-23T10:17:58Z</time>
      </trkpt>
      <trkpt lat="45.51905" lon="6.6482">
        <ele>1961.49</ele>
        <time>2016-03-23T10:18:02Z</time>
      </trkpt>
      <trkpt lat="45.51888" lon="6.64831">
        <ele>1960.53</ele>
        <time>2016-03-23T10:18:06Z</time>
      </trkpt>
      <trkpt lat="45.51872" lon="6.64843">
        <ele>1959.37</ele>
        <time>2016-03-23T10:18:10Z</time>
      </trkpt>
      <trkpt lat="45.51852" lon="6.64856">
        <ele>1959.36</ele>
        <time>2016-03-23T10:18:15Z</time>
      </trkpt>
      <trkpt lat="45.51834" lon="6.6487">
        <ele>1960.49</ele>
        <time>2016-03-23T10:18:20Z</time>
      </trkpt>
      <trkpt lat="45.51817" lon="6.64881">
        <ele>1961.49</ele>
        <time>2016-03-23T10:18:24Z</time>
      </trkpt>
      <trkpt lat="45.51797" lon="6.64895">
        <ele>1962.53</ele>
        <time>2016-03-23T10:18:29Z</time>
      </trkpt>
      <trkpt lat="45.5178" lon="6.64907">
        <ele>1963.52</ele>
        <time>2016-03-23T10:18:33Z</time>
      </trkpt>
      <trkpt lat="45.51764" lon="6.64918">
        <ele>1964.49</ele>
        <time>2016-03-23T10:18:37Z</time>
      </trkpt>
      <trkpt lat="45.51747" lon="6.6493">
        <ele>1966.33</ele>
        <time>2016-03-23T10:18:41Z</time>
      </trkpt>
      <trkpt lat="45.51727" lon="6.64944">
        <ele>1968.52</ele>
        <time>2016-03-23T10:18:46Z</time>
      </trkpt>
      <trkpt lat="45.51708" lon="6.64957">
        <ele>1970.49</ele>
        <time>2016-03-23T10:18:51Z</time>
      </trkpt>
      <trkpt lat="45.51688" lon="6.64972">
        <ele>1972.52</ele>
        <time>2016-03-23T10:18:56Z</time>
      </trkpt>
      <trkpt lat="45.51671" lon="6.64984">
        <ele>1971.56</ele>
        <time>2016-03-23T10:19:21Z</time>
      </trkpt>
      <trkpt lat="45.51671" lon="6.65009">
        <ele>1974.33</ele>
        <time>2016-03-23T10:20:02Z</time>
      </trkpt>
      <trkpt lat="45.51671" lon="6.65037">
        <ele>1978.24</ele>
        <time>2016-03-23T10:20:16Z</time>
      </trkpt>
      <trkpt lat="45.51671" lon="6.65063">
        <ele>1974.53</ele>
        <time>2016-03-23T10:20:37Z</time>
      </trkpt>
      <trkpt lat="45.5167" lon="6.65089">
        <ele>1967.55</ele>
        <time>2016-03-23T10:21:03Z</time>
      </trkpt>
      <trkpt lat="45.5166" lon="6.65117">
        <ele>1968.01</ele>
        <time>2016-03-23T10:21:10Z</time>
      </trkpt>
      <trkpt lat="45.51648" lon="6.65136">
        <ele>1966.73</ele>
        <time>2016-03-23T10:21:13Z</time>
      </trkpt>
      <trkpt lat="45.51624" lon="6.65154">
        <ele>1966.37</ele>
        <time>2016-03-23T10:21:16Z</time>
      </trkpt>
      <trkpt lat="45.51601" lon="6.65165">
        <ele>1964.13</ele>
        <time>2016-03-23T10:21:19Z</time>
      </trkpt>
      <trkpt lat="45.51575" lon="6.65176">
        <ele>1960.78</ele>
        <time>2016-03-23T10:21:22Z</time>
      </trkpt>
      <trkpt lat="45.51554" lon="6.6518">
        <ele>1958.9</ele>
        <time>2016-03-23T10:21:25Z</time>
      </trkpt>
      <trkpt lat="45.51532" lon="6.65181">
        <ele>1953.96</ele>
        <time>2016-03-23T10:21:28Z</time>
      </trkpt>
      <trkpt lat="45.51513" lon="6.65186">
        <ele>1951.55</ele>
        <time>2016-03-23T10:21:31Z</time>
      </trkpt>
      <trkpt lat="45.51493" lon="6.65191">
        <ele>1950.57</ele>
        <time>2016-03-23T10:21:35Z</time>
      </trkpt>
      <trkpt lat="45.51474" lon="6.65197">
        <ele>1949.53</ele>
        <time>2016-03-23T10:21:40Z</time>
      </trkpt>
      <trkpt lat="45.51455" lon="6.65205">
        <ele>1949.33</ele>
        <time>2016-03-23T10:21:47Z</time>
      </trkpt>
      <trkpt lat="45.51435" lon="6.65208">
        <ele>1945.81</ele>
        <time>2016-03-23T10:21:54Z</time>
      </trkpt>
      <trkpt lat="45.51417" lon="6.65211">
        <ele>1943.73</ele>
        <time>2016-03-23T10:22:01Z</time>
      </trkpt>
      <trkpt lat="45.51399" lon="6.65215">
        <ele>1941.72</ele>
        <time>2016-03-23T10:22:06Z</time>
      </trkpt>
      <trkpt lat="45.51377" lon="6.65221">
        <ele>1941.73</ele>
        <time>2016-03-23T10:22:13Z</time>
      </trkpt>
      <trkpt lat="45.51357" lon="6.65218">
        <ele>1940.53</ele>
        <time>2016-03-23T10:22:18Z</time>
      </trkpt>
      <trkpt lat="45.51343" lon="6.65234">
        <ele>1936.38</ele>
        <time>2016-03-23T10:22:42Z</time>
      </trkpt>
      <trkpt lat="45.51328" lon="6.65253">
        <ele>1932.74</ele>
        <time>2016-03-23T10:22:47Z</time>
      </trkpt>
      <trkpt lat="45.51313" lon="6.65273">
        <ele>1925.01</ele>
        <time>2016-03-23T10:22:55Z</time>
      </trkpt>
      <trkpt lat="45.51304" lon="6.65294">
        <ele>1921.93</ele>
        <time>2016-03-23T10:22:59Z</time>
      </trkpt>
      <trkpt lat="45.513" lon="6.6532">
        <ele>1918.75</ele>
        <time>2016-03-23T10:23:02Z</time>
      </trkpt>
      <trkpt lat="45.51289" lon="6.65347">
        <ele>1914.54</ele>
        <time>2016-03-23T10:23:08Z</time>
      </trkpt>
      <trkpt lat="45.51289" lon="6.65378">
        <ele>1904.18</ele>
        <time>2016-03-23T10:23:14Z</time>
      </trkpt>
      <trkpt lat="45.51298" lon="6.65401">
        <ele>1895.7</ele>
        <time>2016-03-23T10:23:17Z</time>
      </trkpt>
      <trkpt lat="45.51293" lon="6.65435">
        <ele>1892.14</ele>
        <time>2016-03-23T10:23:20Z</time>
      </trkpt>
      <trkpt lat="45.51311" lon="6.65441">
        <ele>1882.28</ele>
        <time>2016-03-23T10:23:24Z</time>
      </trkpt>
      <trkpt lat="45.51331" lon="6.65458">
        <ele>1877.79</ele>
        <time>2016-03-23T10:23:27Z</time>
      </trkpt>
      <trkpt lat="45.51346" lon="6.65476">
        <ele>1872.83</ele>
        <time>2016-03-23T10:23:30Z</time>
      </trkpt>
      <trkpt lat="45.51364" lon="6.65486">
        <ele>1864.28</ele>
        <time>2016-03-23T10:23:33Z</time>
      </trkpt>
      <trkpt lat="45.51379" lon="6.65512">
        <ele>1859.95</ele>
        <time>2016-03-23T10:23:36Z</time>
      </trkpt>
      <trkpt lat="45.51393" lon="6.65529">
        <ele>1857.79</ele>
        <time>2016-03-23T10:23:38Z</time>
      </trkpt>
      <trkpt lat="45.51409" lon="6.6556">
        <ele>1853.95</ele>
        <time>2016-03-23T10:23:41Z</time>
      </trkpt>
      <trkpt lat="45.51431" lon="6.65583">
        <ele>1848.11</ele>
        <time>2016-03-23T10:23:43Z</time>
      </trkpt>
      <trkpt lat="45.51451" lon="6.65592">
        <ele>1844.03</ele>
        <time>2016-03-23T10:23:45Z</time>
      </trkpt>
      <trkpt lat="45.51465" lon="6.65613">
        <ele>1842.59</ele>
        <time>2016-03-23T10:23:47Z</time>
      </trkpt>
      <trkpt lat="45.51482" lon="6.65635">
        <ele>1841.51</ele>
        <time>2016-03-23T10:23:50Z</time>
      </trkpt>
      <trkpt lat="45.51497" lon="6.65655">
        <ele>1841.69</ele>
        <time>2016-03-23T10:23:52Z</time>
      </trkpt>
      <trkpt lat="45.51512" lon="6.65674">
        <ele>1837.06</ele>
        <time>2016-03-23T10:23:54Z</time>
      </trkpt>
      <trkpt lat="45.51527" lon="6.65698">
        <ele>1832.02</ele>
        <time>2016-03-23T10:23:58Z</time>
      </trkpt>
      <trkpt lat="45.51544" lon="6.65718">
        <ele>1826.03</ele>
        <time>2016-03-23T10:24:01Z</time>
      </trkpt>
      <trkpt lat="45.51565" lon="6.65732">
        <ele>1823.94</ele>
        <time>2016-03-23T10:24:04Z</time>
      </trkpt>
      <trkpt lat="45.51584" lon="6.65755">
        <ele>1821.74</ele>
        <time>2016-03-23T10:24:07Z</time>
      </trkpt>
      <trkpt lat="45.51597" lon="6.65776">
        <ele>1815.98</ele>
        <time>2016-03-23T10:24:11Z</time>
      </trkpt>
      <trkpt lat="45.51615" lon="6.65783">
        <ele>1811.95</ele>
        <time>2016-03-23T10:24:14Z</time>
      </trkpt>
      <trkpt lat="45.51633" lon="6.65799">
        <ele>1811.73</ele>
        <time>2016-03-23T10:24:17Z</time>
      </trkpt>
      <trkpt lat="45.51647" lon="6.65818">
        <ele>1810.54</ele>
        <time>2016-03-23T10:24:20Z</time>
      </trkpt>
      <trkpt lat="45.51657" lon="6.65842">
        <ele>1807.35</ele>
        <time>2016-03-23T10:24:25Z</time>
      </trkpt>
      <trkpt lat="45.51667" lon="6.65864">
        <ele>1805.37</ele>
        <time>2016-03-23T10:24:30Z</time>
      </trkpt>
      <trkpt lat="45.5168" lon="6.65886">
        <ele>1802.37</ele>
        <time>2016-03-23T10:24:35Z</time>
      </trkpt>
      <trkpt lat="45.51695" lon="6.659">
        <ele>1797.76</ele>
        <time>2016-03-23T10:24:40Z</time>
      </trkpt>
      <trkpt lat="45.51706" lon="6.65925">
        <ele>1794.97</ele>
        <time>2016-03-23T10:24:43Z</time>
      </trkpt>
      <trkpt lat="45.51712" lon="6.65963">
        <ele>1792.95</ele>
        <time>2016-03-23T10:24:45Z</time>
      </trkpt>
      <trkpt lat="45.51717" lon="6.66002">
        <ele>1791.59</ele>
        <time>2016-03-23T10:24:47Z</time>
      </trkpt>
      <trkpt lat="45.51728" lon="6.66026">
        <ele>1784.59</ele>
        <time>2016-03-23T10:24:53Z</time>
      </trkpt>
      <trkpt lat="45.51737" lon="6.6605">
        <ele>1783.74</ele>
        <time>2016-03-23T10:25:00Z</time>
      </trkpt>
      <trkpt lat="45.51751" lon="6.66068">
        <ele>1784.3</ele>
        <time>2016-03-23T10:25:03Z</time>
      </trkpt>
      <trkpt lat="45.51769" lon="6.66089">
        <ele>1778.87</ele>
        <time>2016-03-23T10:25:06Z</time>
      </trkpt>
      <trkpt lat="45.51782" lon="6.66114">
        <ele>1776.94</ele>
        <time>2016-03-23T10:25:08Z</time>
      </trkpt>
      <trkpt lat="45.51804" lon="6.66136">
        <ele>1771.64</ele>
        <time>2016-03-23T10:25:11Z</time>
      </trkpt>
      <trkpt lat="45.51819" lon="6.6616">
        <ele>1771.54</ele>
        <time>2016-03-23T10:25:13Z</time>
      </trkpt>
      <trkpt lat="45.51835" lon="6.66171">
        <ele>1769.13</ele>
        <time>2016-03-23T10:25:15Z</time>
      </trkpt>
      <trkpt lat="45.51852" lon="6.66186">
        <ele>1768.56</ele>
        <time>2016-03-23T10:25:17Z</time>
      </trkpt>
      <trkpt lat="45.51872" lon="6.66215">
        <ele>1767.76</ele>
        <time>2016-03-23T10:25:20Z</time>
      </trkpt>
      <trkpt lat="45.51883" lon="6.66238">
        <ele>1766.42</ele>
        <time>2016-03-23T10:25:22Z</time>
      </trkpt>
      <trkpt lat="45.51898" lon="6.66257">
        <ele>1766.21</ele>
        <time>2016-03-23T10:25:24Z</time>
      </trkpt>
      <trkpt lat="45.51904" lon="6.66283">
        <ele>1763.32</ele>
        <time>2016-03-23T10:25:26Z</time>
      </trkpt>
      <trkpt lat="45.51913" lon="6.66305">
        <ele>1758.88</ele>
        <time>2016-03-23T10:25:28Z</time>
      </trkpt>
      <trkpt lat="45.51928" lon="6.66325">
        <ele>1758.47</ele>
        <time>2016-03-23T10:25:31Z</time>
      </trkpt>
      <trkpt lat="45.51946" lon="6.66325">
        <ele>1757.57</ele>
        <time>2016-03-23T10:25:33Z</time>
      </trkpt>
      <trkpt lat="45.51972" lon="6.66325">
        <ele>1754.81</ele>
        <time>2016-03-23T10:25:35Z</time>
      </trkpt>
      <trkpt lat="45.51993" lon="6.6633">
        <ele>1751.18</ele>
        <time>2016-03-23T10:25:37Z</time>
      </trkpt>
      <trkpt lat="45.52022" lon="6.66335">
        <ele>1747.84</ele>
        <time>2016-03-23T10:25:39Z</time>
      </trkpt>
      <trkpt lat="45.52046" lon="6.66353">
        <ele>1747.54</ele>
        <time>2016-03-23T10:25:41Z</time>
      </trkpt>
      <trkpt lat="45.52062" lon="6.66379">
        <ele>1733.52</ele>
        <time>2016-03-23T10:25:44Z</time>
      </trkpt>
      <trkpt lat="45.52092" lon="6.66389">
        <ele>1731.61</ele>
        <time>2016-03-23T10:25:46Z</time>
      </trkpt>
      <trkpt lat="45.52112" lon="6.66399">
        <ele>1729.77</ele>
        <time>2016-03-23T10:25:48Z</time>
      </trkpt>
      <trkpt lat="45.52134" lon="6.66406">
        <ele>1728.58</ele>
        <time>2016-03-23T10:25:50Z</time>
      </trkpt>
      <trkpt lat="45.52146" lon="6.66431">
        <ele>1723.64</ele>
        <time>2016-03-23T10:25:53Z</time>
      </trkpt>
      <trkpt lat="45.52162" lon="6.66461">
        <ele>1719.66</ele>
        <time>2016-03-23T10:25:56Z</time>
      </trkpt>
      <trkpt lat="45.52169" lon="6.66487">
        <ele>1715.22</ele>
        <time>2016-03-23T10:25:58Z</time>
      </trkpt>
      <trkpt lat="45.52183" lon="6.66506">
        <ele>1712.55</ele>
        <time>2016-03-23T10:26:01Z</time>
      </trkpt>
      <trkpt lat="45.52203" lon="6.66515">
        <ele>1708.82</ele>
        <time>2016-03-23T10:26:04Z</time>
      </trkpt>
      <trkpt lat="45.5222" lon="6.66528">
        <ele>1704.73</ele>
        <time>2016-03-23T10:26:07Z</time>
      </trkpt>
      <trkpt lat="45.52236" lon="6.66545">
        <ele>1699.12</ele>
        <time>2016-03-23T10:26:10Z</time>
      </trkpt>
      <trkpt lat="45.52252" lon="6.66559">
        <ele>1696.55</ele>
        <time>2016-03-23T10:26:13Z</time>
      </trkpt>
      <trkpt lat="45.52263" lon="6.66581">
        <ele>1692.34</ele>
        <time>2016-03-23T10:26:16Z</time>
      </trkpt>
      <trkpt lat="45.52285" lon="6.66603">
        <ele>1687.91</ele>
        <time>2016-03-23T10:26:20Z</time>
      </trkpt>
      <trkpt lat="45.52303" lon="6.66618">
        <ele>1682.03</ele>
        <time>2016-03-23T10:26:23Z</time>
      </trkpt>
      <trkpt lat="45.52317" lon="6.66637">
        <ele>1678.83</ele>
        <time>2016-03-23T10:26:25Z</time>
      </trkpt>
      <trkpt lat="45.52339" lon="6.66646">
        <ele>1674.02</ele>
        <time>2016-03-23T10:26:28Z</time>
      </trkpt>
      <trkpt lat="45.52362" lon="6.66661">
        <ele>1666.88</ele>
        <time>2016-03-23T10:26:31Z</time>
      </trkpt>
      <trkpt lat="45.52383" lon="6.66659">
        <ele>1663.98</ele>
        <time>2016-03-23T10:26:33Z</time>
      </trkpt>
      <trkpt lat="45.52404" lon="6.66667">
        <ele>1663.39</ele>
        <time>2016-03-23T10:26:35Z</time>
      </trkpt>
      <trkpt lat="45.52423" lon="6.66672">
        <ele>1659.53</ele>
        <time>2016-03-23T10:26:37Z</time>
      </trkpt>
      <trkpt lat="45.5243" lon="6.66695">
        <ele>1646.81</ele>
        <time>2016-03-23T10:26:41Z</time>
      </trkpt>
      <trkpt lat="45.52452" lon="6.66679">
        <ele>1637.29</ele>
        <time>2016-03-23T10:26:44Z</time>
      </trkpt>
      <trkpt lat="45.52465" lon="6.66706">
        <ele>1621.99</ele>
        <time>2016-03-23T10:26:51Z</time>
      </trkpt>
      <trkpt lat="45.52472" lon="6.66736">
        <ele>1614.86</ele>
        <time>2016-03-23T10:26:55Z</time>
      </trkpt>
      <trkpt lat="45.52494" lon="6.66746">
        <ele>1604.91</ele>
        <time>2016-03-23T10:26:59Z</time>
      </trkpt>
      <trkpt lat="45.52496" lon="6.66773">
        <ele>1604.41</ele>
        <time>2016-03-23T10:27:02Z</time>
      </trkpt>
      <trkpt lat="45.52491" lon="6.66802">
        <ele>1602.77</ele>
        <time>2016-03-23T10:27:05Z</time>
      </trkpt>
      <trkpt lat="45.52494" lon="6.66832">
        <ele>1599.65</ele>
        <time>2016-03-23T10:27:08Z</time>
      </trkpt>
      <trkpt lat="45.5249" lon="6.66864">
        <ele>1596.01</ele>
        <time>2016-03-23T10:27:11Z</time>
      </trkpt>
      <trkpt lat="45.52492" lon="6.66896">
        <ele>1592.99</ele>
        <time>2016-03-23T10:27:13Z</time>
      </trkpt>
      <trkpt lat="45.52504" lon="6.66917">
        <ele>1583.61</ele>
        <time>2016-03-23T10:27:19Z</time>
      </trkpt>
      <trkpt lat="45.52502" lon="6.66952">
        <ele>1581.77</ele>
        <time>2016-03-23T10:27:23Z</time>
      </trkpt>
      <trkpt lat="45.525" lon="6.66987">
        <ele>1580.57</ele>
        <time>2016-03-23T10:27:26Z</time>
      </trkpt>
      <trkpt lat="45.52496" lon="6.67013">
        <ele>1577.62</ele>
        <time>2016-03-23T10:27:29Z</time>
      </trkpt>
      <trkpt lat="45.52491" lon="6.67039">
        <ele>1575.61</ele>
        <time>2016-03-23T10:27:32Z</time>
      </trkpt>
      <trkpt lat="45.52485" lon="6.67074">
        <ele>1571.21</ele>
        <time>2016-03-23T10:27:35Z</time>
      </trkpt>
      <trkpt lat="45.52478" lon="6.67105">
        <ele>1568.74</ele>
        <time>2016-03-23T10:27:38Z</time>
      </trkpt>
      <trkpt lat="45.52474" lon="6.67151">
        <ele>1567.35</ele>
        <time>2016-03-23T10:27:41Z</time>
      </trkpt>
      <trkpt lat="45.52493" lon="6.67162">
        <ele>1554.98</ele>
        <time>2016-03-23T10:27:47Z</time>
      </trkpt>
      <trkpt lat="45.52501" lon="6.67187">
        <ele>1547.81</ele>
        <time>2016-03-23T10:27:52Z</time>
      </trkpt>
      <trkpt lat="45.5251" lon="6.67217">
        <ele>1542.03</ele>
        <time>2016-03-23T10:27:55Z</time>
      </trkpt>
      <trkpt lat="45.52518" lon="6.67243">
        <ele>1540.7</ele>
        <time>2016-03-23T10:27:58Z</time>
      </trkpt>
      <trkpt lat="45.52523" lon="6.6727">
        <ele>1534.34</ele>
        <time>2016-03-23T10:28:02Z</time>
      </trkpt>
      <trkpt lat="45.52533" lon="6.67293">
        <ele>1529.22</ele>
        <time>2016-03-23T10:28:05Z</time>
      </trkpt>
      <trkpt lat="45.52547" lon="6.67313">
        <ele>1524.63</ele>
        <time>2016-03-23T10:28:08Z</time>
      </trkpt>
      <trkpt lat="45.52566" lon="6.67318">
        <ele>1521.81</ele>
        <time>2016-03-23T10:28:13Z</time>
      </trkpt>
      <trkpt lat="45.52563" lon="6.67292">
        <ele>1517.54</ele>
        <time>2016-03-23T10:28:45Z</time>
      </trkpt>
      <trkpt lat="45.52538" lon="6.67278">
        <ele>1518.14</ele>
        <time>2016-03-23T10:29:19Z</time>
      </trkpt>
      <trkpt lat="45.52519" lon="6.67274">
        <ele>1523.12</ele>
        <time>2016-03-23T10:29:23Z</time>
      </trkpt>
      <trkpt lat="45.52501" lon="6.67268">
        <ele>1527.28</ele>
        <time>2016-03-23T10:29:27Z</time>
      </trkpt>
      <trkpt lat="45.52483" lon="6.67262">
        <ele>1533.24</ele>
        <time>2016-03-23T10:29:32Z</time>
      </trkpt>
      <trkpt lat="45.52464" lon="6.67249">
        <ele>1544.03</ele>
        <time>2016-03-23T10:29:37Z</time>
      </trkpt>
      <trkpt lat="45.52448" lon="6.67234">
        <ele>1551.47</ele>
        <time>2016-03-23T10:29:41Z</time>
      </trkpt>
      <trkpt lat="45.52429" lon="6.67221">
        <ele>1559.31</ele>
        <time>2016-03-23T10:29:46Z</time>
      </trkpt>
      <trkpt lat="45.52409" lon="6.67207">
        <ele>1569.06</ele>
        <time>2016-03-23T10:29:51Z</time>
      </trkpt>
      <trkpt lat="45.5239" lon="6.67194">
        <ele>1579.24</ele>
        <time>2016-03-23T10:29:56Z</time>
      </trkpt>
      <trkpt lat="45.52374" lon="6.67178">
        <ele>1588.83</ele>
        <time>2016-03-23T10:30:01Z</time>
      </trkpt>
      <trkpt lat="45.52355" lon="6.67167">
        <ele>1598.59</ele>
        <time>2016-03-23T10:30:07Z</time>
      </trkpt>
      <trkpt lat="45.52338" lon="6.67155">
        <ele>1607.6</ele>
        <time>2016-03-23T10:30:11Z</time>
      </trkpt>
      <trkpt lat="45.52318" lon="6.67145">
        <ele>1623.96</ele>
        <time>2016-03-23T10:30:16Z</time>
      </trkpt>
      <trkpt lat="45.523" lon="6.67132">
        <ele>1637.82</ele>
        <time>2016-03-23T10:30:21Z</time>
      </trkpt>
      <trkpt lat="45.52281" lon="6.67118">
        <ele>1652.89</ele>
        <time>2016-03-23T10:30:26Z</time>
      </trkpt>
      <trkpt lat="45.52261" lon="6.67106">
        <ele>1665.82</ele>
        <time>2016-03-23T10:30:31Z</time>
      </trkpt>
      <trkpt lat="45.52242" lon="6.67097">
        <ele>1675</ele>
        <time>2016-03-23T10:30:36Z</time>
      </trkpt>
      <trkpt lat="45.52223" lon="6.67084">
        <ele>1681.07</ele>
        <time>2016-03-23T10:30:41Z</time>
      </trkpt>
      <trkpt lat="45.52204" lon="6.67073">
        <ele>1692.02</ele>
        <time>2016-03-23T10:30:46Z</time>
      </trkpt>
      <trkpt lat="45.52187" lon="6.67063">
        <ele>1699.29</ele>
        <time>2016-03-23T10:30:51Z</time>
      </trkpt>
      <trkpt lat="45.52167" lon="6.6705">
        <ele>1705.88</ele>
        <time>2016-03-23T10:30:56Z</time>
      </trkpt>
      <trkpt lat="45.5215" lon="6.67039">
        <ele>1711.27</ele>
        <time>2016-03-23T10:31:00Z</time>
      </trkpt>
      <trkpt lat="45.52129" lon="6.67025">
        <ele>1719.24</ele>
        <time>2016-03-23T10:31:05Z</time>
      </trkpt>
      <trkpt lat="45.52112" lon="6.67018">
        <ele>1728.99</ele>
        <time>2016-03-23T10:31:10Z</time>
      </trkpt>
      <trkpt lat="45.52094" lon="6.67008">
        <ele>1736.04</ele>
        <time>2016-03-23T10:31:15Z</time>
      </trkpt>
      <trkpt lat="45.52077" lon="6.66997">
        <ele>1749.11</ele>
        <time>2016-03-23T10:31:24Z</time>
      </trkpt>
      <trkpt lat="45.5206" lon="6.66986">
        <ele>1754.71</ele>
        <time>2016-03-23T10:31:33Z</time>
      </trkpt>
      <trkpt lat="45.5204" lon="6.66975">
        <ele>1760.48</ele>
        <time>2016-03-23T10:31:41Z</time>
      </trkpt>
      <trkpt lat="45.52019" lon="6.66968">
        <ele>1763.69</ele>
        <time>2016-03-23T10:31:47Z</time>
      </trkpt>
      <trkpt lat="45.51999" lon="6.66956">
        <ele>1767.44</ele>
        <time>2016-03-23T10:31:52Z</time>
      </trkpt>
      <trkpt lat="45.51978" lon="6.66944">
        <ele>1772.32</ele>
        <time>2016-03-23T10:31:57Z</time>
      </trkpt>
      <trkpt lat="45.51958" lon="6.66929">
        <ele>1781.23</ele>
        <time>2016-03-23T10:32:02Z</time>
      </trkpt>
      <trkpt lat="45.51941" lon="6.66913">
        <ele>1788.04</ele>
        <time>2016-03-23T10:32:06Z</time>
      </trkpt>
      <trkpt lat="45.51922" lon="6.66902">
        <ele>1797.04</ele>
        <time>2016-03-23T10:32:11Z</time>
      </trkpt>
      <trkpt lat="45.51904" lon="6.66889">
        <ele>1800.33</ele>
        <time>2016-03-23T10:32:15Z</time>
      </trkpt>
      <trkpt lat="45.51884" lon="6.6688">
        <ele>1804.28</ele>
        <time>2016-03-23T10:32:20Z</time>
      </trkpt>
      <trkpt lat="45.51865" lon="6.66865">
        <ele>1809.08</ele>
        <time>2016-03-23T10:32:24Z</time>
      </trkpt>
      <trkpt lat="45.51849" lon="6.66851">
        <ele>1817.27</ele>
        <time>2016-03-23T10:32:28Z</time>
      </trkpt>
      <trkpt lat="45.51832" lon="6.66839">
        <ele>1823.08</ele>
        <time>2016-03-23T10:32:32Z</time>
      </trkpt>
      <trkpt lat="45.51813" lon="6.66834">
        <ele>1832.24</ele>
        <time>2016-03-23T10:32:38Z</time>
      </trkpt>
      <trkpt lat="45.51796" lon="6.66824">
        <ele>1835.26</ele>
        <time>2016-03-23T10:32:42Z</time>
      </trkpt>
      <trkpt lat="45.51775" lon="6.66809">
        <ele>1842.27</ele>
        <time>2016-03-23T10:32:47Z</time>
      </trkpt>
      <trkpt lat="45.51757" lon="6.66798">
        <ele>1852.22</ele>
        <time>2016-03-23T10:32:52Z</time>
      </trkpt>
      <trkpt lat="45.51739" lon="6.66787">
        <ele>1860.63</ele>
        <time>2016-03-23T10:32:56Z</time>
      </trkpt>
      <trkpt lat="45.51721" lon="6.66777">
        <ele>1876.94</ele>
        <time>2016-03-23T10:33:01Z</time>
      </trkpt>
      <trkpt lat="45.51703" lon="6.66775">
        <ele>1887.06</ele>
        <time>2016-03-23T10:33:06Z</time>
      </trkpt>
      <trkpt lat="45.51686" lon="6.66763">
        <ele>1896.04</ele>
        <time>2016-03-23T10:33:11Z</time>
      </trkpt>
      <trkpt lat="45.51669" lon="6.66751">
        <ele>1905.03</ele>
        <time>2016-03-23T10:33:16Z</time>
      </trkpt>
      <trkpt lat="45.51652" lon="6.6674">
        <ele>1915.06</ele>
        <time>2016-03-23T10:33:21Z</time>
      </trkpt>
      <trkpt lat="45.51632" lon="6.66737">
        <ele>1922.28</ele>
        <time>2016-03-23T10:33:27Z</time>
      </trkpt>
      <trkpt lat="45.51613" lon="6.66725">
        <ele>1933.07</ele>
        <time>2016-03-23T10:33:32Z</time>
      </trkpt>
      <trkpt lat="45.51595" lon="6.66718">
        <ele>1937.29</ele>
        <time>2016-03-23T10:33:36Z</time>
      </trkpt>
      <trkpt lat="45.51578" lon="6.66699">
        <ele>1947.83</ele>
        <time>2016-03-23T10:33:40Z</time>
      </trkpt>
      <trkpt lat="45.51561" lon="6.66685">
        <ele>1957.64</ele>
        <time>2016-03-23T10:33:44Z</time>
      </trkpt>
      <trkpt lat="45.51541" lon="6.66672">
        <ele>1967.99</ele>
        <time>2016-03-23T10:33:49Z</time>
      </trkpt>
      <trkpt lat="45.51521" lon="6.66659">
        <ele>1980.02</ele>
        <time>2016-03-23T10:33:54Z</time>
      </trkpt>
      <trkpt lat="45.51503" lon="6.66649">
        <ele>1989.07</ele>
        <time>2016-03-23T10:34:00Z</time>
      </trkpt>
      <trkpt lat="45.51485" lon="6.66638">
        <ele>1998.03</ele>
        <time>2016-03-23T10:34:04Z</time>
      </trkpt>
      <trkpt lat="45.51467" lon="6.66629">
        <ele>2007.83</ele>
        <time>2016-03-23T10:34:09Z</time>
      </trkpt>
      <trkpt lat="45.5145" lon="6.66618">
        <ele>2019.03</ele>
        <time>2016-03-23T10:34:14Z</time>
      </trkpt>
      <trkpt lat="45.51433" lon="6.66609">
        <ele>2027.03</ele>
        <time>2016-03-23T10:34:18Z</time>
      </trkpt>
      <trkpt lat="45.51414" lon="6.66598">
        <ele>2037.07</ele>
        <time>2016-03-23T10:34:23Z</time>
      </trkpt>
      <trkpt lat="45.51396" lon="6.66592">
        <ele>2046.47</ele>
        <time>2016-03-23T10:34:29Z</time>
      </trkpt>
      <trkpt lat="45.51379" lon="6.66581">
        <ele>2052.28</ele>
        <time>2016-03-23T10:34:33Z</time>
      </trkpt>
      <trkpt lat="45.51362" lon="6.66569">
        <ele>2058.23</ele>
        <time>2016-03-23T10:34:37Z</time>
      </trkpt>
      <trkpt lat="45.51343" lon="6.66555">
        <ele>2065.07</ele>
        <time>2016-03-23T10:34:42Z</time>
      </trkpt>
      <trkpt lat="45.51324" lon="6.66542">
        <ele>2072.24</ele>
        <time>2016-03-23T10:34:47Z</time>
      </trkpt>
      <trkpt lat="45.51303" lon="6.6653">
        <ele>2080.03</ele>
        <time>2016-03-23T10:34:52Z</time>
      </trkpt>
      <trkpt lat="45.51286" lon="6.66521">
        <ele>2085.08</ele>
        <time>2016-03-23T10:34:56Z</time>
      </trkpt>
      <trkpt lat="45.51268" lon="6.66509">
        <ele>2092.41</ele>
        <time>2016-03-23T10:35:01Z</time>
      </trkpt>
      <trkpt lat="45.5125" lon="6.66496">
        <ele>2096.27</ele>
        <time>2016-03-23T10:35:05Z</time>
      </trkpt>
      <trkpt lat="45.51229" lon="6.66486">
        <ele>2098.33</ele>
        <time>2016-03-23T10:35:10Z</time>
      </trkpt>
      <trkpt lat="45.51211" lon="6.66474">
        <ele>2103.25</ele>
        <time>2016-03-23T10:35:15Z</time>
      </trkpt>
      <trkpt lat="45.51194" lon="6.66463">
        <ele>2108.08</ele>
        <time>2016-03-23T10:35:19Z</time>
      </trkpt>
      <trkpt lat="45.51176" lon="6.66453">
        <ele>2110.69</ele>
        <time>2016-03-23T10:35:24Z</time>
      </trkpt>
      <trkpt lat="45.51159" lon="6.66444">
        <ele>2115.28</ele>
        <time>2016-03-23T10:35:28Z</time>
      </trkpt>
      <trkpt lat="45.51139" lon="6.66432">
        <ele>2118.12</ele>
        <time>2016-03-23T10:35:33Z</time>
      </trkpt>
      <trkpt lat="45.51121" lon="6.66423">
        <ele>2119.53</ele>
        <time>2016-03-23T10:35:37Z</time>
      </trkpt>
      <trkpt lat="45.51103" lon="6.66411">
        <ele>2120.57</ele>
        <time>2016-03-23T10:35:42Z</time>
      </trkpt>
      <trkpt lat="45.51085" lon="6.66407">
        <ele>2117.33</ele>
        <time>2016-03-23T10:35:51Z</time>
      </trkpt>
      <trkpt lat="45.51075" lon="6.66429">
        <ele>2119.72</ele>
        <time>2016-03-23T10:37:07Z</time>
      </trkpt>
      <trkpt lat="45.51062" lon="6.66449">
        <ele>2116.57</ele>
        <time>2016-03-23T10:37:19Z</time>
      </trkpt>
      <trkpt lat="45.51048" lon="6.66469">
        <ele>2117.46</ele>
        <time>2016-03-23T10:37:25Z</time>
      </trkpt>
      <trkpt lat="45.51035" lon="6.66489">
        <ele>2116.77</ele>
        <time>2016-03-23T10:37:30Z</time>
      </trkpt>
      <trkpt lat="45.51022" lon="6.66509">
        <ele>2111.02</ele>
        <time>2016-03-23T10:37:37Z</time>
      </trkpt>
      <trkpt lat="45.51012" lon="6.66532">
        <ele>2112.25</ele>
        <time>2016-03-23T10:37:45Z</time>
      </trkpt>
      <trkpt lat="45.51" lon="6.66552">
        <ele>2116.31</ele>
        <time>2016-03-23T10:37:51Z</time>
      </trkpt>
      <trkpt lat="45.50987" lon="6.66575">
        <ele>2116.53</ele>
        <time>2016-03-23T10:37:56Z</time>
      </trkpt>
      <trkpt lat="45.50973" lon="6.66597">
        <ele>2114.37</ele>
        <time>2016-03-23T10:38:00Z</time>
      </trkpt>
      <trkpt lat="45.50955" lon="6.66622">
        <ele>2112.58</ele>
        <time>2016-03-23T10:38:03Z</time>
      </trkpt>
      <trkpt lat="45.50938" lon="6.66649">
        <ele>2108.98</ele>
        <time>2016-03-23T10:38:06Z</time>
      </trkpt>
      <trkpt lat="45.50917" lon="6.66672">
        <ele>2106.58</ele>
        <time>2016-03-23T10:38:09Z</time>
      </trkpt>
      <trkpt lat="45.509" lon="6.6669">
        <ele>2102.79</ele>
        <time>2016-03-23T10:38:12Z</time>
      </trkpt>
      <trkpt lat="45.50889" lon="6.66722">
        <ele>2101.73</ele>
        <time>2016-03-23T10:38:15Z</time>
      </trkpt>
      <trkpt lat="45.50882" lon="6.66759">
        <ele>2095.04</ele>
        <time>2016-03-23T10:38:18Z</time>
      </trkpt>
      <trkpt lat="45.50875" lon="6.66791">
        <ele>2094.54</ele>
        <time>2016-03-23T10:38:21Z</time>
      </trkpt>
      <trkpt lat="45.50864" lon="6.66815">
        <ele>2092.58</ele>
        <time>2016-03-23T10:38:24Z</time>
      </trkpt>
      <trkpt lat="45.50845" lon="6.66832">
        <ele>2085.6</ele>
        <time>2016-03-23T10:38:29Z</time>
      </trkpt>
      <trkpt lat="45.50827" lon="6.66851">
        <ele>2083.42</ele>
        <time>2016-03-23T10:38:32Z</time>
      </trkpt>
      <trkpt lat="45.50809" lon="6.66867">
        <ele>2079.02</ele>
        <time>2016-03-23T10:38:35Z</time>
      </trkpt>
      <trkpt lat="45.50793" lon="6.66887">
        <ele>2075.59</ele>
        <time>2016-03-23T10:38:38Z</time>
      </trkpt>
      <trkpt lat="45.5078" lon="6.66917">
        <ele>2072.91</ele>
        <time>2016-03-23T10:38:41Z</time>
      </trkpt>
      <trkpt lat="45.50762" lon="6.66945">
        <ele>2073.14</ele>
        <time>2016-03-23T10:38:44Z</time>
      </trkpt>
      <trkpt lat="45.50747" lon="6.66961">
        <ele>2071.76</ele>
        <time>2016-03-23T10:38:46Z</time>
      </trkpt>
      <trkpt lat="45.50726" lon="6.66967">
        <ele>2068.02</ele>
        <time>2016-03-23T10:38:48Z</time>
      </trkpt>
      <trkpt lat="45.50703" lon="6.66972">
        <ele>2065.74</ele>
        <time>2016-03-23T10:38:51Z</time>
      </trkpt>
      <trkpt lat="45.50685" lon="6.66969">
        <ele>2062.72</ele>
        <time>2016-03-23T10:38:54Z</time>
      </trkpt>
      <trkpt lat="45.50664" lon="6.66974">
        <ele>2059.62</ele>
        <time>2016-03-23T10:38:57Z</time>
      </trkpt>
      <trkpt lat="45.50647" lon="6.66984">
        <ele>2057.8</ele>
        <time>2016-03-23T10:39:00Z</time>
      </trkpt>
      <trkpt lat="45.50628" lon="6.66996">
        <ele>2051.2</ele>
        <time>2016-03-23T10:39:03Z</time>
      </trkpt>
      <trkpt lat="45.5061" lon="6.67006">
        <ele>2049.74</ele>
        <time>2016-03-23T10:39:06Z</time>
      </trkpt>
      <trkpt lat="45.50588" lon="6.67007">
        <ele>2046.94</ele>
        <time>2016-03-23T10:39:09Z</time>
      </trkpt>
      <trkpt lat="45.50572" lon="6.67028">
        <ele>2044.93</ele>
        <time>2016-03-23T10:39:12Z</time>
      </trkpt>
      <trkpt lat="45.5056" lon="6.67057">
        <ele>2043.61</ele>
        <time>2016-03-23T10:39:15Z</time>
      </trkpt>
      <trkpt lat="45.50558" lon="6.6709">
        <ele>2040.81</ele>
        <time>2016-03-23T10:39:17Z</time>
      </trkpt>
      <trkpt lat="45.50551" lon="6.67118">
        <ele>2037.98</ele>
        <time>2016-03-23T10:39:19Z</time>
      </trkpt>
      <trkpt lat="45.50541" lon="6.6715">
        <ele>2034.03</ele>
        <time>2016-03-23T10:39:21Z</time>
      </trkpt>
      <trkpt lat="45.50526" lon="6.67182">
        <ele>2029.98</ele>
        <time>2016-03-23T10:39:24Z</time>
      </trkpt>
      <trkpt lat="45.50513" lon="6.67213">
        <ele>2026.01</ele>
        <time>2016-03-23T10:39:27Z</time>
      </trkpt>
      <trkpt lat="45.50502" lon="6.6724">
        <ele>2022.78</ele>
        <time>2016-03-23T10:39:30Z</time>
      </trkpt>
      <trkpt lat="45.50502" lon="6.67269">
        <ele>2016.68</ele>
        <time>2016-03-23T10:39:33Z</time>
      </trkpt>
      <trkpt lat="45.50496" lon="6.673">
        <ele>2012.7</ele>
        <time>2016-03-23T10:39:35Z</time>
      </trkpt>
      <trkpt lat="45.50491" lon="6.6733">
        <ele>2011.58</ele>
        <time>2016-03-23T10:39:37Z</time>
      </trkpt>
      <trkpt lat="45.50483" lon="6.67367">
        <ele>2010.57</ele>
        <time>2016-03-23T10:39:40Z</time>
      </trkpt>
      <trkpt lat="45.50477" lon="6.67393">
        <ele>2004.84</ele>
        <time>2016-03-23T10:39:43Z</time>
      </trkpt>
      <trkpt lat="45.50478" lon="6.67427">
        <ele>1999.7</ele>
        <time>2016-03-23T10:39:46Z</time>
      </trkpt>
      <trkpt lat="45.50479" lon="6.67456">
        <ele>1997.77</ele>
        <time>2016-03-23T10:39:49Z</time>
      </trkpt>
      <trkpt lat="45.50482" lon="6.67482">
        <ele>1988.64</ele>
        <time>2016-03-23T10:39:55Z</time>
      </trkpt>
      <trkpt lat="45.50486" lon="6.67508">
        <ele>1984.79</ele>
        <time>2016-03-23T10:40:00Z</time>
      </trkpt>
      <trkpt lat="45.50489" lon="6.67536">
        <ele>1988.12</ele>
        <time>2016-03-23T10:40:06Z</time>
      </trkpt>
      <trkpt lat="45.50495" lon="6.67562">
        <ele>1987.19</ele>
        <time>2016-03-23T10:40:13Z</time>
      </trkpt>
      <trkpt lat="45.50497" lon="6.67589">
        <ele>1983.57</ele>
        <time>2016-03-23T10:40:28Z</time>
      </trkpt>
      <trkpt lat="45.505" lon="6.67614">
        <ele>1976.36</ele>
        <time>2016-03-23T10:40:41Z</time>
      </trkpt>
      <trkpt lat="45.50504" lon="6.67641">
        <ele>1979.53</ele>
        <time>2016-03-23T10:41:00Z</time>
      </trkpt>
      <trkpt lat="45.50489" lon="6.67657">
        <ele>1990.37</ele>
        <time>2016-03-23T10:41:57Z</time>
      </trkpt>
      <trkpt lat="45.5047" lon="6.67665">
        <ele>1987.5</ele>
        <time>2016-03-23T10:42:03Z</time>
      </trkpt>
      <trkpt lat="45.5045" lon="6.67669">
        <ele>1994.43</ele>
        <time>2016-03-23T10:42:10Z</time>
      </trkpt>
      <trkpt lat="45.50429" lon="6.67673">
        <ele>2000.45</ele>
        <time>2016-03-23T10:42:17Z</time>
      </trkpt>
      <trkpt lat="45.50409" lon="6.67676">
        <ele>2004.32</ele>
        <time>2016-03-23T10:42:23Z</time>
      </trkpt>
      <trkpt lat="45.5039" lon="6.67682">
        <ele>2007.69</ele>
        <time>2016-03-23T10:42:29Z</time>
      </trkpt>
      <trkpt lat="45.50371" lon="6.67687">
        <ele>2011.29</ele>
        <time>2016-03-23T10:42:36Z</time>
      </trkpt>
      <trkpt lat="45.5035" lon="6.67691">
        <ele>2017.88</ele>
        <time>2016-03-23T10:42:43Z</time>
      </trkpt>
      <trkpt lat="45.50332" lon="6.67697">
        <ele>2022.12</ele>
        <time>2016-03-23T10:42:49Z</time>
      </trkpt>
      <trkpt lat="45.50313" lon="6.67701">
        <ele>2026.48</ele>
        <time>2016-03-23T10:42:55Z</time>
      </trkpt>
      <trkpt lat="45.50293" lon="6.67705">
        <ele>2031.29</ele>
        <time>2016-03-23T10:43:02Z</time>
      </trkpt>
      <trkpt lat="45.50274" lon="6.67708">
        <ele>2034.33</ele>
        <time>2016-03-23T10:43:08Z</time>
      </trkpt>
      <trkpt lat="45.50255" lon="6.67712">
        <ele>2037.52</ele>
        <time>2016-03-23T10:43:14Z</time>
      </trkpt>
      <trkpt lat="45.50236" lon="6.67717">
        <ele>2038.33</ele>
        <time>2016-03-23T10:43:20Z</time>
      </trkpt>
      <trkpt lat="45.50217" lon="6.67719">
        <ele>2040.29</ele>
        <time>2016-03-23T10:43:26Z</time>
      </trkpt>
      <trkpt lat="45.50197" lon="6.67726">
        <ele>2047.84</ele>
        <time>2016-03-23T10:43:33Z</time>
      </trkpt>
      <trkpt lat="45.50176" lon="6.67731">
        <ele>2056.49</ele>
        <time>2016-03-23T10:43:40Z</time>
      </trkpt>
      <trkpt lat="45.50158" lon="6.67734">
        <ele>2063.27</ele>
        <time>2016-03-23T10:43:46Z</time>
      </trkpt>
      <trkpt lat="45.50139" lon="6.67745">
        <ele>2070.88</ele>
        <time>2016-03-23T10:43:54Z</time>
      </trkpt>
      <trkpt lat="45.50121" lon="6.67749">
        <ele>2079.27</ele>
        <time>2016-03-23T10:44:00Z</time>
      </trkpt>
      <trkpt lat="45.50102" lon="6.67752">
        <ele>2083.28</ele>
        <time>2016-03-23T10:44:06Z</time>
      </trkpt>
      <trkpt lat="45.50082" lon="6.6776">
        <ele>2089.13</ele>
        <time>2016-03-23T10:44:13Z</time>
      </trkpt>
      <trkpt lat="45.50062" lon="6.67771">
        <ele>2093.34</ele>
        <time>2016-03-23T10:44:21Z</time>
      </trkpt>
      <trkpt lat="45.50043" lon="6.67775">
        <ele>2098.29</ele>
        <time>2016-03-23T10:44:27Z</time>
      </trkpt>
      <trkpt lat="45.50023" lon="6.67776">
        <ele>2102.48</ele>
        <time>2016-03-23T10:44:33Z</time>
      </trkpt>
      <trkpt lat="45.50003" lon="6.6778">
        <ele>2110.07</ele>
        <time>2016-03-23T10:44:39Z</time>
      </trkpt>
      <trkpt lat="45.49982" lon="6.67785">
        <ele>2117.27</ele>
        <time>2016-03-23T10:44:46Z</time>
      </trkpt>
      <trkpt lat="45.49964" lon="6.6779">
        <ele>2121.28</ele>
        <time>2016-03-23T10:44:52Z</time>
      </trkpt>
      <trkpt lat="45.49945" lon="6.67794">
        <ele>2129.08</ele>
        <time>2016-03-23T10:44:58Z</time>
      </trkpt>
      <trkpt lat="45.49928" lon="6.67799">
        <ele>2136.07</ele>
        <time>2016-03-23T10:45:04Z</time>
      </trkpt>
      <trkpt lat="45.49908" lon="6.67805">
        <ele>2146.24</ele>
        <time>2016-03-23T10:45:11Z</time>
      </trkpt>
      <trkpt lat="45.49889" lon="6.6781">
        <ele>2154.51</ele>
        <time>2016-03-23T10:45:18Z</time>
      </trkpt>
      <trkpt lat="45.4987" lon="6.67815">
        <ele>2160.44</ele>
        <time>2016-03-23T10:45:25Z</time>
      </trkpt>
      <trkpt lat="45.49852" lon="6.67818">
        <ele>2165.52</ele>
        <time>2016-03-23T10:45:31Z</time>
      </trkpt>
      <trkpt lat="45.49834" lon="6.67823">
        <ele>2170.32</ele>
        <time>2016-03-23T10:45:37Z</time>
      </trkpt>
      <trkpt lat="45.49815" lon="6.67827">
        <ele>2176.25</ele>
        <time>2016-03-23T10:45:43Z</time>
      </trkpt>
      <trkpt lat="45.49795" lon="6.67832">
        <ele>2183.27</ele>
        <time>2016-03-23T10:45:50Z</time>
      </trkpt>
      <trkpt lat="45.49774" lon="6.67836">
        <ele>2189.51</ele>
        <time>2016-03-23T10:45:57Z</time>
      </trkpt>
      <trkpt lat="45.49754" lon="6.67843">
        <ele>2193.52</ele>
        <time>2016-03-23T10:46:04Z</time>
      </trkpt>
      <trkpt lat="45.49735" lon="6.67845">
        <ele>2197.48</ele>
        <time>2016-03-23T10:46:10Z</time>
      </trkpt>
      <trkpt lat="45.49717" lon="6.67848">
        <ele>2202.52</ele>
        <time>2016-03-23T10:46:16Z</time>
      </trkpt>
      <trkpt lat="45.49697" lon="6.67854">
        <ele>2206.33</ele>
        <time>2016-03-23T10:46:22Z</time>
      </trkpt>
      <trkpt lat="45.49678" lon="6.67858">
        <ele>2208.52</ele>
        <time>2016-03-23T10:46:28Z</time>
      </trkpt>
      <trkpt lat="45.4966" lon="6.67863">
        <ele>2214.05</ele>
        <time>2016-03-23T10:46:34Z</time>
      </trkpt>
      <trkpt lat="45.49641" lon="6.6787">
        <ele>2220.28</ele>
        <time>2016-03-23T10:46:41Z</time>
      </trkpt>
      <trkpt lat="45.49621" lon="6.67875">
        <ele>2226.48</ele>
        <time>2016-03-23T10:46:48Z</time>
      </trkpt>
      <trkpt lat="45.49601" lon="6.67878">
        <ele>2235.08</ele>
        <time>2016-03-23T10:46:55Z</time>
      </trkpt>
      <trkpt lat="45.49582" lon="6.67885">
        <ele>2238.49</ele>
        <time>2016-03-23T10:47:01Z</time>
      </trkpt>
      <trkpt lat="45.49564" lon="6.67888">
        <ele>2241.33</ele>
        <time>2016-03-23T10:47:07Z</time>
      </trkpt>
      <trkpt lat="45.49546" lon="6.67893">
        <ele>2245.49</ele>
        <time>2016-03-23T10:47:13Z</time>
      </trkpt>
      <trkpt lat="45.49526" lon="6.67896">
        <ele>2248.48</ele>
        <time>2016-03-23T10:47:19Z</time>
      </trkpt>
      <trkpt lat="45.49508" lon="6.679">
        <ele>2254.31</ele>
        <time>2016-03-23T10:47:25Z</time>
      </trkpt>
      <trkpt lat="45.49489" lon="6.67906">
        <ele>2259.29</ele>
        <time>2016-03-23T10:47:31Z</time>
      </trkpt>
      <trkpt lat="45.49471" lon="6.67909">
        <ele>2266.23</ele>
        <time>2016-03-23T10:47:37Z</time>
      </trkpt>
      <trkpt lat="45.49453" lon="6.67914">
        <ele>2272.25</ele>
        <time>2016-03-23T10:47:43Z</time>
      </trkpt>
      <trkpt lat="45.49433" lon="6.67921">
        <ele>2279.12</ele>
        <time>2016-03-23T10:47:50Z</time>
      </trkpt>
      <trkpt lat="45.49412" lon="6.67925">
        <ele>2285.28</ele>
        <time>2016-03-23T10:47:57Z</time>
      </trkpt>
      <trkpt lat="45.49394" lon="6.6793">
        <ele>2290.11</ele>
        <time>2016-03-23T10:48:03Z</time>
      </trkpt>
      <trkpt lat="45.49374" lon="6.67935">
        <ele>2293.53</ele>
        <time>2016-03-23T10:48:10Z</time>
      </trkpt>
      <trkpt lat="45.49355" lon="6.6794">
        <ele>2294.5</ele>
        <time>2016-03-23T10:48:18Z</time>
      </trkpt>
      <trkpt lat="45.49345" lon="6.67918">
        <ele>2297.57</ele>
        <time>2016-03-23T10:48:53Z</time>
      </trkpt>
      <trkpt lat="45.49354" lon="6.67887">
        <ele>2294.54</ele>
        <time>2016-03-23T10:49:01Z</time>
      </trkpt>
      <trkpt lat="45.49367" lon="6.67867">
        <ele>2291.81</ele>
        <time>2016-03-23T10:49:04Z</time>
      </trkpt>
      <trkpt lat="45.49381" lon="6.67849">
        <ele>2286.99</ele>
        <time>2016-03-23T10:49:07Z</time>
      </trkpt>
      <trkpt lat="45.49397" lon="6.67828">
        <ele>2281.83</ele>
        <time>2016-03-23T10:49:10Z</time>
      </trkpt>
      <trkpt lat="45.49421" lon="6.67812">
        <ele>2280.57</ele>
        <time>2016-03-23T10:49:13Z</time>
      </trkpt>
      <trkpt lat="45.49439" lon="6.6779">
        <ele>2274.05</ele>
        <time>2016-03-23T10:49:17Z</time>
      </trkpt>
      <trkpt lat="45.49455" lon="6.67774">
        <ele>2268</ele>
        <time>2016-03-23T10:49:20Z</time>
      </trkpt>
      <trkpt lat="45.49473" lon="6.67758">
        <ele>2264.81</ele>
        <time>2016-03-23T10:49:23Z</time>
      </trkpt>
      <trkpt lat="45.49491" lon="6.67745">
        <ele>2257.63</ele>
        <time>2016-03-23T10:49:27Z</time>
      </trkpt>
      <trkpt lat="45.49512" lon="6.67731">
        <ele>2248.43</ele>
        <time>2016-03-23T10:49:31Z</time>
      </trkpt>
      <trkpt lat="45.49532" lon="6.67717">
        <ele>2241.11</ele>
        <time>2016-03-23T10:49:34Z</time>
      </trkpt>
      <trkpt lat="45.49563" lon="6.67714">
        <ele>2236.95</ele>
        <time>2016-03-23T10:49:37Z</time>
      </trkpt>
      <trkpt lat="45.49585" lon="6.67717">
        <ele>2226.87</ele>
        <time>2016-03-23T10:49:40Z</time>
      </trkpt>
      <trkpt lat="45.49605" lon="6.67706">
        <ele>2223.78</ele>
        <time>2016-03-23T10:49:43Z</time>
      </trkpt>
      <trkpt lat="45.49627" lon="6.67705">
        <ele>2221.13</ele>
        <time>2016-03-23T10:49:46Z</time>
      </trkpt>
      <trkpt lat="45.49651" lon="6.67705">
        <ele>2217.78</ele>
        <time>2016-03-23T10:49:49Z</time>
      </trkpt>
      <trkpt lat="45.49673" lon="6.67706">
        <ele>2213.63</ele>
        <time>2016-03-23T10:49:52Z</time>
      </trkpt>
      <trkpt lat="45.49691" lon="6.67691">
        <ele>2209.02</ele>
        <time>2016-03-23T10:49:55Z</time>
      </trkpt>
      <trkpt lat="45.49712" lon="6.6768">
        <ele>2206.74</ele>
        <time>2016-03-23T10:49:58Z</time>
      </trkpt>
      <trkpt lat="45.49726" lon="6.67652">
        <ele>2202.98</ele>
        <time>2016-03-23T10:50:01Z</time>
      </trkpt>
      <trkpt lat="45.49734" lon="6.67624">
        <ele>2191.59</ele>
        <time>2016-03-23T10:50:04Z</time>
      </trkpt>
      <trkpt lat="45.49757" lon="6.67608">
        <ele>2182.28</ele>
        <time>2016-03-23T10:50:07Z</time>
      </trkpt>
      <trkpt lat="45.49777" lon="6.67599">
        <ele>2179.64</ele>
        <time>2016-03-23T10:50:09Z</time>
      </trkpt>
      <trkpt lat="45.49796" lon="6.67585">
        <ele>2177.78</ele>
        <time>2016-03-23T10:50:11Z</time>
      </trkpt>
      <trkpt lat="45.49819" lon="6.67569">
        <ele>2170.88</ele>
        <time>2016-03-23T10:50:14Z</time>
      </trkpt>
      <trkpt lat="45.49843" lon="6.67562">
        <ele>2165.86</ele>
        <time>2016-03-23T10:50:17Z</time>
      </trkpt>
      <trkpt lat="45.49861" lon="6.67551">
        <ele>2163.78</ele>
        <time>2016-03-23T10:50:19Z</time>
      </trkpt>
      <trkpt lat="45.49882" lon="6.67545">
        <ele>2160.82</ele>
        <time>2016-03-23T10:50:21Z</time>
      </trkpt>
      <trkpt lat="45.49899" lon="6.67541">
        <ele>2157.18</ele>
        <time>2016-03-23T10:50:23Z</time>
      </trkpt>
      <trkpt lat="45.49917" lon="6.67558">
        <ele>2150.38</ele>
        <time>2016-03-23T10:50:27Z</time>
      </trkpt>
      <trkpt lat="45.49937" lon="6.67583">
        <ele>2145.67</ele>
        <time>2016-03-23T10:50:30Z</time>
      </trkpt>
      <trkpt lat="45.49953" lon="6.67604">
        <ele>2141.06</ele>
        <time>2016-03-23T10:50:32Z</time>
      </trkpt>
      <trkpt lat="45.4997" lon="6.67624">
        <ele>2137.03</ele>
        <time>2016-03-23T10:50:34Z</time>
      </trkpt>
      <trkpt lat="45.49986" lon="6.67643">
        <ele>2132.82</ele>
        <time>2016-03-23T10:50:37Z</time>
      </trkpt>
      <trkpt lat="45.49997" lon="6.67665">
        <ele>2129.97</ele>
        <time>2016-03-23T10:50:40Z</time>
      </trkpt>
      <trkpt lat="45.50011" lon="6.67686">
        <ele>2125.79</ele>
        <time>2016-03-23T10:50:43Z</time>
      </trkpt>
      <trkpt lat="45.50029" lon="6.67701">
        <ele>2120.83</ele>
        <time>2016-03-23T10:50:46Z</time>
      </trkpt>
      <trkpt lat="45.5005" lon="6.67712">
        <ele>2115.22</ele>
        <time>2016-03-23T10:50:49Z</time>
      </trkpt>
      <trkpt lat="45.50071" lon="6.67733">
        <ele>2109.83</ele>
        <time>2016-03-23T10:50:52Z</time>
      </trkpt>
      <trkpt lat="45.50092" lon="6.67751">
        <ele>2104.86</ele>
        <time>2016-03-23T10:50:55Z</time>
      </trkpt>
      <trkpt lat="45.50114" lon="6.67752">
        <ele>2099.42</ele>
        <time>2016-03-23T10:50:57Z</time>
      </trkpt>
      <trkpt lat="45.50138" lon="6.67748">
        <ele>2095.05</ele>
        <time>2016-03-23T10:50:59Z</time>
      </trkpt>
      <trkpt lat="45.50171" lon="6.6775">
        <ele>2091.99</ele>
        <time>2016-03-23T10:51:01Z</time>
      </trkpt>
      <trkpt lat="45.50198" lon="6.67741">
        <ele>2088.83</ele>
        <time>2016-03-23T10:51:03Z</time>
      </trkpt>
      <trkpt lat="45.50216" lon="6.6774">
        <ele>2076.28</ele>
        <time>2016-03-23T10:51:06Z</time>
      </trkpt>
      <trkpt lat="45.50242" lon="6.67734">
        <ele>2073</ele>
        <time>2016-03-23T10:51:08Z</time>
      </trkpt>
      <trkpt lat="45.5027" lon="6.67728">
        <ele>2069.99</ele>
        <time>2016-03-23T10:51:10Z</time>
      </trkpt>
      <trkpt lat="45.50296" lon="6.6773">
        <ele>2053.93</ele>
        <time>2016-03-23T10:51:14Z</time>
      </trkpt>
      <trkpt lat="45.50317" lon="6.67735">
        <ele>2050.03</ele>
        <time>2016-03-23T10:51:16Z</time>
      </trkpt>
      <trkpt lat="45.50337" lon="6.67742">
        <ele>2046.99</ele>
        <time>2016-03-23T10:51:18Z</time>
      </trkpt>
      <trkpt lat="45.50359" lon="6.67757">
        <ele>2041.99</ele>
        <time>2016-03-23T10:51:21Z</time>
      </trkpt>
      <trkpt lat="45.50374" lon="6.67774">
        <ele>2036.99</ele>
        <time>2016-03-23T10:51:24Z</time>
      </trkpt>
      <trkpt lat="45.50394" lon="6.67765">
        <ele>2031.99</ele>
        <time>2016-03-23T10:51:27Z</time>
      </trkpt>
      <trkpt lat="45.50418" lon="6.67748">
        <ele>2025.04</ele>
        <time>2016-03-23T10:51:30Z</time>
      </trkpt>
      <trkpt lat="45.50443" lon="6.67741">
        <ele>2021.62</ele>
        <time>2016-03-23T10:51:33Z</time>
      </trkpt>
      <trkpt lat="45.50458" lon="6.67755">
        <ele>2015.8</ele>
        <time>2016-03-23T10:51:37Z</time>
      </trkpt>
      <trkpt lat="45.50474" lon="6.67769">
        <ele>2012.81</ele>
        <time>2016-03-23T10:51:40Z</time>
      </trkpt>
      <trkpt lat="45.50493" lon="6.67768">
        <ele>2008.02</ele>
        <time>2016-03-23T10:51:43Z</time>
      </trkpt>
      <trkpt lat="45.50518" lon="6.67773">
        <ele>2003.39</ele>
        <time>2016-03-23T10:51:47Z</time>
      </trkpt>
      <trkpt lat="45.50531" lon="6.67754">
        <ele>2005.48</ele>
        <time>2016-03-23T10:51:51Z</time>
      </trkpt>
      <trkpt lat="45.50533" lon="6.67728">
        <ele>1989.37</ele>
        <time>2016-03-23T10:52:32Z</time>
      </trkpt>
      <trkpt lat="45.50514" lon="6.67733">
        <ele>1979.49</ele>
        <time>2016-03-23T10:54:14Z</time>
      </trkpt>
      <trkpt lat="45.50495" lon="6.67737">
        <ele>1981.29</ele>
        <time>2016-03-23T10:54:16Z</time>
      </trkpt>
      <trkpt lat="45.50477" lon="6.67746">
        <ele>1992.35</ele>
        <time>2016-03-23T10:54:19Z</time>
      </trkpt>
      <trkpt lat="45.50457" lon="6.67759">
        <ele>2002.07</ele>
        <time>2016-03-23T10:54:23Z</time>
      </trkpt>
      <trkpt lat="45.50436" lon="6.6777">
        <ele>2008.23</ele>
        <time>2016-03-23T10:54:27Z</time>
      </trkpt>
      <trkpt lat="45.50415" lon="6.67779">
        <ele>2016.03</ele>
        <time>2016-03-23T10:54:31Z</time>
      </trkpt>
      <trkpt lat="45.50393" lon="6.67789">
        <ele>2022.23</ele>
        <time>2016-03-23T10:54:35Z</time>
      </trkpt>
      <trkpt lat="45.50373" lon="6.67798">
        <ele>2027.27</ele>
        <time>2016-03-23T10:54:39Z</time>
      </trkpt>
      <trkpt lat="45.50352" lon="6.67807">
        <ele>2034.04</ele>
        <time>2016-03-23T10:54:43Z</time>
      </trkpt>
      <trkpt lat="45.50333" lon="6.67816">
        <ele>2040.04</ele>
        <time>2016-03-23T10:54:47Z</time>
      </trkpt>
      <trkpt lat="45.50312" lon="6.67826">
        <ele>2044.29</ele>
        <time>2016-03-23T10:54:51Z</time>
      </trkpt>
      <trkpt lat="45.50293" lon="6.67838">
        <ele>2048.28</ele>
        <time>2016-03-23T10:54:55Z</time>
      </trkpt>
      <trkpt lat="45.50274" lon="6.67848">
        <ele>2052.28</ele>
        <time>2016-03-23T10:54:59Z</time>
      </trkpt>
      <trkpt lat="45.50255" lon="6.67858">
        <ele>2057.31</ele>
        <time>2016-03-23T10:55:03Z</time>
      </trkpt>
      <trkpt lat="45.50235" lon="6.67867">
        <ele>2064.2</ele>
        <time>2016-03-23T10:55:07Z</time>
      </trkpt>
      <trkpt lat="45.50216" lon="6.67877">
        <ele>2072.04</ele>
        <time>2016-03-23T10:55:11Z</time>
      </trkpt>
      <trkpt lat="45.50195" lon="6.67887">
        <ele>2078.04</ele>
        <time>2016-03-23T10:55:15Z</time>
      </trkpt>
      <trkpt lat="45.50175" lon="6.67897">
        <ele>2085.23</ele>
        <time>2016-03-23T10:55:19Z</time>
      </trkpt>
      <trkpt lat="45.50157" lon="6.67908">
        <ele>2092.26</ele>
        <time>2016-03-23T10:55:23Z</time>
      </trkpt>
      <trkpt lat="45.50139" lon="6.67919">
        <ele>2099.23</ele>
        <time>2016-03-23T10:55:27Z</time>
      </trkpt>
      <trkpt lat="45.5012" lon="6.67929">
        <ele>2106.04</ele>
        <time>2016-03-23T10:55:31Z</time>
      </trkpt>
      <trkpt lat="45.50103" lon="6.67939">
        <ele>2112.24</ele>
        <time>2016-03-23T10:55:35Z</time>
      </trkpt>
      <trkpt lat="45.50083" lon="6.67947">
        <ele>2116.28</ele>
        <time>2016-03-23T10:55:39Z</time>
      </trkpt>
      <trkpt lat="45.50062" lon="6.67959">
        <ele>2120.08</ele>
        <time>2016-03-23T10:55:43Z</time>
      </trkpt>
      <trkpt lat="45.50041" lon="6.67969">
        <ele>2124.27</ele>
        <time>2016-03-23T10:55:47Z</time>
      </trkpt>
      <trkpt lat="45.50022" lon="6.67981">
        <ele>2131.07</ele>
        <time>2016-03-23T10:55:51Z</time>
      </trkpt>
      <trkpt lat="45.50002" lon="6.6799">
        <ele>2136.07</ele>
        <time>2016-03-23T10:55:55Z</time>
      </trkpt>
      <trkpt lat="45.49983" lon="6.67999">
        <ele>2141.27</ele>
        <time>2016-03-23T10:55:59Z</time>
      </trkpt>
      <trkpt lat="45.49963" lon="6.6801">
        <ele>2147.24</ele>
        <time>2016-03-23T10:56:03Z</time>
      </trkpt>
      <trkpt lat="45.49944" lon="6.68019">
        <ele>2154.84</ele>
        <time>2016-03-23T10:56:07Z</time>
      </trkpt>
      <trkpt lat="45.49924" lon="6.68029">
        <ele>2160.28</ele>
        <time>2016-03-23T10:56:11Z</time>
      </trkpt>
      <trkpt lat="45.49904" lon="6.6804">
        <ele>2165.24</ele>
        <time>2016-03-23T10:56:15Z</time>
      </trkpt>
      <trkpt lat="45.49884" lon="6.6805">
        <ele>2171.23</ele>
        <time>2016-03-23T10:56:19Z</time>
      </trkpt>
      <trkpt lat="45.49865" lon="6.6806">
        <ele>2177.27</ele>
        <time>2016-03-23T10:56:23Z</time>
      </trkpt>
      <trkpt lat="45.49846" lon="6.68069">
        <ele>2185.02</ele>
        <time>2016-03-23T10:56:27Z</time>
      </trkpt>
      <trkpt lat="45.49827" lon="6.68079">
        <ele>2190.27</ele>
        <time>2016-03-23T10:56:31Z</time>
      </trkpt>
      <trkpt lat="45.4981" lon="6.68089">
        <ele>2201.78</ele>
        <time>2016-03-23T10:56:35Z</time>
      </trkpt>
      <trkpt lat="45.49791" lon="6.68098">
        <ele>2209.01</ele>
        <time>2016-03-23T10:56:39Z</time>
      </trkpt>
      <trkpt lat="45.49774" lon="6.68108">
        <ele>2217.03</ele>
        <time>2016-03-23T10:56:43Z</time>
      </trkpt>
      <trkpt lat="45.49754" lon="6.68118">
        <ele>2223.04</ele>
        <time>2016-03-23T10:56:47Z</time>
      </trkpt>
      <trkpt lat="45.49735" lon="6.6813">
        <ele>2230.03</ele>
        <time>2016-03-23T10:56:51Z</time>
      </trkpt>
      <trkpt lat="45.49717" lon="6.6814">
        <ele>2237.04</ele>
        <time>2016-03-23T10:56:55Z</time>
      </trkpt>
      <trkpt lat="45.49698" lon="6.6815">
        <ele>2244.03</ele>
        <time>2016-03-23T10:56:59Z</time>
      </trkpt>
      <trkpt lat="45.49679" lon="6.6816">
        <ele>2250.04</ele>
        <time>2016-03-23T10:57:03Z</time>
      </trkpt>
      <trkpt lat="45.49661" lon="6.68169">
        <ele>2258.03</ele>
        <time>2016-03-23T10:57:07Z</time>
      </trkpt>
      <trkpt lat="45.49642" lon="6.68178">
        <ele>2265.07</ele>
        <time>2016-03-23T10:57:11Z</time>
      </trkpt>
      <trkpt lat="45.49623" lon="6.68189">
        <ele>2272.07</ele>
        <time>2016-03-23T10:57:15Z</time>
      </trkpt>
      <trkpt lat="45.49605" lon="6.682">
        <ele>2281.02</ele>
        <time>2016-03-23T10:57:19Z</time>
      </trkpt>
      <trkpt lat="45.49587" lon="6.68211">
        <ele>2288.23</ele>
        <time>2016-03-23T10:57:23Z</time>
      </trkpt>
      <trkpt lat="45.49567" lon="6.6822">
        <ele>2294.87</ele>
        <time>2016-03-23T10:57:27Z</time>
      </trkpt>
      <trkpt lat="45.49547" lon="6.68228">
        <ele>2303.23</ele>
        <time>2016-03-23T10:57:31Z</time>
      </trkpt>
      <trkpt lat="45.49527" lon="6.68238">
        <ele>2313.79</ele>
        <time>2016-03-23T10:57:35Z</time>
      </trkpt>
      <trkpt lat="45.49509" lon="6.68249">
        <ele>2325.81</ele>
        <time>2016-03-23T10:57:39Z</time>
      </trkpt>
      <trkpt lat="45.49489" lon="6.68257">
        <ele>2330.88</ele>
        <time>2016-03-23T10:57:43Z</time>
      </trkpt>
      <trkpt lat="45.4947" lon="6.68267">
        <ele>2340.03</ele>
        <time>2016-03-23T10:57:47Z</time>
      </trkpt>
      <trkpt lat="45.49452" lon="6.68277">
        <ele>2350.82</ele>
        <time>2016-03-23T10:57:51Z</time>
      </trkpt>
      <trkpt lat="45.49433" lon="6.68286">
        <ele>2361.01</ele>
        <time>2016-03-23T10:57:55Z</time>
      </trkpt>
      <trkpt lat="45.49413" lon="6.68296">
        <ele>2371.98</ele>
        <time>2016-03-23T10:57:59Z</time>
      </trkpt>
      <trkpt lat="45.49395" lon="6.68305">
        <ele>2383.17</ele>
        <time>2016-03-23T10:58:03Z</time>
      </trkpt>
      <trkpt lat="45.49377" lon="6.68315">
        <ele>2393.82</ele>
        <time>2016-03-23T10:58:07Z</time>
      </trkpt>
      <trkpt lat="45.4936" lon="6.68324">
        <ele>2406.74</ele>
        <time>2016-03-23T10:58:11Z</time>
      </trkpt>
      <trkpt lat="45.49341" lon="6.68333">
        <ele>2417.99</ele>
        <time>2016-03-23T10:58:15Z</time>
      </trkpt>
      <trkpt lat="45.49323" lon="6.68342">
        <ele>2427.98</ele>
        <time>2016-03-23T10:58:19Z</time>
      </trkpt>
      <trkpt lat="45.49306" lon="6.68351">
        <ele>2438.98</ele>
        <time>2016-03-23T10:58:23Z</time>
      </trkpt>
      <trkpt lat="45.49289" lon="6.6836">
        <ele>2452.53</ele>
        <time>2016-03-23T10:58:27Z</time>
      </trkpt>
      <trkpt lat="45.4927" lon="6.6837">
        <ele>2462.95</ele>
        <time>2016-03-23T10:58:31Z</time>
      </trkpt>
      <trkpt lat="45.49253" lon="6.6838">
        <ele>2472.83</ele>
        <time>2016-03-23T10:58:35Z</time>
      </trkpt>
      <trkpt lat="45.49235" lon="6.68389">
        <ele>2482.04</ele>
        <time>2016-03-23T10:58:39Z</time>
      </trkpt>
      <trkpt lat="45.49216" lon="6.68399">
        <ele>2489.27</ele>
        <time>2016-03-23T10:58:43Z</time>
      </trkpt>
      <trkpt lat="45.49195" lon="6.68409">
        <ele>2492.32</ele>
        <time>2016-03-23T10:58:47Z</time>
      </trkpt>
      <trkpt lat="45.49179" lon="6.68421">
        <ele>2490.54</ele>
        <time>2016-03-23T10:58:58Z</time>
      </trkpt>
      <trkpt lat="45.49159" lon="6.68429">
        <ele>2491.49</ele>
        <time>2016-03-23T10:59:32Z</time>
      </trkpt>
      <trkpt lat="45.49143" lon="6.68413">
        <ele>2503.29</ele>
        <time>2016-03-23T11:00:17Z</time>
      </trkpt>
      <trkpt lat="45.49134" lon="6.68389">
        <ele>2499.53</ele>
        <time>2016-03-23T11:00:41Z</time>
      </trkpt>
      <trkpt lat="45.49124" lon="6.68363">
        <ele>2498.73</ele>
        <time>2016-03-23T11:00:50Z</time>
      </trkpt>
      <trkpt lat="45.4912" lon="6.68332">
        <ele>2494.75</ele>
        <time>2016-03-23T11:00:56Z</time>
      </trkpt>
      <trkpt lat="45.49116" lon="6.68305">
        <ele>2489.82</ele>
        <time>2016-03-23T11:01:00Z</time>
      </trkpt>
      <trkpt lat="45.49114" lon="6.68278">
        <ele>2484.98</ele>
        <time>2016-03-23T11:01:04Z</time>
      </trkpt>
      <trkpt lat="45.4911" lon="6.68246">
        <ele>2483.38</ele>
        <time>2016-03-23T11:01:08Z</time>
      </trkpt>
      <trkpt lat="45.49101" lon="6.68218">
        <ele>2477.15</ele>
        <time>2016-03-23T11:01:12Z</time>
      </trkpt>
      <trkpt lat="45.49101" lon="6.68191">
        <ele>2475.77</ele>
        <time>2016-03-23T11:01:15Z</time>
      </trkpt>
      <trkpt lat="45.49101" lon="6.68159">
        <ele>2473.58</ele>
        <time>2016-03-23T11:01:18Z</time>
      </trkpt>
      <trkpt lat="45.49079" lon="6.68148">
        <ele>2455.6</ele>
        <time>2016-03-23T11:01:22Z</time>
      </trkpt>
      <trkpt lat="45.49063" lon="6.68136">
        <ele>2443.24</ele>
        <time>2016-03-23T11:01:25Z</time>
      </trkpt>
      <trkpt lat="45.49062" lon="6.68106">
        <ele>2435.24</ele>
        <time>2016-03-23T11:01:28Z</time>
      </trkpt>
      <trkpt lat="45.49058" lon="6.68077">
        <ele>2431.77</ele>
        <time>2016-03-23T11:01:32Z</time>
      </trkpt>
      <trkpt lat="45.49041" lon="6.68066">
        <ele>2419.97</ele>
        <time>2016-03-23T11:01:36Z</time>
      </trkpt>
      <trkpt lat="45.4905" lon="6.68043">
        <ele>2415.77</ele>
        <time>2016-03-23T11:01:44Z</time>
      </trkpt>
      <trkpt lat="45.49066" lon="6.68024">
        <ele>2413.74</ele>
        <time>2016-03-23T11:01:50Z</time>
      </trkpt>
      <trkpt lat="45.49076" lon="6.67999">
        <ele>2404.8</ele>
        <time>2016-03-23T11:01:56Z</time>
      </trkpt>
      <trkpt lat="45.4909" lon="6.67979">
        <ele>2391.87</ele>
        <time>2016-03-23T11:02:02Z</time>
      </trkpt>
      <trkpt lat="45.49106" lon="6.67957">
        <ele>2381.84</ele>
        <time>2016-03-23T11:02:07Z</time>
      </trkpt>
      <trkpt lat="45.49123" lon="6.67941">
        <ele>2378.01</ele>
        <time>2016-03-23T11:02:10Z</time>
      </trkpt>
      <trkpt lat="45.49145" lon="6.67937">
        <ele>2368.73</ele>
        <time>2016-03-23T11:02:14Z</time>
      </trkpt>
      <trkpt lat="45.49164" lon="6.67942">
        <ele>2362.2</ele>
        <time>2016-03-23T11:02:17Z</time>
      </trkpt>
      <trkpt lat="45.49185" lon="6.67936">
        <ele>2357.82</ele>
        <time>2016-03-23T11:02:20Z</time>
      </trkpt>
      <trkpt lat="45.49208" lon="6.6794">
        <ele>2353.82</ele>
        <time>2016-03-23T11:02:23Z</time>
      </trkpt>
      <trkpt lat="45.49233" lon="6.67945">
        <ele>2348.99</ele>
        <time>2016-03-23T11:02:26Z</time>
      </trkpt>
      <trkpt lat="45.49257" lon="6.67942">
        <ele>2341.62</ele>
        <time>2016-03-23T11:02:29Z</time>
      </trkpt>
      <trkpt lat="45.4928" lon="6.67945">
        <ele>2335.04</ele>
        <time>2016-03-23T11:02:32Z</time>
      </trkpt>
      <trkpt lat="45.49298" lon="6.67937">
        <ele>2333.75</ele>
        <time>2016-03-23T11:02:34Z</time>
      </trkpt>
      <trkpt lat="45.49317" lon="6.67931">
        <ele>2325.82</ele>
        <time>2016-03-23T11:02:39Z</time>
      </trkpt>
      <trkpt lat="45.49334" lon="6.67918">
        <ele>2320.61</ele>
        <time>2016-03-23T11:02:46Z</time>
      </trkpt>
      <trkpt lat="45.49343" lon="6.67893">
        <ele>2310.98</ele>
        <time>2016-03-23T11:02:52Z</time>
      </trkpt>
      <trkpt lat="45.49356" lon="6.67875">
        <ele>2308.55</ele>
        <time>2016-03-23T11:02:56Z</time>
      </trkpt>
      <trkpt lat="45.49373" lon="6.67856">
        <ele>2303.78</ele>
        <time>2016-03-23T11:03:00Z</time>
      </trkpt>
      <trkpt lat="45.49386" lon="6.67836">
        <ele>2300.14</ele>
        <time>2016-03-23T11:03:03Z</time>
      </trkpt>
      <trkpt lat="45.49402" lon="6.67822">
        <ele>2295.82</ele>
        <time>2016-03-23T11:03:06Z</time>
      </trkpt>
      <trkpt lat="45.49417" lon="6.67808">
        <ele>2291.98</ele>
        <time>2016-03-23T11:03:09Z</time>
      </trkpt>
      <trkpt lat="45.49432" lon="6.67791">
        <ele>2287.98</ele>
        <time>2016-03-23T11:03:12Z</time>
      </trkpt>
      <trkpt lat="45.4945" lon="6.67772">
        <ele>2281.19</ele>
        <time>2016-03-23T11:03:16Z</time>
      </trkpt>
      <trkpt lat="45.49467" lon="6.6776">
        <ele>2275.06</ele>
        <time>2016-03-23T11:03:19Z</time>
      </trkpt>
      <trkpt lat="45.49485" lon="6.67749">
        <ele>2269.19</ele>
        <time>2016-03-23T11:03:22Z</time>
      </trkpt>
      <trkpt lat="45.49501" lon="6.67727">
        <ele>2259.08</ele>
        <time>2016-03-23T11:03:26Z</time>
      </trkpt>
      <trkpt lat="45.49521" lon="6.67712">
        <ele>2253.83</ele>
        <time>2016-03-23T11:03:29Z</time>
      </trkpt>
      <trkpt lat="45.49547" lon="6.67709">
        <ele>2252.57</ele>
        <time>2016-03-23T11:03:32Z</time>
      </trkpt>
      <trkpt lat="45.49568" lon="6.6771">
        <ele>2245.75</ele>
        <time>2016-03-23T11:03:35Z</time>
      </trkpt>
      <trkpt lat="45.49588" lon="6.67719">
        <ele>2237.24</ele>
        <time>2016-03-23T11:03:38Z</time>
      </trkpt>
      <trkpt lat="45.49607" lon="6.67714">
        <ele>2232.82</ele>
        <time>2016-03-23T11:03:41Z</time>
      </trkpt>
      <trkpt lat="45.49626" lon="6.67707">
        <ele>2228.18</ele>
        <time>2016-03-23T11:03:44Z</time>
      </trkpt>
      <trkpt lat="45.49646" lon="6.67706">
        <ele>2223.63</ele>
        <time>2016-03-23T11:03:47Z</time>
      </trkpt>
      <trkpt lat="45.49667" lon="6.67702">
        <ele>2218.19</ele>
        <time>2016-03-23T11:03:50Z</time>
      </trkpt>
      <trkpt lat="45.49683" lon="6.67689">
        <ele>2212.8</ele>
        <time>2016-03-23T11:03:53Z</time>
      </trkpt>
      <trkpt lat="45.497" lon="6.6767">
        <ele>2207.35</ele>
        <time>2016-03-23T11:03:56Z</time>
      </trkpt>
      <trkpt lat="45.49716" lon="6.67653">
        <ele>2199.91</ele>
        <time>2016-03-23T11:03:59Z</time>
      </trkpt>
      <trkpt lat="45.4973" lon="6.6763">
        <ele>2194.86</ele>
        <time>2016-03-23T11:04:02Z</time>
      </trkpt>
      <trkpt lat="45.49746" lon="6.6761">
        <ele>2187.46</ele>
        <time>2016-03-23T11:04:05Z</time>
      </trkpt>
      <trkpt lat="45.49769" lon="6.67592">
        <ele>2179.88</ele>
        <time>2016-03-23T11:04:08Z</time>
      </trkpt>
      <trkpt lat="45.49787" lon="6.67586">
        <ele>2176.67</ele>
        <time>2016-03-23T11:04:10Z</time>
      </trkpt>
      <trkpt lat="45.49809" lon="6.67576">
        <ele>2173.81</ele>
        <time>2016-03-23T11:04:13Z</time>
      </trkpt>
      <trkpt lat="45.49829" lon="6.67563">
        <ele>2168.03</ele>
        <time>2016-03-23T11:04:16Z</time>
      </trkpt>
      <trkpt lat="45.49849" lon="6.67552">
        <ele>2164.14</ele>
        <time>2016-03-23T11:04:19Z</time>
      </trkpt>
      <trkpt lat="45.49869" lon="6.67554">
        <ele>2158.03</ele>
        <time>2016-03-23T11:04:22Z</time>
      </trkpt>
      <trkpt lat="45.49889" lon="6.6754">
        <ele>2145.72</ele>
        <time>2016-03-23T11:04:54Z</time>
      </trkpt>
      <trkpt lat="45.49908" lon="6.67528">
        <ele>2141.79</ele>
        <time>2016-03-23T11:04:57Z</time>
      </trkpt>
      <trkpt lat="45.49932" lon="6.6752">
        <ele>2137.79</ele>
        <time>2016-03-23T11:05:00Z</time>
      </trkpt>
      <trkpt lat="45.49957" lon="6.67506">
        <ele>2136.38</ele>
        <time>2016-03-23T11:05:03Z</time>
      </trkpt>
      <trkpt lat="45.49976" lon="6.67496">
        <ele>2132.75</ele>
        <time>2016-03-23T11:05:06Z</time>
      </trkpt>
      <trkpt lat="45.49997" lon="6.67479">
        <ele>2131.57</ele>
        <time>2016-03-23T11:05:09Z</time>
      </trkpt>
      <trkpt lat="45.50015" lon="6.67467">
        <ele>2129.58</ele>
        <time>2016-03-23T11:05:12Z</time>
      </trkpt>
      <trkpt lat="45.5003" lon="6.67451">
        <ele>2122.2</ele>
        <time>2016-03-23T11:05:15Z</time>
      </trkpt>
      <trkpt lat="45.50053" lon="6.67441">
        <ele>2117.02</ele>
        <time>2016-03-23T11:05:18Z</time>
      </trkpt>
      <trkpt lat="45.50074" lon="6.67443">
        <ele>2112.02</ele>
        <time>2016-03-23T11:05:21Z</time>
      </trkpt>
      <trkpt lat="45.50098" lon="6.67447">
        <ele>2106.83</ele>
        <time>2016-03-23T11:05:24Z</time>
      </trkpt>
      <trkpt lat="45.50116" lon="6.67453">
        <ele>2104.94</ele>
        <time>2016-03-23T11:05:26Z</time>
      </trkpt>
      <trkpt lat="45.50141" lon="6.67459">
        <ele>2099</ele>
        <time>2016-03-23T11:05:29Z</time>
      </trkpt>
      <trkpt lat="45.50169" lon="6.67458">
        <ele>2092.04</ele>
        <time>2016-03-23T11:05:32Z</time>
      </trkpt>
      <trkpt lat="45.50191" lon="6.67458">
        <ele>2088.99</ele>
        <time>2016-03-23T11:05:34Z</time>
      </trkpt>
      <trkpt lat="45.50209" lon="6.67463">
        <ele>2083.59</ele>
        <time>2016-03-23T11:05:36Z</time>
      </trkpt>
      <trkpt lat="45.50229" lon="6.6747">
        <ele>2079.05</ele>
        <time>2016-03-23T11:05:38Z</time>
      </trkpt>
      <trkpt lat="45.50251" lon="6.67467">
        <ele>2076.79</ele>
        <time>2016-03-23T11:05:40Z</time>
      </trkpt>
      <trkpt lat="45.5027" lon="6.67464">
        <ele>2073.98</ele>
        <time>2016-03-23T11:05:42Z</time>
      </trkpt>
      <trkpt lat="45.50288" lon="6.67455">
        <ele>2065.92</ele>
        <time>2016-03-23T11:05:45Z</time>
      </trkpt>
      <trkpt lat="45.50306" lon="6.67449">
        <ele>2062.83</ele>
        <time>2016-03-23T11:05:47Z</time>
      </trkpt>
      <trkpt lat="45.50325" lon="6.67441">
        <ele>2060.94</ele>
        <time>2016-03-23T11:05:49Z</time>
      </trkpt>
      <trkpt lat="45.50349" lon="6.67436">
        <ele>2051.23</ele>
        <time>2016-03-23T11:05:53Z</time>
      </trkpt>
      <trkpt lat="45.50372" lon="6.67442">
        <ele>2044.26</ele>
        <time>2016-03-23T11:05:56Z</time>
      </trkpt>
      <trkpt lat="45.50392" lon="6.67453">
        <ele>2038.99</ele>
        <time>2016-03-23T11:05:59Z</time>
      </trkpt>
      <trkpt lat="45.50411" lon="6.67468">
        <ele>2032.01</ele>
        <time>2016-03-23T11:06:03Z</time>
      </trkpt>
      <trkpt lat="45.50429" lon="6.67477">
        <ele>2025.84</ele>
        <time>2016-03-23T11:06:06Z</time>
      </trkpt>
      <trkpt lat="45.50444" lon="6.675">
        <ele>2025.72</ele>
        <time>2016-03-23T11:06:11Z</time>
      </trkpt>
      <trkpt lat="45.50461" lon="6.6752">
        <ele>2018.8</ele>
        <time>2016-03-23T11:06:16Z</time>
      </trkpt>
      <trkpt lat="45.50475" lon="6.67539">
        <ele>2016.58</ele>
        <time>2016-03-23T11:06:19Z</time>
      </trkpt>
      <trkpt lat="45.5049" lon="6.67562">
        <ele>2012.82</ele>
        <time>2016-03-23T11:06:23Z</time>
      </trkpt>
      <trkpt lat="45.50497" lon="6.67587">
        <ele>2007.78</ele>
        <time>2016-03-23T11:06:28Z</time>
      </trkpt>
      <trkpt lat="45.50503" lon="6.67613">
        <ele>2002.7</ele>
        <time>2016-03-23T11:06:36Z</time>
      </trkpt>
      <trkpt lat="45.50506" lon="6.67643">
        <ele>1995.91</ele>
        <time>2016-03-23T11:06:44Z</time>
      </trkpt>
      <trkpt lat="45.50494" lon="6.67663">
        <ele>1991.65</ele>
        <time>2016-03-23T11:07:13Z</time>
      </trkpt>
      <trkpt lat="45.50475" lon="6.67667">
        <ele>1991.6</ele>
        <time>2016-03-23T11:07:27Z</time>
      </trkpt>
      <trkpt lat="45.50454" lon="6.67674">
        <ele>1995.45</ele>
        <time>2016-03-23T11:07:34Z</time>
      </trkpt>
      <trkpt lat="45.50435" lon="6.67677">
        <ele>2000.28</ele>
        <time>2016-03-23T11:07:40Z</time>
      </trkpt>
      <trkpt lat="45.50415" lon="6.6768">
        <ele>2006.24</ele>
        <time>2016-03-23T11:07:46Z</time>
      </trkpt>
      <trkpt lat="45.50396" lon="6.67684">
        <ele>2011.28</ele>
        <time>2016-03-23T11:07:52Z</time>
      </trkpt>
      <trkpt lat="45.50376" lon="6.67688">
        <ele>2017.32</ele>
        <time>2016-03-23T11:07:59Z</time>
      </trkpt>
      <trkpt lat="45.50357" lon="6.67693">
        <ele>2026.31</ele>
        <time>2016-03-23T11:08:06Z</time>
      </trkpt>
      <trkpt lat="45.50338" lon="6.67697">
        <ele>2029.29</ele>
        <time>2016-03-23T11:08:12Z</time>
      </trkpt>
      <trkpt lat="45.5032" lon="6.67702">
        <ele>2033.29</ele>
        <time>2016-03-23T11:08:18Z</time>
      </trkpt>
      <trkpt lat="45.50301" lon="6.67707">
        <ele>2037.28</ele>
        <time>2016-03-23T11:08:24Z</time>
      </trkpt>
      <trkpt lat="45.50282" lon="6.67709">
        <ele>2043.48</ele>
        <time>2016-03-23T11:08:30Z</time>
      </trkpt>
      <trkpt lat="45.50262" lon="6.67715">
        <ele>2048.31</ele>
        <time>2016-03-23T11:08:37Z</time>
      </trkpt>
      <trkpt lat="45.50242" lon="6.67723">
        <ele>2053.52</ele>
        <time>2016-03-23T11:08:44Z</time>
      </trkpt>
      <trkpt lat="45.50224" lon="6.67727">
        <ele>2056.33</ele>
        <time>2016-03-23T11:08:50Z</time>
      </trkpt>
      <trkpt lat="45.50204" lon="6.67733">
        <ele>2061.47</ele>
        <time>2016-03-23T11:08:57Z</time>
      </trkpt>
      <trkpt lat="45.50186" lon="6.67737">
        <ele>2066.45</ele>
        <time>2016-03-23T11:09:03Z</time>
      </trkpt>
      <trkpt lat="45.50167" lon="6.6774">
        <ele>2069.56</ele>
        <time>2016-03-23T11:09:09Z</time>
      </trkpt>
      <trkpt lat="45.50148" lon="6.67744">
        <ele>2073.45</ele>
        <time>2016-03-23T11:09:15Z</time>
      </trkpt>
      <trkpt lat="45.5013" lon="6.67746">
        <ele>2078.29</ele>
        <time>2016-03-23T11:09:21Z</time>
      </trkpt>
      <trkpt lat="45.5011" lon="6.67752">
        <ele>2084.28</ele>
        <time>2016-03-23T11:09:28Z</time>
      </trkpt>
      <trkpt lat="45.50089" lon="6.67758">
        <ele>2092.05</ele>
        <time>2016-03-23T11:09:35Z</time>
      </trkpt>
      <trkpt lat="45.50069" lon="6.67765">
        <ele>2099.28</ele>
        <time>2016-03-23T11:09:42Z</time>
      </trkpt>
      <trkpt lat="45.50051" lon="6.67772">
        <ele>2101.33</ele>
        <time>2016-03-23T11:09:48Z</time>
      </trkpt>
      <trkpt lat="45.50031" lon="6.67779">
        <ele>2105.48</ele>
        <time>2016-03-23T11:09:55Z</time>
      </trkpt>
      <trkpt lat="45.50013" lon="6.67783">
        <ele>2112.27</ele>
        <time>2016-03-23T11:10:01Z</time>
      </trkpt>
      <trkpt lat="45.49993" lon="6.67787">
        <ele>2117.12</ele>
        <time>2016-03-23T11:10:07Z</time>
      </trkpt>
      <trkpt lat="45.49975" lon="6.6779">
        <ele>2123.11</ele>
        <time>2016-03-23T11:10:13Z</time>
      </trkpt>
      <trkpt lat="45.49955" lon="6.67798">
        <ele>2128.43</ele>
        <time>2016-03-23T11:10:20Z</time>
      </trkpt>
      <trkpt lat="45.49935" lon="6.67803">
        <ele>2136.12</ele>
        <time>2016-03-23T11:10:27Z</time>
      </trkpt>
      <trkpt lat="45.49915" lon="6.67807">
        <ele>2144.09</ele>
        <time>2016-03-23T11:10:34Z</time>
      </trkpt>
      <trkpt lat="45.49895" lon="6.67814">
        <ele>2154.24</ele>
        <time>2016-03-23T11:10:41Z</time>
      </trkpt>
      <trkpt lat="45.49877" lon="6.67818">
        <ele>2157.52</ele>
        <time>2016-03-23T11:10:47Z</time>
      </trkpt>
      <trkpt lat="45.49857" lon="6.67821">
        <ele>2162.47</ele>
        <time>2016-03-23T11:10:54Z</time>
      </trkpt>
      <trkpt lat="45.49837" lon="6.67827">
        <ele>2170.28</ele>
        <time>2016-03-23T11:11:01Z</time>
      </trkpt>
      <trkpt lat="45.49817" lon="6.67836">
        <ele>2175.32</ele>
        <time>2016-03-23T11:11:08Z</time>
      </trkpt>
      <trkpt lat="45.49799" lon="6.67837">
        <ele>2183.24</ele>
        <time>2016-03-23T11:11:14Z</time>
      </trkpt>
      <trkpt lat="45.49779" lon="6.67844">
        <ele>2186.69</ele>
        <time>2016-03-23T11:11:21Z</time>
      </trkpt>
      <trkpt lat="45.49761" lon="6.6785">
        <ele>2191.32</ele>
        <time>2016-03-23T11:11:27Z</time>
      </trkpt>
      <trkpt lat="45.49743" lon="6.67856">
        <ele>2195.33</ele>
        <time>2016-03-23T11:11:33Z</time>
      </trkpt>
      <trkpt lat="45.49725" lon="6.6786">
        <ele>2199.45</ele>
        <time>2016-03-23T11:11:39Z</time>
      </trkpt>
      <trkpt lat="45.49705" lon="6.67858">
        <ele>2206.27</ele>
        <time>2016-03-23T11:11:45Z</time>
      </trkpt>
      <trkpt lat="45.49687" lon="6.67863">
        <ele>2211.32</ele>
        <time>2016-03-23T11:11:51Z</time>
      </trkpt>
      <trkpt lat="45.49668" lon="6.67867">
        <ele>2215.48</ele>
        <time>2016-03-23T11:11:57Z</time>
      </trkpt>
      <trkpt lat="45.49647" lon="6.67872">
        <ele>2218.52</ele>
        <time>2016-03-23T11:12:04Z</time>
      </trkpt>
      <trkpt lat="45.49629" lon="6.67875">
        <ele>2225.28</ele>
        <time>2016-03-23T11:12:10Z</time>
      </trkpt>
      <trkpt lat="45.49611" lon="6.6788">
        <ele>2231.27</ele>
        <time>2016-03-23T11:12:16Z</time>
      </trkpt>
      <trkpt lat="45.49593" lon="6.67885">
        <ele>2236.51</ele>
        <time>2016-03-23T11:12:22Z</time>
      </trkpt>
      <trkpt lat="45.49574" lon="6.67888">
        <ele>2240.48</ele>
        <time>2016-03-23T11:12:28Z</time>
      </trkpt>
      <trkpt lat="45.49555" lon="6.67894">
        <ele>2243.29</ele>
        <time>2016-03-23T11:12:34Z</time>
      </trkpt>
      <trkpt lat="45.49537" lon="6.67898">
        <ele>2246.49</ele>
        <time>2016-03-23T11:12:40Z</time>
      </trkpt>
      <trkpt lat="45.49516" lon="6.67903">
        <ele>2251.45</ele>
        <time>2016-03-23T11:12:47Z</time>
      </trkpt>
      <trkpt lat="45.49499" lon="6.67906">
        <ele>2256.48</ele>
        <time>2016-03-23T11:12:53Z</time>
      </trkpt>
      <trkpt lat="45.49478" lon="6.67911">
        <ele>2261.48</ele>
        <time>2016-03-23T11:13:00Z</time>
      </trkpt>
      <trkpt lat="45.49458" lon="6.67916">
        <ele>2270.07</ele>
        <time>2016-03-23T11:13:07Z</time>
      </trkpt>
      <trkpt lat="45.49438" lon="6.67919">
        <ele>2276.28</ele>
        <time>2016-03-23T11:13:13Z</time>
      </trkpt>
      <trkpt lat="45.4942" lon="6.67925">
        <ele>2279.32</ele>
        <time>2016-03-23T11:13:19Z</time>
      </trkpt>
      <trkpt lat="45.49402" lon="6.67929">
        <ele>2284.32</ele>
        <time>2016-03-23T11:13:25Z</time>
      </trkpt>
      <trkpt lat="45.49381" lon="6.67936">
        <ele>2287.65</ele>
        <time>2016-03-23T11:13:32Z</time>
      </trkpt>
      <trkpt lat="45.49362" lon="6.67942">
        <ele>2288.49</ele>
        <time>2016-03-23T11:13:38Z</time>
      </trkpt>
      <trkpt lat="45.49347" lon="6.67927">
        <ele>2292.27</ele>
        <time>2016-03-23T11:13:47Z</time>
      </trkpt>
      <trkpt lat="45.49354" lon="6.67903">
        <ele>2293.57</ele>
        <time>2016-03-23T11:13:58Z</time>
      </trkpt>
      <trkpt lat="45.49365" lon="6.67881">
        <ele>2289.78</ele>
        <time>2016-03-23T11:14:09Z</time>
      </trkpt>
      <trkpt lat="45.49382" lon="6.67861">
        <ele>2287.58</ele>
        <time>2016-03-23T11:14:13Z</time>
      </trkpt>
      <trkpt lat="45.494" lon="6.67845">
        <ele>2285.77</ele>
        <time>2016-03-23T11:14:16Z</time>
      </trkpt>
      <trkpt lat="45.4942" lon="6.67828">
        <ele>2283.74</ele>
        <time>2016-03-23T11:14:19Z</time>
      </trkpt>
      <trkpt lat="45.49437" lon="6.67809">
        <ele>2279.18</ele>
        <time>2016-03-23T11:14:22Z</time>
      </trkpt>
      <trkpt lat="45.49451" lon="6.67792">
        <ele>2271.11</ele>
        <time>2016-03-23T11:14:25Z</time>
      </trkpt>
      <trkpt lat="45.49467" lon="6.67773">
        <ele>2266.02</ele>
        <time>2016-03-23T11:14:28Z</time>
      </trkpt>
      <trkpt lat="45.49483" lon="6.67759">
        <ele>2256.01</ele>
        <time>2016-03-23T11:14:40Z</time>
      </trkpt>
      <trkpt lat="45.49501" lon="6.67742">
        <ele>2250.02</ele>
        <time>2016-03-23T11:14:44Z</time>
      </trkpt>
      <trkpt lat="45.49519" lon="6.67732">
        <ele>2244</ele>
        <time>2016-03-23T11:14:47Z</time>
      </trkpt>
      <trkpt lat="45.49538" lon="6.67724">
        <ele>2237.01</ele>
        <time>2016-03-23T11:14:50Z</time>
      </trkpt>
      <trkpt lat="45.49564" lon="6.67721">
        <ele>2228.28</ele>
        <time>2016-03-23T11:14:53Z</time>
      </trkpt>
      <trkpt lat="45.49586" lon="6.67723">
        <ele>2223.88</ele>
        <time>2016-03-23T11:14:55Z</time>
      </trkpt>
      <trkpt lat="45.49611" lon="6.67721">
        <ele>2222.54</ele>
        <time>2016-03-23T11:14:58Z</time>
      </trkpt>
      <trkpt lat="45.49633" lon="6.6773">
        <ele>2213.98</ele>
        <time>2016-03-23T11:15:36Z</time>
      </trkpt>
      <trkpt lat="45.49652" lon="6.67729">
        <ele>2210.77</ele>
        <time>2016-03-23T11:15:41Z</time>
      </trkpt>
      <trkpt lat="45.4967" lon="6.67731">
        <ele>2207.59</ele>
        <time>2016-03-23T11:15:45Z</time>
      </trkpt>
      <trkpt lat="45.49689" lon="6.67741">
        <ele>2206.57</ele>
        <time>2016-03-23T11:15:50Z</time>
      </trkpt>
      <trkpt lat="45.49708" lon="6.6774">
        <ele>2202.79</ele>
        <time>2016-03-23T11:15:53Z</time>
      </trkpt>
      <trkpt lat="45.49726" lon="6.67745">
        <ele>2199.57</ele>
        <time>2016-03-23T11:16:00Z</time>
      </trkpt>
      <trkpt lat="45.49741" lon="6.67761">
        <ele>2196.53</ele>
        <time>2016-03-23T11:16:09Z</time>
      </trkpt>
      <trkpt lat="45.49757" lon="6.67748">
        <ele>2190.54</ele>
        <time>2016-03-23T11:16:26Z</time>
      </trkpt>
      <trkpt lat="45.49775" lon="6.67736">
        <ele>2187.54</ele>
        <time>2016-03-23T11:16:32Z</time>
      </trkpt>
      <trkpt lat="45.49794" lon="6.67737">
        <ele>2184.94</ele>
        <time>2016-03-23T11:16:36Z</time>
      </trkpt>
      <trkpt lat="45.49812" lon="6.67739">
        <ele>2177.59</ele>
        <time>2016-03-23T11:16:41Z</time>
      </trkpt>
      <trkpt lat="45.49832" lon="6.67736">
        <ele>2171.57</ele>
        <time>2016-03-23T11:16:49Z</time>
      </trkpt>
      <trkpt lat="45.49852" lon="6.67733">
        <ele>2162.98</ele>
        <time>2016-03-23T11:16:57Z</time>
      </trkpt>
      <trkpt lat="45.49871" lon="6.67733">
        <ele>2160.74</ele>
        <time>2016-03-23T11:17:03Z</time>
      </trkpt>
      <trkpt lat="45.4989" lon="6.67738">
        <ele>2156.53</ele>
        <time>2016-03-23T11:17:11Z</time>
      </trkpt>
      <trkpt lat="45.49907" lon="6.67722">
        <ele>2147.25</ele>
        <time>2016-03-23T11:17:27Z</time>
      </trkpt>
      <trkpt lat="45.49926" lon="6.67721">
        <ele>2140.01</ele>
        <time>2016-03-23T11:17:37Z</time>
      </trkpt>
      <trkpt lat="45.49945" lon="6.6772">
        <ele>2130.81</ele>
        <time>2016-03-23T11:17:43Z</time>
      </trkpt>
      <trkpt lat="45.49963" lon="6.67724">
        <ele>2127.73</ele>
        <time>2016-03-23T11:17:49Z</time>
      </trkpt>
      <trkpt lat="45.4998" lon="6.67738">
        <ele>2119.52</ele>
        <time>2016-03-23T11:18:15Z</time>
      </trkpt>
      <trkpt lat="45.49997" lon="6.67753">
        <ele>2116.54</ele>
        <time>2016-03-23T11:18:21Z</time>
      </trkpt>
      <trkpt lat="45.50006" lon="6.6778">
        <ele>2110.95</ele>
        <time>2016-03-23T11:18:28Z</time>
      </trkpt>
      <trkpt lat="45.50008" lon="6.67806">
        <ele>2107.62</ele>
        <time>2016-03-23T11:18:33Z</time>
      </trkpt>
      <trkpt lat="45.50011" lon="6.67832">
        <ele>2101.59</ele>
        <time>2016-03-23T11:18:39Z</time>
      </trkpt>
      <trkpt lat="45.50024" lon="6.67851">
        <ele>2089.59</ele>
        <time>2016-03-23T11:18:50Z</time>
      </trkpt>
      <trkpt lat="45.50041" lon="6.67861">
        <ele>2087.61</ele>
        <time>2016-03-23T11:19:40Z</time>
      </trkpt>
      <trkpt lat="45.50061" lon="6.67843">
        <ele>2087.17</ele>
        <time>2016-03-23T11:19:46Z</time>
      </trkpt>
      <trkpt lat="45.5008" lon="6.67838">
        <ele>2084.42</ele>
        <time>2016-03-23T11:19:54Z</time>
      </trkpt>
      <trkpt lat="45.501" lon="6.6783">
        <ele>2079.75</ele>
        <time>2016-03-23T11:19:59Z</time>
      </trkpt>
      <trkpt lat="45.50118" lon="6.67825">
        <ele>2078.54</ele>
        <time>2016-03-23T11:20:02Z</time>
      </trkpt>
      <trkpt lat="45.50132" lon="6.67801">
        <ele>2074.8</ele>
        <time>2016-03-23T11:20:07Z</time>
      </trkpt>
      <trkpt lat="45.50148" lon="6.67782">
        <ele>2068.18</ele>
        <time>2016-03-23T11:20:12Z</time>
      </trkpt>
      <trkpt lat="45.50166" lon="6.67779">
        <ele>2061.67</ele>
        <time>2016-03-23T11:20:35Z</time>
      </trkpt>
      <trkpt lat="45.50186" lon="6.6778">
        <ele>2058.93</ele>
        <time>2016-03-23T11:20:39Z</time>
      </trkpt>
      <trkpt lat="45.50206" lon="6.67777">
        <ele>2052.36</ele>
        <time>2016-03-23T11:20:43Z</time>
      </trkpt>
      <trkpt lat="45.50228" lon="6.67774">
        <ele>2053.45</ele>
        <time>2016-03-23T11:20:47Z</time>
      </trkpt>
      <trkpt lat="45.50248" lon="6.67762">
        <ele>2050.75</ele>
        <time>2016-03-23T11:20:52Z</time>
      </trkpt>
      <trkpt lat="45.50267" lon="6.67753">
        <ele>2046.93</ele>
        <time>2016-03-23T11:20:56Z</time>
      </trkpt>
      <trkpt lat="45.50289" lon="6.67751">
        <ele>2039.23</ele>
        <time>2016-03-23T11:21:00Z</time>
      </trkpt>
      <trkpt lat="45.50308" lon="6.67759">
        <ele>2034.78</ele>
        <time>2016-03-23T11:21:04Z</time>
      </trkpt>
      <trkpt lat="45.50327" lon="6.67744">
        <ele>2027.66</ele>
        <time>2016-03-23T11:21:58Z</time>
      </trkpt>
      <trkpt lat="45.50344" lon="6.67756">
        <ele>2024.78</ele>
        <time>2016-03-23T11:22:01Z</time>
      </trkpt>
      <trkpt lat="45.50362" lon="6.67762">
        <ele>2020.79</ele>
        <time>2016-03-23T11:22:04Z</time>
      </trkpt>
      <trkpt lat="45.50384" lon="6.67759">
        <ele>2016.82</ele>
        <time>2016-03-23T11:22:07Z</time>
      </trkpt>
      <trkpt lat="45.50404" lon="6.67737">
        <ele>2015.73</ele>
        <time>2016-03-23T11:22:10Z</time>
      </trkpt>
      <trkpt lat="45.50415" lon="6.67708">
        <ele>2014.57</ele>
        <time>2016-03-23T11:22:13Z</time>
      </trkpt>
      <trkpt lat="45.50427" lon="6.67679">
        <ele>2013.54</ele>
        <time>2016-03-23T11:22:16Z</time>
      </trkpt>
      <trkpt lat="45.50433" lon="6.67652">
        <ele>2006.2</ele>
        <time>2016-03-23T11:22:19Z</time>
      </trkpt>
      <trkpt lat="45.50446" lon="6.67621">
        <ele>2003.74</ele>
        <time>2016-03-23T11:22:22Z</time>
      </trkpt>
      <trkpt lat="45.5046" lon="6.67591">
        <ele>2003.56</ele>
        <time>2016-03-23T11:22:25Z</time>
      </trkpt>
      <trkpt lat="45.50466" lon="6.67564">
        <ele>2001.74</ele>
        <time>2016-03-23T11:22:28Z</time>
      </trkpt>
      <trkpt lat="45.5047" lon="6.67535">
        <ele>1999.57</ele>
        <time>2016-03-23T11:22:32Z</time>
      </trkpt>
      <trkpt lat="45.50471" lon="6.67507">
        <ele>1997.73</ele>
        <time>2016-03-23T11:22:38Z</time>
      </trkpt>
      <trkpt lat="45.50467" lon="6.67482">
        <ele>1992.6</ele>
        <time>2016-03-23T11:22:48Z</time>
      </trkpt>
      <trkpt lat="45.50456" lon="6.6746">
        <ele>1988.58</ele>
        <time>2016-03-23T11:23:08Z</time>
      </trkpt>
      <trkpt lat="45.50451" lon="6.67433">
        <ele>1990.53</ele>
        <time>2016-03-23T11:23:33Z</time>
      </trkpt>
      <trkpt lat="45.50445" lon="6.67409">
        <ele>1989.69</ele>
        <time>2016-03-23T11:23:38Z</time>
      </trkpt>
      <trkpt lat="45.50441" lon="6.67384">
        <ele>1992.68</ele>
        <time>2016-03-23T11:23:42Z</time>
      </trkpt>
      <trkpt lat="45.50436" lon="6.67358">
        <ele>1995.28</ele>
        <time>2016-03-23T11:23:47Z</time>
      </trkpt>
      <trkpt lat="45.50429" lon="6.67328">
        <ele>1997.32</ele>
        <time>2016-03-23T11:23:52Z</time>
      </trkpt>
      <trkpt lat="45.50423" lon="6.673">
        <ele>2001.28</ele>
        <time>2016-03-23T11:23:57Z</time>
      </trkpt>
      <trkpt lat="45.50417" lon="6.67271">
        <ele>2008.27</ele>
        <time>2016-03-23T11:24:02Z</time>
      </trkpt>
      <trkpt lat="45.50411" lon="6.67243">
        <ele>2016.24</ele>
        <time>2016-03-23T11:24:07Z</time>
      </trkpt>
      <trkpt lat="45.50405" lon="6.67215">
        <ele>2024.08</ele>
        <time>2016-03-23T11:24:12Z</time>
      </trkpt>
      <trkpt lat="45.504" lon="6.67189">
        <ele>2031.24</ele>
        <time>2016-03-23T11:24:17Z</time>
      </trkpt>
      <trkpt lat="45.50393" lon="6.6716">
        <ele>2041.24</ele>
        <time>2016-03-23T11:24:22Z</time>
      </trkpt>
      <trkpt lat="45.50389" lon="6.67135">
        <ele>2052.03</ele>
        <time>2016-03-23T11:24:27Z</time>
      </trkpt>
      <trkpt lat="45.50383" lon="6.67108">
        <ele>2060.25</ele>
        <time>2016-03-23T11:24:32Z</time>
      </trkpt>
      <trkpt lat="45.50376" lon="6.67081">
        <ele>2067.28</ele>
        <time>2016-03-23T11:24:36Z</time>
      </trkpt>
      <trkpt lat="45.50371" lon="6.67056">
        <ele>2072.27</ele>
        <time>2016-03-23T11:24:40Z</time>
      </trkpt>
      <trkpt lat="45.50364" lon="6.67029">
        <ele>2078.28</ele>
        <time>2016-03-23T11:24:45Z</time>
      </trkpt>
      <trkpt lat="45.50358" lon="6.66999">
        <ele>2089.44</ele>
        <time>2016-03-23T11:24:49Z</time>
      </trkpt>
      <trkpt lat="45.50351" lon="6.66968">
        <ele>2099.79</ele>
        <time>2016-03-23T11:24:53Z</time>
      </trkpt>
      <trkpt lat="45.50345" lon="6.66939">
        <ele>2110.03</ele>
        <time>2016-03-23T11:24:58Z</time>
      </trkpt>
      <trkpt lat="45.50337" lon="6.66915">
        <ele>2116.04</ele>
        <time>2016-03-23T11:25:02Z</time>
      </trkpt>
      <trkpt lat="45.50332" lon="6.66885">
        <ele>2124.27</ele>
        <time>2016-03-23T11:25:07Z</time>
      </trkpt>
      <trkpt lat="45.50326" lon="6.66861">
        <ele>2129.08</ele>
        <time>2016-03-23T11:25:11Z</time>
      </trkpt>
      <trkpt lat="45.50318" lon="6.66831">
        <ele>2135.27</ele>
        <time>2016-03-23T11:25:16Z</time>
      </trkpt>
      <trkpt lat="45.50311" lon="6.66802">
        <ele>2140.91</ele>
        <time>2016-03-23T11:25:21Z</time>
      </trkpt>
      <trkpt lat="45.50304" lon="6.66778">
        <ele>2144.32</ele>
        <time>2016-03-23T11:25:25Z</time>
      </trkpt>
      <trkpt lat="45.50297" lon="6.66749">
        <ele>2151.24</ele>
        <time>2016-03-23T11:25:30Z</time>
      </trkpt>
      <trkpt lat="45.50298" lon="6.6672">
        <ele>2162.23</ele>
        <time>2016-03-23T11:25:35Z</time>
      </trkpt>
      <trkpt lat="45.50293" lon="6.6669">
        <ele>2166.48</ele>
        <time>2016-03-23T11:25:40Z</time>
      </trkpt>
      <trkpt lat="45.50288" lon="6.66662">
        <ele>2173.27</ele>
        <time>2016-03-23T11:25:45Z</time>
      </trkpt>
      <trkpt lat="45.50283" lon="6.66633">
        <ele>2178.88</ele>
        <time>2016-03-23T11:25:50Z</time>
      </trkpt>
      <trkpt lat="45.50276" lon="6.66606">
        <ele>2186.05</ele>
        <time>2016-03-23T11:25:55Z</time>
      </trkpt>
      <trkpt lat="45.50267" lon="6.66581">
        <ele>2193.24</ele>
        <time>2016-03-23T11:26:00Z</time>
      </trkpt>
      <trkpt lat="45.50259" lon="6.66553">
        <ele>2199.11</ele>
        <time>2016-03-23T11:26:05Z</time>
      </trkpt>
      <trkpt lat="45.50257" lon="6.66525">
        <ele>2209.99</ele>
        <time>2016-03-23T11:26:10Z</time>
      </trkpt>
      <trkpt lat="45.50252" lon="6.665">
        <ele>2219.02</ele>
        <time>2016-03-23T11:26:14Z</time>
      </trkpt>
      <trkpt lat="45.5025" lon="6.66474">
        <ele>2230.82</ele>
        <time>2016-03-23T11:26:18Z</time>
      </trkpt>
      <trkpt lat="45.50244" lon="6.6645">
        <ele>2239.07</ele>
        <time>2016-03-23T11:26:22Z</time>
      </trkpt>
      <trkpt lat="45.50238" lon="6.6642">
        <ele>2248.22</ele>
        <time>2016-03-23T11:26:27Z</time>
      </trkpt>
      <trkpt lat="45.50232" lon="6.66391">
        <ele>2258</ele>
        <time>2016-03-23T11:26:32Z</time>
      </trkpt>
      <trkpt lat="45.50226" lon="6.66363">
        <ele>2268.07</ele>
        <time>2016-03-23T11:26:37Z</time>
      </trkpt>
      <trkpt lat="45.5022" lon="6.66335">
        <ele>2277.87</ele>
        <time>2016-03-23T11:26:42Z</time>
      </trkpt>
      <trkpt lat="45.50214" lon="6.66308">
        <ele>2288.06</ele>
        <time>2016-03-23T11:26:47Z</time>
      </trkpt>
      <trkpt lat="45.50208" lon="6.66281">
        <ele>2300.82</ele>
        <time>2016-03-23T11:26:52Z</time>
      </trkpt>
      <trkpt lat="45.50203" lon="6.66255">
        <ele>2312.82</ele>
        <time>2016-03-23T11:26:57Z</time>
      </trkpt>
      <trkpt lat="45.50197" lon="6.66227">
        <ele>2325.99</ele>
        <time>2016-03-23T11:27:02Z</time>
      </trkpt>
      <trkpt lat="45.50193" lon="6.66198">
        <ele>2339.02</ele>
        <time>2016-03-23T11:27:07Z</time>
      </trkpt>
      <trkpt lat="45.50187" lon="6.66173">
        <ele>2343.48</ele>
        <time>2016-03-23T11:27:11Z</time>
      </trkpt>
      <trkpt lat="45.5018" lon="6.66149">
        <ele>2343.53</ele>
        <time>2016-03-23T11:27:18Z</time>
      </trkpt>
      <trkpt lat="45.50178" lon="6.66124">
        <ele>2347.52</ele>
        <time>2016-03-23T11:27:28Z</time>
      </trkpt>
      <trkpt lat="45.50198" lon="6.66124">
        <ele>2343.53</ele>
        <time>2016-03-23T11:28:13Z</time>
      </trkpt>
      <trkpt lat="45.50216" lon="6.66126">
        <ele>2341.57</ele>
        <time>2016-03-23T11:28:20Z</time>
      </trkpt>
      <trkpt lat="45.50236" lon="6.66127">
        <ele>2340.54</ele>
        <time>2016-03-23T11:28:25Z</time>
      </trkpt>
      <trkpt lat="45.50255" lon="6.66124">
        <ele>2338.57</ele>
        <time>2016-03-23T11:28:29Z</time>
      </trkpt>
      <trkpt lat="45.50277" lon="6.66116">
        <ele>2336.58</ele>
        <time>2016-03-23T11:28:33Z</time>
      </trkpt>
      <trkpt lat="45.50297" lon="6.66113">
        <ele>2334.74</ele>
        <time>2016-03-23T11:28:36Z</time>
      </trkpt>
      <trkpt lat="45.50317" lon="6.66107">
        <ele>2332.58</ele>
        <time>2016-03-23T11:28:39Z</time>
      </trkpt>
      <trkpt lat="45.5034" lon="6.66104">
        <ele>2330.58</ele>
        <time>2016-03-23T11:28:42Z</time>
      </trkpt>
      <trkpt lat="45.50363" lon="6.66099">
        <ele>2326.79</ele>
        <time>2016-03-23T11:28:45Z</time>
      </trkpt>
      <trkpt lat="45.50384" lon="6.66095">
        <ele>2323.78</ele>
        <time>2016-03-23T11:28:48Z</time>
      </trkpt>
      <trkpt lat="45.50404" lon="6.66092">
        <ele>2322.73</ele>
        <time>2016-03-23T11:28:51Z</time>
      </trkpt>
      <trkpt lat="45.50425" lon="6.66091">
        <ele>2321.57</ele>
        <time>2016-03-23T11:28:55Z</time>
      </trkpt>
      <trkpt lat="45.50443" lon="6.6609">
        <ele>2320.73</ele>
        <time>2016-03-23T11:29:00Z</time>
      </trkpt>
      <trkpt lat="45.50462" lon="6.66089">
        <ele>2319.53</ele>
        <time>2016-03-23T11:29:06Z</time>
      </trkpt>
      <trkpt lat="45.50481" lon="6.66091">
        <ele>2316.56</ele>
        <time>2016-03-23T11:29:14Z</time>
      </trkpt>
      <trkpt lat="45.50503" lon="6.66096">
        <ele>2314.58</ele>
        <time>2016-03-23T11:29:21Z</time>
      </trkpt>
      <trkpt lat="45.50521" lon="6.66103">
        <ele>2310.82</ele>
        <time>2016-03-23T11:29:24Z</time>
      </trkpt>
      <trkpt lat="45.50545" lon="6.66111">
        <ele>2306.82</ele>
        <time>2016-03-23T11:29:27Z</time>
      </trkpt>
      <trkpt lat="45.50565" lon="6.66118">
        <ele>2303.98</ele>
        <time>2016-03-23T11:29:29Z</time>
      </trkpt>
      <trkpt lat="45.50584" lon="6.66124">
        <ele>2301.79</ele>
        <time>2016-03-23T11:29:31Z</time>
      </trkpt>
      <trkpt lat="45.50603" lon="6.66131">
        <ele>2298.98</ele>
        <time>2016-03-23T11:29:33Z</time>
      </trkpt>
      <trkpt lat="45.50622" lon="6.66138">
        <ele>2295.99</ele>
        <time>2016-03-23T11:29:35Z</time>
      </trkpt>
      <trkpt lat="45.50638" lon="6.6615">
        <ele>2292.99</ele>
        <time>2016-03-23T11:29:37Z</time>
      </trkpt>
      <trkpt lat="45.50659" lon="6.66159">
        <ele>2289.94</ele>
        <time>2016-03-23T11:29:40Z</time>
      </trkpt>
      <trkpt lat="45.50678" lon="6.66176">
        <ele>2286.97</ele>
        <time>2016-03-23T11:29:43Z</time>
      </trkpt>
      <trkpt lat="45.50685" lon="6.66201">
        <ele>2283.78</ele>
        <time>2016-03-23T11:29:46Z</time>
      </trkpt>
      <trkpt lat="45.50699" lon="6.66218">
        <ele>2280.98</ele>
        <time>2016-03-23T11:29:48Z</time>
      </trkpt>
      <trkpt lat="45.50704" lon="6.66247">
        <ele>2275.8</ele>
        <time>2016-03-23T11:29:51Z</time>
      </trkpt>
      <trkpt lat="45.50717" lon="6.6627">
        <ele>2269.42</ele>
        <time>2016-03-23T11:29:54Z</time>
      </trkpt>
      <trkpt lat="45.50728" lon="6.663">
        <ele>2263.03</ele>
        <time>2016-03-23T11:29:57Z</time>
      </trkpt>
      <trkpt lat="45.50741" lon="6.66328">
        <ele>2257.99</ele>
        <time>2016-03-23T11:30:00Z</time>
      </trkpt>
      <trkpt lat="45.5076" lon="6.66345">
        <ele>2252.06</ele>
        <time>2016-03-23T11:30:03Z</time>
      </trkpt>
      <trkpt lat="45.50774" lon="6.66361">
        <ele>2234.22</ele>
        <time>2016-03-23T11:30:19Z</time>
      </trkpt>
      <trkpt lat="45.50793" lon="6.66369">
        <ele>2226.19</ele>
        <time>2016-03-23T11:30:23Z</time>
      </trkpt>
      <trkpt lat="45.50816" lon="6.66368">
        <ele>2220.18</ele>
        <time>2016-03-23T11:30:27Z</time>
      </trkpt>
      <trkpt lat="45.50834" lon="6.66382">
        <ele>2211.08</ele>
        <time>2016-03-23T11:30:31Z</time>
      </trkpt>
      <trkpt lat="45.50862" lon="6.66391">
        <ele>2204.98</ele>
        <time>2016-03-23T11:30:35Z</time>
      </trkpt>
      <trkpt lat="45.50877" lon="6.6641">
        <ele>2199.13</ele>
        <time>2016-03-23T11:30:38Z</time>
      </trkpt>
      <trkpt lat="45.50904" lon="6.66406">
        <ele>2192.39</ele>
        <time>2016-03-23T11:30:41Z</time>
      </trkpt>
      <trkpt lat="45.50923" lon="6.6641">
        <ele>2188.05</ele>
        <time>2016-03-23T11:30:43Z</time>
      </trkpt>
      <trkpt lat="45.50941" lon="6.66419">
        <ele>2185.79</ele>
        <time>2016-03-23T11:30:45Z</time>
      </trkpt>
      <trkpt lat="45.50959" lon="6.66417">
        <ele>2178.02</ele>
        <time>2016-03-23T11:30:47Z</time>
      </trkpt>
      <trkpt lat="45.50981" lon="6.66423">
        <ele>2173.07</ele>
        <time>2016-03-23T11:30:49Z</time>
      </trkpt>
      <trkpt lat="45.50999" lon="6.66443">
        <ele>2163.59</ele>
        <time>2016-03-23T11:30:51Z</time>
      </trkpt>
      <trkpt lat="45.51022" lon="6.66449">
        <ele>2158.25</ele>
        <time>2016-03-23T11:30:53Z</time>
      </trkpt>
      <trkpt lat="45.5104" lon="6.6645">
        <ele>2154.84</ele>
        <time>2016-03-23T11:30:55Z</time>
      </trkpt>
      <trkpt lat="45.51065" lon="6.6645">
        <ele>2149.99</ele>
        <time>2016-03-23T11:30:58Z</time>
      </trkpt>
      <trkpt lat="45.5109" lon="6.66452">
        <ele>2139.82</ele>
        <time>2016-03-23T11:31:02Z</time>
      </trkpt>
      <trkpt lat="45.51105" lon="6.66466">
        <ele>2138.58</ele>
        <time>2016-03-23T11:31:04Z</time>
      </trkpt>
      <trkpt lat="45.5113" lon="6.66477">
        <ele>2134.98</ele>
        <time>2016-03-23T11:31:07Z</time>
      </trkpt>
      <trkpt lat="45.51153" lon="6.66494">
        <ele>2129</ele>
        <time>2016-03-23T11:31:10Z</time>
      </trkpt>
      <trkpt lat="45.51171" lon="6.66504">
        <ele>2125.99</ele>
        <time>2016-03-23T11:31:12Z</time>
      </trkpt>
      <trkpt lat="45.51193" lon="6.66523">
        <ele>2119.07</ele>
        <time>2016-03-23T11:31:15Z</time>
      </trkpt>
      <trkpt lat="45.51212" lon="6.66538">
        <ele>2113.03</ele>
        <time>2016-03-23T11:31:18Z</time>
      </trkpt>
      <trkpt lat="45.51224" lon="6.66562">
        <ele>2105.82</ele>
        <time>2016-03-23T11:31:22Z</time>
      </trkpt>
      <trkpt lat="45.51244" lon="6.66585">
        <ele>2099.83</ele>
        <time>2016-03-23T11:31:26Z</time>
      </trkpt>
      <trkpt lat="45.51252" lon="6.6661">
        <ele>2092.03</ele>
        <time>2016-03-23T11:31:30Z</time>
      </trkpt>
      <trkpt lat="45.51252" lon="6.66636">
        <ele>2085.03</ele>
        <time>2016-03-23T11:31:34Z</time>
      </trkpt>
      <trkpt lat="45.51241" lon="6.66663">
        <ele>2082.38</ele>
        <time>2016-03-23T11:31:38Z</time>
      </trkpt>
      <trkpt lat="45.51228" lon="6.66689">
        <ele>2080.58</ele>
        <time>2016-03-23T11:31:41Z</time>
      </trkpt>
    </trkseg>
  </trk>
</gpx>